Compare commits

...
Author SHA1 Message Date
JonRay15 eba8e3ca8b Update feature-epic.md 2023-08-10 11:58:36 +01:00
Mikołaj Młodzikowski 6894fe1264 fix(ci): hardcode env name 2023-08-10 12:53:35 +02:00
Edd 93e4b5fdb9 feat(explorer): successor markets (#4522) 2023-08-10 09:51:44 +01:00
Maciek 1566fc3984 chore: fulfill spec to 4323 (#4520) 2023-08-10 09:20:26 +02:00
Ben 39962a0246 chore(trading): update console-test runners (#4513) 2023-08-09 14:18:24 +01:00
Sam KeenandJoe 8d31510d5e feat(governance,markets,ui-toolkit): highlight successor market changes (#4449)
Co-authored-by: Joe <joe@vega.xyz>
2023-08-09 14:05:37 +01:00
Bartłomiej Głownia 26d5a67604 feat(trading): use custom toast content for stop order related transactions (#4476) 2023-08-09 14:47:10 +02:00
Bartłomiej Głownia 9cc8f5a377 feat(trading): use instrument code instead of name in positions, fills and accounts breakdown tables (#4478) 2023-08-09 12:12:07 +02:00
Matthew Russell 2e11cf4dfa fix(trading): fix persitance of resizable grid top section (#4508) 2023-08-09 11:04:32 +01:00
Bartłomiej Głownia 9e4ba9f275 feat(trading): merge deal ticket stores (#4494) 2023-08-09 11:54:16 +02:00
m.ray aac0c25d09 fix(trading): positions tooltips update (#4504) 2023-08-08 13:27:17 +01:00
Art d20c2a08ae chore(specs): succession line specs (#4505) 2023-08-08 11:23:28 +01:00
daro-maj 4e6ba5fe3d test(trading): update cypress tests (#4503) 2023-08-08 10:36:10 +02:00
Art 276d1d7c7b feat(governance): view as button (#4501) 2023-08-08 09:50:19 +02:00
m.ray 4990c5808d fix(trading): order iceberg fills (#4502) 2023-08-07 16:07:24 +00:00
Art cdd91c24f2 feat(markets): succession line (#4491) 2023-08-07 11:46:03 +00:00
Sam Keen e3eb13ca72 fix(explorer): footer visual tweaks (#4499) 2023-08-07 11:54:46 +01:00
Matthew Russell 3f0ebbf33d fix(trading): dont render get started if connected (#4490) 2023-08-07 11:35:55 +01:00
Matthew Russell 026aa3964b chore(trading): update pennant (#4493) 2023-08-07 11:06:49 +01:00
daro-maj aa4c5a4a57 test(trading): update cypress tests (#4496) 2023-08-07 10:28:13 +02:00
Matthew Russell 0874314d2a chore: add specs (#4497) 2023-08-07 08:41:25 +01:00
Matthew Russell a70a7bcc8e fix(trading): dont show connect wallet message in deal ticket (#4482) 2023-08-04 11:09:43 +01:00
Matthew Russell 4461a6a497 fix(trading): remove hover state from disabled view as button (#4487) 2023-08-04 11:08:48 +01:00
Matthew Russell 1041864ad8 chore(trading): remove unnecessary forwarding of grid refs (#4486) 2023-08-04 11:08:28 +01:00
Matthew Russell 015e0188ec chore: enable iceberg orders 2023-08-03 12:38:51 +01:00
Matthew Russell 228236c152 chore(deal-ticket): type dropdown icon (#4468) 2023-08-03 12:15:21 +01:00
Art cd6e906dc6 feat(trading): view as button in sidebar (#4470) 2023-08-03 12:14:35 +01:00
Maciek 8a47a92dbd fix(trading): add info splashes on deposit and withdrawals list containers (#4479) 2023-08-03 12:01:42 +01:00
Matthew Russell af14c27df9 chore(trading): responsive welcome dialog content and content update (#4475) 2023-08-03 12:01:09 +01:00
Matthew Russell 38edcd88c0 chore(trading): fix alignment of expire (#4477) 2023-08-03 12:00:12 +01:00
m.ray a74cf02030 feat(trading): order details dialog (#4281) 2023-08-03 10:05:12 +00:00
Joe Tsang 6686755763 chore(governance): fix failing tests from nightly run (#4453) 2023-08-03 10:01:00 +01:00
Joe Tsang 79cf8163be chore(governance): add e2e test for successor market (#4471) 2023-08-03 09:54:51 +01:00
Matthew Russell 1688e26f4b feat(trading): add fairground texture background to logo (#4474) 2023-08-03 09:28:01 +01:00
Art 5e101a8eaf feat(trading): deposit page (#4472) 2023-08-02 19:06:49 +02:00
Matthew Russell 65071f57d0 fix(trading,governance): eager connection for browser wallet (#4444) 2023-08-02 17:16:09 +01:00
daro-maj b87c981a90 test(trading): fix for key-to-key test (#4469) 2023-08-02 18:11:31 +02:00
Joe TsangandMatthew Russell b509e5b347 test(explorer): e2e proposal test (#4379)
Co-authored-by: Matthew Russell <mattrussell36@gmail.com>
2023-08-02 16:37:55 +01:00
Maciek bb9fce4831 feat(trading): 4322 get started steps (#4440) 2023-08-02 15:34:04 +00:00
Matthew Russell 918825aca8 chore: adjust spacing and text size of long/short type selectors 2023-08-02 15:36:39 +01:00
Matthew Russell 74bf183fad feat(trading): 3114 pane context (#4442) 2023-08-02 15:29:41 +01:00
m.ray 674baa1ee3 fix(trading): iceberg order fills (#4460) 2023-08-02 16:55:49 +03:00
Matthew Russell d18a0c7e15 fix(trading): lp table forward ref breaking resize grid (#4447) 2023-08-02 13:59:05 +01:00
m.ray 76a6005b77 fix(trading): replace all markets with open markets (#4452) 2023-08-02 13:58:26 +01:00
JonRay15andMatthew Russell 79414614c2 chore(trading,governance,explorer): fix issue template (#4459)
Co-authored-by: Matthew Russell <mattrussell36@gmail.com>
2023-08-02 12:52:51 +01:00
m.ray fde49e5446 fix(trading): order stopped misleading message (#4455) 2023-08-02 11:52:07 +01:00
JonRay15andMatthew Russell 45283161aa chore: create feature-epic issue template (#4456)
Co-authored-by: Matthew Russell <mattrussell36@gmail.com>
2023-08-02 11:48:23 +01:00
Bartłomiej GłowniaandDariusz Majcherczyk 375d447fa8 feat(trading): add stop orders table and form (#4265)
Co-authored-by: Dariusz Majcherczyk <dariusz.majcherczyk@gmail.com>
2023-08-02 11:28:33 +01:00
Mikołaj Młodzikowski 1dd97a2bce feat(ci): add develop docker image (#4458) 2023-08-02 10:58:17 +02:00
Edd d4a1a9b193 fix(explorer): add tests and fix transactions url generation (#4454) 2023-08-01 16:35:40 +01:00
Edd 376c5241a8 feat(explorer): improve transaction pagination (#4435) 2023-08-01 14:41:16 +00:00
Ciaran McGhie 8e6d8517cf feat(ui-toolkit,tailwindcss-config): healthbar auction level indicator (#4406) 2023-08-01 09:44:03 +01:00
Matthew Russell 5f9ec222c1 feat(trading): navigation (#4375) 2023-07-31 17:08:55 +01:00
Edd 8954c41c0a fix(governance): remove incorrect individual reward percentage (#4443) 2023-07-31 15:23:52 +00:00
Mikołaj Młodzikowski 4414ab4f47 feat(ci): wait for publish job to complete via github API 2023-07-31 15:04:34 +02:00
Mikołaj Młodzikowski d1d4bacc68 feat(ci): patch mainnet release 2023-07-31 13:09:00 +02:00
Joe Tsang f476688c7f chore(governance): fix failing proposal test (#4434) 2023-07-31 09:58:52 +01:00
Sam Keen 8845222700 feat(governance): remove max limit on associate function (#4427) 2023-07-28 11:12:29 +00:00
Radosław Szpiech e64c464091 chore(trading): move cumulative vol testid in orderbook (#4420) 2023-07-28 11:15:40 +02:00
Joe Tsang b2c2d0d7d6 test(governance): add e2e test and acs for proposal enhancements (#4421) 2023-07-28 09:34:39 +01:00
Joe Tsang 1fb61d313c chore(governance): add acs for network upgrade banner and estimate (#4402) 2023-07-28 09:34:30 +01:00
Mikołaj Młodzikowski ccf5ff632c feat(ci): setup new tests for console (#4400) 2023-07-28 07:32:07 +02:00
Maciek 54d6aaf56f feat(trading): add market successor proposal banner (#4401) 2023-07-27 14:54:00 +00:00
Mikołaj Młodzikowski 736b262947 fix(ci): publish of static dist (#4414) 2023-07-27 13:52:00 +02:00
Sam KeenandMatthew Russell 6a07127185 feat(governance): diff highlighter for update market proposals (#4260)
Co-authored-by: Matthew Russell <mattrussell36@gmail.com>
2023-07-27 11:26:32 +01:00
Sam Keen 45f0ba7c0e fix(explorer): explorer validator page filtering (#4354) 2023-07-27 09:04:54 +00:00
John WalleyandMatthew Russell 6f4ea68778 chore(trading): upgrade pennant to v1.10.0 (#4331)
Co-authored-by: Matthew Russell <mattrussell36@gmail.com>
2023-07-26 15:35:57 +01:00
Mikołaj Młodzikowski 90dda20891 feat(ci): migrate ci-cd trigger to python (#4330) 2023-07-26 16:08:57 +02:00
Art 278eb01c2f feat(governance): successor market proposal details (#4393) 2023-07-26 14:52:12 +02:00
Sam Keen c3157de146 fix(governance): removed icons test from proposal list item details (#4392) 2023-07-25 15:59:58 +00:00
d28db485c5 chore(trading): market relationship - parent market in proposals list (#4339)
Co-authored-by: asiaznik <artur@vegaprotocol.io>
Co-authored-by: Edd <edd@vega.xyz>
2023-07-25 15:32:40 +00:00
Maciek caa0076396 fix(deal-ticket): 4046 wrong margin requirement in order (#4378) 2023-07-25 14:52:32 +00:00
Edd 451da40ed2 feat(explorer): iceberg details on order tx (#4380) 2023-07-25 13:34:04 +00:00
Joe Tsang 47694e7b72 chore(explorer): explorer market e2e test (#4355) 2023-07-25 11:25:37 +01:00
Sam Keen e01fb7f9ae feat(governance): proposal list tile and summary enhancements (#4326) 2023-07-25 11:23:25 +01:00
Joe Tsang ffcdfb6a6a chore(governance): add e2e test for network upgrade banner (#4361) 2023-07-25 10:48:59 +01:00
Joe Tsang 86f0d013bb chore(governance): minor fixes to flaky nightly tests (#4335) 2023-07-25 10:48:49 +01:00
ArtandEdd c12ac45890 feat(environment): feature flags (#4343)
Co-authored-by: Edd <edd@vega.xyz>
2023-07-25 11:12:53 +02:00
47ce68455a chore(trading): fix flakey trading-trades test (#4363)
Co-authored-by: Matthew Russell <mattrussell36@gmail.com>
Co-authored-by: Art <artur@vegaprotocol.io>
Co-authored-by: Bartłomiej Głownia <bglownia@gmail.com>
Co-authored-by: Dariusz Majcherczyk <dariusz.majcherczyk@gmail.com>
2023-07-24 16:41:44 +01:00
c1675e4b49 feat(trading): design changes (#4264)
Co-authored-by: Art <artur@vegaprotocol.io>
Co-authored-by: Bartłomiej Głownia <bglownia@gmail.com>
Co-authored-by: Dariusz Majcherczyk <dariusz.majcherczyk@gmail.com>
2023-07-24 09:37:18 +01:00
Matthew Russell f8c4d39b93 fix(positions): fix valueGetter for realisedPNL in positions table 2023-07-20 17:55:21 +01:00
Matthew Russell e55cf5ecc6 chore(trading): cherry pick position pnl formatting fix (#4347) 2023-07-20 12:52:33 +01:00
Matthew Russell 406cf22810 chore(trading): remove user pnl from closed market list (#4312) 2023-07-20 12:52:13 +01:00
Edd 8ff46bab5b fix(explorer): fix valueformatter in enactment date on proposal table (#4358) 2023-07-20 10:52:49 +02:00
Art 5f177785b6 feat(governance): protocol upgrade notification, est. time (#4289) 2023-07-20 10:27:43 +02:00
Mikołaj Młodzikowski 06779f36ca feat(ci): fix typo 2023-07-19 16:42:47 +02:00
Sam Keen 29991015b5 fix(governance): filtered out nodes with 0 performance score from homepage list (#4267) 2023-07-19 13:32:57 +01:00
Matthew Russell 071a6ff8bb chore(explorer): clear out slack webhook (#4320) 2023-07-19 11:36:34 +01:00
5b8df4c414 chore(trading): orderbook adjustments (#4293)
Co-authored-by: Ben <ben@vega.xyz>
Co-authored-by: Mikołaj Młodzikowski <mikolaj.mlodzikowski@gmail.com>
Co-authored-by: Joe Tsang <30622993+jtsang586@users.noreply.github.com>
Co-authored-by: Dexter Edwards <dexter.edwards93@gmail.com>
Co-authored-by: m.ray <16125548+MadalinaRaicu@users.noreply.github.com>
Co-authored-by: Art <artur@vegaprotocol.io>
Co-authored-by: Bartłomiej Głownia <bglownia@gmail.com>
Co-authored-by: Gordsport <83510148+gordsport@users.noreply.github.com>
2023-07-18 14:48:51 +00:00
Daniel ce6873fe54 feat(environment): add mainnet mirror config (#4287) 2023-07-18 12:23:58 +01:00
Gordsport d0e64364e3 chore: update the PM action secret token (#4325) 2023-07-18 12:16:57 +01:00
Bartłomiej Głownia 737ffb4c35 feat(trading): copy order book volume value to deal ticket (#4333) 2023-07-18 12:16:07 +01:00
Maciek 53048ac8ef chore(trading): 4134 see if a closed market was succeeded (#4336) 2023-07-18 09:37:25 +00:00
Art 05ca1a09b9 chore(explorer): align staking terminology (#4290) 2023-07-18 09:03:48 +00:00
m.ray 94e398dd1c feat(trading): submit iceberg orders (#4230) 2023-07-17 14:24:51 +00:00
m.ray 7c0a4f61e9 fix(trading): add internal termination oracle (#4208) 2023-07-17 13:33:52 +00:00
m.ray 056d3215e8 feat(trading): view iceberg orders (#4207) 2023-07-17 13:04:03 +00:00
Dexter Edwards a68b2093e4 fix(ui-toolkit): toolkit bugs (#4329) 2023-07-17 10:59:22 +00:00
Mikołaj Młodzikowski f440f57be2 fix(ci): do not trigger releasing to s3 on pull requests 2023-07-14 13:45:06 +02:00
Mikołaj Młodzikowski edbdbcf38e feat(ci): provide fixes for releasing individual apps 2023-07-13 16:10:07 +02:00
Mikołaj Młodzikowski 94a067e34b fix(ci): disable pull_request_target (#4315) 2023-07-13 11:19:37 +02:00
Joe Tsang 8b6b904cd6 test(governance): un-skip governance tests (#4292) 2023-07-13 10:10:48 +01:00
Mikołaj Młodzikowski 27cd8086e1 fix(ci): syntax on switch case 2023-07-12 17:47:46 +02:00
Mikołaj Młodzikowski 6aa109131e feat(ci): allow individual releases of the applications (#4300) 2023-07-12 17:37:49 +02:00
Ben 74777e54f9 chore(ci): revert run console-test on CICD (#4303) 2023-07-12 16:26:52 +01:00
Ben 61e7450906 feat(trading): run console-test on CICD (#4271) 2023-07-12 12:06:48 +01:00
Matthew Russell 6a55319e04 feat(trading,governance,wallet): browser wallet integration (#4121) 2023-07-12 11:34:42 +01:00
Matthew Russell 5692d4e74c Merge branch 'develop' of github.com:vegaprotocol/frontend-monorepo into develop 2023-07-12 11:01:22 +01:00
Maciek ffe89d0fe0 feat(trading): add market banner for successor markets (#4269) 2023-07-12 11:20:01 +02:00
Matthew Russell 57e1ecac6c chore(trading): release v0.20.21-core-0.71.6 2023-07-12 09:01:59 +01:00
daro-maj 77e1390686 test(trading): fix capsule place order test (#4286) 2023-07-12 08:54:40 +01:00
Matthew Russell 981c8649a2 fix(trading): replace oracle details and deal ticket pink with red (#4284) 2023-07-11 14:26:24 +01:00
Bartłomiej Głownia 501ffbfc80 chore(trading): ignore parse source map warnings, fix trading readme (#4252) 2023-07-11 10:41:54 +01:00
Mikołaj Młodzikowski f391e8c351 fix(ci): add different settings to curl and print preview link 2023-07-10 15:53:38 +02:00
Edd 0e10b2108e chore(explorer): update block explorer types for 72 (#4275) 2023-07-10 14:12:12 +01:00
Bartłomiej Głownia 162a934408 feat(trading): amend market red and green colors (#4226) 2023-07-07 14:52:38 +02:00
Joe Tsang 4581e117c4 test(cypress): clean up nx todos (#4273) 2023-07-07 09:23:27 +01:00
Bartłomiej Głownia e89b818e4c feat(orders): reduce number of columns in orders table (#4238) 2023-07-06 17:57:29 +02:00
daro-maj 0665ac85db test(trading): add withdrawal delayed (#4268) 2023-07-06 15:49:02 +02:00
Joe Tsang 3c71a86b48 chore(governance): skip test (#4263) 2023-07-06 09:40:57 +01:00
Art b381f16ace fix(announcements): remember dismissed announcement (#4255) 2023-07-05 16:59:22 +02:00
Matthew Russellandsam-keen fc6ce9e99b fix(governance,trading): proposals not showing (#4222)
Co-authored-by: sam-keen <samuel.kleinmann@gmail.com>
2023-07-05 14:09:13 +01:00
Art f6fc4df1c5 chore(trading): dropdown alignments, account history default asset, transfer dialog asset selector (#4239) 2023-07-05 13:02:02 +02:00
Art fc8f12d6fc fix(proposals): truncated text in network param toast (#4249) 2023-07-05 12:50:42 +02:00
Gordsport 26f4c1c983 feat(governance,explorer,trading): add env config for mainnet-mirror apps (#4253) 2023-07-04 16:20:40 +00:00
Maciek efd632f5c6 chore(orders): get rid of unnecessary stores (#4231) 2023-07-04 17:47:04 +02:00
Joe Tsang ce3da1762b chore(governance): add e2e test for proposal filter changes (#4218) 2023-07-04 13:27:12 +01:00
John Walley 5040fbfd07 chore(trading): upgrade pennant to v1.9.0 (#4235) 2023-07-04 12:10:38 +00:00
Edd 74f2cfa4a5 feat(explorer): remove infinite tx loader (#4217) 2023-07-04 12:51:28 +01:00
Art 8c8fe6878a chore(wallet): remove links from the risk disclaimer (#4240) 2023-07-04 12:12:38 +01:00
Bartłomiej Głownia 6e0577aee4 chore(trading): migrate nx to latest version (#4196) 2023-07-04 13:01:25 +02:00
Edd 87b41a30d8 feat(explorer): add pegged order details (#4228) 2023-07-04 11:18:44 +01:00
Edd 0850f31855 fix(governance): reinstate deleted mock (#4232) 2023-07-03 15:27:40 +01:00
Bartłomiej Głownia 43aff8e359 chore(trading): ag-grid upgrade (#4187) 2023-07-01 13:02:23 +02:00
Bartłomiej Głownia 6e9e7c2a5c fix(positions): use market decimal places to format realized and unrealized PnL (#4225) 2023-06-30 14:58:01 +02:00
Mikołaj Młodzikowski f054f4c516 fix(ci): invalidation id without quotes 2023-06-30 11:24:16 +02:00
Mikołaj Młodzikowski f382078ee6 feat(ci): create cloudfront invalidation after deployment (#4223) 2023-06-30 10:46:25 +02:00
Matthew Russell ebc058bcbe chore(trading): vega icons for withrawals table and wallet dropdown (#4203) 2023-06-29 16:48:53 -07:00
Madalina Raicu d3df339696 chore(trading,governance,explorer): release update to vv0.20.19-core-0.71.6 2023-06-29 16:51:57 +03:00
Sam Keen a31008ea26 feat(governance): improve asset proposal details view (#4216) 2023-06-29 14:41:25 +01:00
Edd 5e93e98f07 fix(explorer): fix order amend tx view (#4197) 2023-06-29 12:25:42 +01:00
Ciaran McGhie bf3ff8fb6f fix(ui-toolkit): healthbar tooltips text colour (#4199) 2023-06-29 12:25:14 +01:00
Bartłomiej Głownia 16538ca3a3 feat(trading): show fills across all markets (#4210) 2023-06-29 12:24:51 +01:00
Edd 2fa00dacaa test(governance,markets): tidy up minor test quibbles (#4213) 2023-06-29 11:20:53 +00:00
Ben 45b7c2ad4d test(trading): 6004-CHAR-chart e2e tests (#4179) 2023-06-29 09:14:54 +01:00
Sam Keen ed2c82487d feat(governance): add toggle for closed proposals list (#4190) 2023-06-28 17:53:01 +01:00
Joe Tsang 55143331f1 test(governance): fix staking tooltip test (#4198) 2023-06-28 17:15:06 +01:00
Davide SandEdd cafb3b1c57 fix(explorer): liquidity provision fee percentage (#4183)
Co-authored-by: Edd <edd@vega.xyz>
2023-06-28 15:35:38 +00:00
Mikołaj Młodzikowski 019b2d7d89 feat(ci): fix brakcets 2023-06-28 15:12:03 +02:00
Mikołaj Młodzikowski de0dc4af8e feat(ci): do not check empty arrays 2023-06-28 15:09:17 +02:00
Mikołaj Młodzikowski 6765f4d03a feat: add logic for testing against pull_request_target 2023-06-28 15:06:01 +02:00
Mikołaj Młodzikowski 7bea90e4d1 fix(ci): use jq to generate valid json arrays from bash (#4205) 2023-06-28 14:54:25 +02:00
Matthew Russell ac4762f9d7 chore(trading): reduce space in chart options 2023-06-27 16:35:36 -07:00
Matthew Russell 1195309b61 fix(announcements): update output path for announcements build (#4202) 2023-06-27 15:51:04 -07:00
Mikołaj Młodzikowski 8ce77e23ba feat(ci): support forked repos by checking out using target of pull request (#4193) 2023-06-27 11:18:13 +02:00
m.ray 5cae2ce400 fix(trading): notional size formatting (#4192) 2023-06-27 09:33:42 +01:00
Matthew Russell b8c9f9772e chore(trading): allow window._env_ override (#4159) 2023-06-27 07:40:42 +01:00
Matthew Russell c3e39b6e15 refactor(trading): pane stores for grid state (#4119) 2023-06-26 17:10:22 -07:00
Matthew Russell 77a391448b fix(liquidity): use LiquidityProvision id (#4191) 2023-06-26 20:43:28 +00:00
ArtandBartłomiej Głownia 484d7888cf feat(web3): ready to withdraw toast (#4142)
Co-authored-by: Bartłomiej Głownia <bglownia@gmail.com>
2023-06-26 16:28:14 +02:00
Joe Tsang 187f1929fe chore(governance): increase epoch timeout (#4185) 2023-06-26 14:09:44 +00:00
Matthew Russell 0a4333645b chore(trading,governance,explorer): re-enable nx-cloud (#4182) 2023-06-26 14:47:22 +02:00
Bartłomiej Głownia 310506e5af feat(positions): live update market data in positions table (#4154) 2023-06-26 12:50:57 +02:00
Joe Tsang 0b33ed4299 test(governance): 3802 multisig error test (#4169) 2023-06-26 10:21:13 +01:00
Matthew Russell 13f2e51798 chore(ui-toolkit): remove forwardRef as refs weren't being passed (#4160) 2023-06-23 15:36:21 -07:00
Bartłomiej Głownia fc047feeee fix(trading): avoid items remounting in MarketSelector List (#4162) 2023-06-23 15:35:50 -07:00
Bartłomiej Głownia 005455c870 chore(orders): use columnDefs in orders list, fix sorting by size and filled (#4170) 2023-06-23 15:33:25 -07:00
daro-maj 2c2bc391e8 test(trading): chart depth e2e tests (#4171) 2023-06-23 15:13:28 +02:00
m.ray 445a085190 fix(trading): market info number formatting (#4163) 2023-06-23 12:44:18 +01:00
Sam Keen bb1b236cdf feat(governance): show multisig penalty in tooltip (#4140) 2023-06-22 09:43:46 +01:00
Joe Tsang da66b7b20d test(governance): test market details specifications (#4153) 2023-06-22 08:32:33 +01:00
Ciaran McGhie ec12811f72 fix(ui-toolkit): visual fixes for healthbar - % and text colours (#4156) 2023-06-21 11:13:19 -07:00
Ciaran McGhie 180de8cf25 fix(ui-toolkit): healthbar fee decimals (#4152) 2023-06-21 14:51:17 +01:00
m.ray df88e77cdf fix(trading): liquidity provision table quantum formatting (#4114) 2023-06-21 11:23:07 +00:00
Mikołaj Młodzikowski 9441aee8cf feat(ci): update process tested on fairground 2023-06-21 13:05:42 +02:00
Bartłomiej Głownia 2353812834 fix(fills): fix mapping fill update (#4144) 2023-06-21 10:09:08 +01:00
Mikołaj Młodzikowski bba2b3c177 feat(ci): deploy fairground through interstitial page (#4151) 2023-06-21 11:00:27 +02:00
Joe Tsang ae57bd92f4 chore(governance): add e2e test for voting with different pub keys (#4147) 2023-06-21 09:42:36 +01:00
daro-maj 115b642140 test(trading): cover post and reduce only ACs (#4149) 2023-06-21 10:05:31 +02:00
Sam Keen ce3da97a8a fix(governance): proposal deadline validation missing (#4150) 2023-06-20 23:55:45 +01:00
Sam Keen cabd99d3ef feat(governance): new market details improvements (#4106) 2023-06-20 23:53:53 +01:00
Bartłomiej Głownia 597e07608f feat(positions): add liquidation to positions view (#4115) 2023-06-20 21:49:52 +00:00
Matthew Russell e451dc54b3 chore(trading): disable flakey network switcher test 2023-06-20 13:51:14 -07:00
Matthew Russell 9703c3b7a6 fix(trading): deposit table loading state (#4143) 2023-06-20 13:50:10 -07:00
Mikołaj Młodzikowski c22b6f3ce9 feat(ci): add missing fairground record to switch 2023-06-20 17:33:39 +02:00
Bartłomiej Głownia c740c11eaa feat(deal-ticket): improve no collateral validation (#4122) 2023-06-20 08:31:52 -07:00
Mikołaj Młodzikowski d1fabb31a3 feat(ci): fix deployments to testnet 2023-06-20 16:32:27 +02:00
Mikołaj Młodzikowski 94f045a60b fix(ci): port changes for release process fixes for console on frontend 2023-06-20 16:17:13 +02:00
Mikołaj Młodzikowski 1af375bab8 feat(ci): setup fleek deployments for testnet for console (#4138) 2023-06-20 14:49:39 +02:00
Sam Keen 5a48ba4a33 fix(governance): ensure cached finalized vote is only used when pubkey is c… (#4040) 2023-06-19 17:07:30 +00:00
Radosław Szpiech d1fd9184ce test(trading): #3508 tests for Trades ACs (#4139) 2023-06-19 17:07:27 +02:00
Joe Tsang 8f29824f9e chore(governance): update staking acs (#4123) 2023-06-16 16:45:19 +00:00
Joe Tsang fc3c73ad24 chore(governance): un-skip staking test and increase test coverage for smoke tests (#4112) 2023-06-16 14:42:38 +01:00
Bartłomiej Głownia 1027827576 feat(trading): show margin level visualisation in asset breakdown modal (#4048) 2023-06-16 12:28:59 +02:00
Sam Keen 0089920d4c fix(governance): earned by me reward percentage (#4093) 2023-06-16 10:04:03 +01:00
Matthew Russell 35896a9cf5 chore(trading): clear apollo warnings (#4120) 2023-06-16 09:50:22 +01:00
Edd 5a90ebe12e feat(explorer): transaction list filtering 2023-06-15 17:10:17 +01:00
Mikołaj Młodzikowski 6be117086a feat(ci): align releases for all apps (#4111) 2023-06-15 09:03:59 -07:00
daro-maj 9c6dd9f254 test(trading): markets selector ACs update (#4107) 2023-06-15 12:52:18 +02:00
Mikołaj Młodzikowski a675576a52 feat(ci): turn off nx cloud (#4078) 2023-06-15 11:32:04 +01:00
Matthew RussellandBartłomiej Głownia 98d248e02e feat(accounts): accounts table quantum formatting (#4076)
Co-authored-by: Bartłomiej Głownia <bglownia@gmail.com>
2023-06-15 11:31:43 +01:00
Joe Tsang c8d55c6293 chore(governance): fix for withdrawal tests (#4047) 2023-06-15 09:15:52 +01:00
Sam Keen 3467feb3e5 feat(governance): add 'all proposals' link on proposal details page (#4074) 2023-06-14 15:35:12 +01:00
daro-maj bdf1663709 test(trading): update e2e tests for acs - closed all and proposed markets (#4094) 2023-06-14 16:00:04 +02:00
daro-majandBartłomiej Głownia d775573543 test(trading): add e2e tests for liquidity 5002-LIQP (#4082)
Co-authored-by: Bartłomiej Głownia <bglownia@gmail.com>
2023-06-14 14:55:32 +02:00
Mikołaj Młodzikowski c0fdc8d570 feat(ci): add deploy & build info to ui-toolkit README 2023-06-14 13:35:50 +02:00
Mikołaj Młodzikowski a9ebb36b9b feat(ci): deploy ui-toolkit to s3 (#4089) 2023-06-14 10:37:41 +00:00
Radosław Szpiech f6c0082f2d test(trading): #3506 orderbook AC coverage (#4088) 2023-06-14 12:32:33 +02:00
m.ray 931ad75cc9 fix(trading): oracle markets matching (#4080) 2023-06-14 11:06:35 +02:00
m.ray f25a58a3c3 fix(liquidity): update liquidity table row id (#4081) 2023-06-13 14:24:29 -07:00
Mikołaj Młodzikowski 37340b4dc3 feat(ci): modify static content to trigger push 2023-06-13 13:43:54 +02:00
Mikołaj Młodzikowski 17ba3eb351 feat(ci): setup static on s3 (#4075) 2023-06-13 11:29:05 +00:00
Matthew Russell 8f966a4ba6 chore: remove copied dir 2023-06-12 12:38:55 -07:00
Sam Keen cc7f403718 feat(governance): hide proposal details for freeform proposals (#4073) 2023-06-12 12:31:03 +01:00
MaciekandMatthew Russell 9184c2374c fix(markets): back with updating by grid api (#4059)
Co-authored-by: Matthew Russell <mattrussell36@gmail.com>
2023-06-10 07:49:10 -07:00
MaciekandMatthew Russell 37247a504a fix(trading): update click area in network switcher (#4057)
Co-authored-by: Matthew Russell <mattrussell36@gmail.com>
2023-06-10 07:48:48 -07:00
Bartłomiej Głownia 2e7a6a6458 chore(trading): cleanup paginated data solution, improve performance (#4036) 2023-06-09 19:02:23 -07:00
Ben bf6c13f523 test(trading): 3502-POSI-e2e-tests (#4064) 2023-06-09 17:37:50 -07:00
Matthew Russell a6f3a08d2f chore(trading,governance,explorer): release v0.20.18-core-0.71.8 2023-06-09 15:50:54 -07:00
Matthew Russell f13e456a29 ci(trading,governance,explorer): remove affected project text manipulation 2023-06-09 10:56:42 -07:00
Sam Keen 5cab040189 fix(governance): temporarily skipped flaky staking tests (#4068) 2023-06-09 16:13:44 +01:00
Maciek e47b868c53 fix(withdraws): clear eth network errors (#4044) 2023-06-09 08:58:16 +02:00
Matthew Russell b6286cd0f3 fix(deal-ticket): make ticket submit button always enabled (#4055) 2023-06-08 22:30:25 -07:00
Matthew Russell f66e976b66 revert: "chore(trading): release v0.20.18-core-0.71.8" 2023-06-08 19:41:24 -07:00
Matthew Russell 866e7232db chore(trading): release v0.20.18-core-0.71.8 2023-06-08 18:22:36 -07:00
Matthew Russellandmaciek 5a8ff90890 fix(ui-toolkit): display of loader in large variant (#4056)
Co-authored-by: maciek <maciek@vegaprotocol.io>
2023-06-08 09:16:51 -07:00
Radosław Szpiech 7b8f654906 test(trading): #3505 add test coverage to 6002-MDET-market-details (#4060) 2023-06-08 15:47:23 +02:00
Ciaran McGhie d6f39049bd chore(ui-toolkit,react-helpers,utils): publish new versions of ui-toolkit, react-helpers and utils (#4049) 2023-06-07 15:58:20 -07:00
Maciek 1d06be8f4e fix: wrong css class (#4053) 2023-06-07 20:44:28 +00:00
Edd 5eba8fe28f fix(explorer): fix broken protocol upgrade tx link (#4029) 2023-06-07 14:47:55 +01:00
m.ray 2ba0e9a1b2 chore(trading): add quantum formatting to deal ticket (#4030) 2023-06-07 11:49:50 +01:00
43d3754c64 feat(trading): 3945 orderbook enhancements (#4016)
Co-authored-by: Bartłomiej Głownia <bglownia@gmail.com>
Co-authored-by: Matthew Russell <mattrussell36@gmail.com>
2023-06-07 10:58:34 +02:00
m.ray aae5c44fa4 fix(trading): market selector volume update (#3989) 2023-06-06 18:45:52 -07:00
Art 878bed9c7a fix(withdraws): minimal withdrawal amount validation (#3993) 2023-06-06 22:21:48 +01:00
Sam Keen 6f9f432c90 feat(governance): multisig warning (#3994) 2023-06-06 22:21:31 +01:00
Sam Keen 3f01b93159 feat(governance,proposals,web3): remove use of word "we" in copy (#4034) 2023-06-06 22:21:17 +01:00
Edd 473c244d7b chore(governance,liquidity-provision-dashboard,trading): remove broken urls (#4042) 2023-06-06 22:19:42 +01:00
Joe Tsang d6a32f5090 chore(governance): fix flaky test failures (#4043) 2023-06-06 22:19:23 +01:00
Mikołaj Młodzikowski 71540a90fb fix(ci): resolving bucket name 2023-06-06 17:02:24 +02:00
Mikołaj Młodzikowski cefdbe6a3c fix(ci): missing space on resolving projects 2023-06-06 16:46:58 +02:00
Mikołaj Młodzikowski 3928dd5c0e fix(ci): way of resolving affected 2023-06-06 15:37:06 +02:00
Ciaran McGhie 1521bab4c4 chore(react-helpers,utils,logger): create logger lib and move sentry/logger utils there (#3990) 2023-06-06 14:10:03 +01:00
Mikołaj Młodzikowski b3036d520f fix(ci): way of resolving affected 2023-06-06 15:03:18 +02:00
Mikołaj Młodzikowski 429a5a23d3 fix(ci): way of resolving affected 2023-06-06 14:48:49 +02:00
Mikołaj Młodzikowski 5b02fd5d54 fix(ci): way of resolving affected 2023-06-06 14:39:28 +02:00
Mikołaj Młodzikowski b8309a76e7 fix(ci): way of resolving affected 2023-06-06 14:29:46 +02:00
Mikołaj Młodzikowski e8ae085c06 fix(ci): typo in app name 2023-06-06 14:18:47 +02:00
Mikołaj Młodzikowski fdcd24847c fix(ci): syntax for publishing dist 2023-06-06 14:07:56 +02:00
Mikołaj Młodzikowski e054db39b5 feat(ci): add deploys for multisig-signer (#4039) 2023-06-06 13:47:42 +02:00
Joe Tsang a01e48d508 chore(governance): nightly e2e test fixes (#4038) 2023-06-06 12:12:59 +01:00
Matthew Russell 0d96c487d9 fix(trading): use ag grid to handle error,loading and no data message (#4012) 2023-06-06 00:08:19 -07:00
m.rayandMatthew Russell 011e4e4cec fix(trading): market info refactor (#3985)
Co-authored-by: Matthew Russell <mattrussell36@gmail.com>
2023-06-05 19:00:29 -07:00
Bartłomiej Głownia d6e2432955 fix(accounts): avoid last row re-rendering (#3950) 2023-06-05 12:40:34 +02:00
Ben 18c034b910 test(trading): 6501-ASSE-assets e2e tests (#4026) 2023-06-05 09:13:24 +01:00
daro-maj 849cbb43c4 test(trading): 6001-MARK-find_markets e2e tests (#4025) 2023-06-05 08:25:31 +01:00
Edd cd34cb181f feat(explorer): properly represent batch error 71 (#4019) 2023-06-02 14:43:33 +01:00
Edd 97b3f4decf feat(explorer): do not colourise votes in tx list (#3988) 2023-06-01 12:35:33 +01:00
Ben 0465fb8ca9 test(trading): key to key transfer tests (#4014) 2023-06-01 11:37:41 +01:00
daro-maj 22af89e78c test(trading): reverted node tests (#3992) 2023-06-01 08:32:31 +01:00
Matthew Russell adfd2f41b6 chore(trading,governance,explorer): release v0.20.16-core-0.71.5 2023-05-31 15:00:17 -07:00
Matthew Russell d9b1aa6da3 chore(governance): revert governance ethereum endpoint to infura (#4010) 2023-05-31 14:58:45 -07:00
daro-majandasiaznik 205f369cdc test(trading): add network param mocks (#4001)
Co-authored-by: asiaznik <artur@vegaprotocol.io>
2023-05-31 17:11:02 +01:00
Joe Tsang 9f63fde123 chore(governance): 3929 proposal acs (#4008) 2023-05-31 17:10:41 +01:00
Matthew RussellandBartłomiej Głownia f2c70e6da4 fix(trading): performance issues with many orders (#3944)
Co-authored-by: Bartłomiej Głownia <bglownia@gmail.com>
2023-05-31 17:38:49 +02:00
Edd e8ff1b0b60 fix(explorer,trading): typo in release notes template (#3976) 2023-05-30 22:47:19 -07:00
Matthew Russell f5989b0022 chore(trading,explorer,governance): release v0.20.15-core0.71.5 2023-05-30 14:54:08 -07:00
Matthew Russell 653ca034f2 fix(governance): dont start listening for pending eth events until connected (#3996) 2023-05-30 13:48:01 -07:00
Edd ef25552311 fix(explorer): fix stagnet1 env (#3975) 2023-05-29 17:31:39 +01:00
daro-maj 0a8439d125 test(trading): withdrawal details for extra security e2e tests (#3977) 2023-05-29 17:31:15 +01:00
Maciek 702ea0c6b4 chore(markets): keep market list live updated (#3954) 2023-05-29 07:39:42 +00:00
m.ray 0f2b86770a fix(trading): show full node URI in trading footer (#3978) 2023-05-26 16:38:02 +00:00
m.ray cd6d350047 chore(trading): update vega.trading to console.vega.xyz (#3969) 2023-05-26 12:08:26 +01:00
Matthew Russell c5a06c57ac chore(trading,governance,explorer): update issue templates to include check in specs repo (#3964) 2023-05-25 22:37:40 -07:00
Matthew Russell 5bb31fa38d chore(trading,governance,explorer): bump to v0.20.14-core-0.71.4 2023-05-25 16:31:35 -07:00
m.ray fd8f38803c chore(trading): bump version v0.20.13-core-0.71.4 (#3968) 2023-05-25 22:01:43 +00:00
Edd a22f8f0ef1 fix(explorer,trading): remove vega.trading links (#3962) 2023-05-25 21:27:51 +00:00
Matthew Russell c2d5c71f35 chore(trading): remove stray log (#3967) 2023-05-25 11:32:31 -07:00
Joe Tsang f88c35648e chore(governance): reward tests passing (#3963) 2023-05-25 18:08:06 +00:00
Mikołaj Młodzikowski 348c61530e feat(ci): implement active checks for previews readiness (#3949) 2023-05-25 14:36:38 +02:00
Bartłomiej Głownia f364dabe2f feat(trading): show positions for all connected keys (#3858) 2023-05-25 11:59:08 +01:00
m.rayandasiaznik 1ae1fdff5e fix(trading): price and volume in the last 24h can be incorrectly reported (#3870)
Co-authored-by: asiaznik <artur@vegaprotocol.io>
2023-05-25 10:39:07 +00:00
m.ray 3ed615c36e fix(oracles): word breakdown oracles (#3946) 2023-05-25 10:07:17 +00:00
Bartłomiej Głownia 6b50816234 fix(orders): re-render last column of orders table on data change (#3927) 2023-05-25 10:37:53 +01:00
Sam Keen f5e67a0c2d fix(governance): rewards decimals set per asset (#3941) 2023-05-25 10:37:40 +01:00
Bartłomiej Głownia e4d4646878 fix(trading): skip market data query if market not present (#3928) 2023-05-25 10:37:33 +01:00
Art bbd1536c18 chore(trading): upgrade banner semver comparison (#3919) 2023-05-25 10:37:13 +01:00
Mikołaj Młodzikowski f8444c0c88 feat(ci): deploy from main branch as well 2023-05-25 10:20:58 +02:00
Mikołaj Młodzikowski b1adf776c0 feat(ci): update rollback flow 2023-05-24 16:05:15 +02:00
Mikołaj Młodzikowski ad898ab0e8 feat(ci): update rollback flow 2023-05-24 15:58:53 +02:00
Maciek 5b0fffc5cb chore(market-depth): replace bid and ask columns with a single volume column when i… (#3930) 2023-05-24 15:55:21 +02:00
Mikołaj Młodzikowski a9dbc0f6eb feat(ci): update rollback flow 2023-05-24 15:53:07 +02:00
Mikołaj Młodzikowski a71786817f fix(ci): pr creation adjust 2023-05-24 13:47:36 +02:00
Vega CI Botandvega-ci-bot 9ee0cb7b65 Automated hash update from refs/tags/v0.20.12-core-0.71.4-4 (#3933)
Co-authored-by: vega-ci-bot <vega-ci-bot@vega.xyz>
2023-05-24 13:46:01 +02:00
Mikołaj Młodzikowski 8c4aa41240 fix(ci): pr creation adjust 2023-05-24 13:37:04 +02:00
Vega CI Botandvega-ci-bot 91ac977704 Automated hash update from refs/tags/v0.20.12-core-0.71.4-3 (#3932)
Co-authored-by: vega-ci-bot <vega-ci-bot@vega.xyz>
2023-05-24 13:34:10 +02:00
Mikołaj Młodzikowski 1190033776 fix(ci): pr creation adjust 2023-05-24 13:24:28 +02:00
Mikołaj Młodzikowski b99e2235b4 fix(ci): pr creation adjust 2023-05-24 13:09:29 +02:00
Mikołaj Młodzikowski 002bc4f188 feat: regenerate hashes on interstitial page (#3926) 2023-05-24 12:36:11 +02:00
Joe Tsang 0c2af8c75f chore(governance): update nightly tests (#3913) 2023-05-24 09:23:31 +01:00
daro-maj a305c5b8a9 test(trading): capsule tests - fix for wallet connection (#3885) 2023-05-23 20:02:29 +02:00
Matthew Russell 4c3ceb94f3 chore: bump app version 2023-05-23 09:58:39 -07:00
Art 2215864d0c fix(withdraws): min withdraw amount (#3916) 2023-05-23 09:52:48 -07:00
Art 589785ce09 fix(withdraws): link to the withdrawal limits (#3914) 2023-05-23 16:39:29 +00:00
Maciek babd99088d fix(trading): make grids more responsive - suppress sizeColumnsToFit on small screens (#3906) 2023-05-23 16:08:55 +00:00
Bartłomiej Głownia d155909fe4 fix(deal-ticket): clear price error on type change (#3908) 2023-05-23 08:53:40 -07:00
Sam Keen 1d3298cdc9 fix(governance): add enactment date to proposal sorting (#3875) 2023-05-23 16:53:01 +01:00
m.ray c2baaa2dd9 fix(trading): console.fairground.wtf links update back (#3907) 2023-05-23 15:49:14 +00:00
Art e2c4c4a841 fix(deposits): validation with exempt (#3909) 2023-05-23 08:44:06 -07:00
Art 7a89dc984d feat(deposits): mark remaining deposit allowance as exempt (#3902) 2023-05-23 15:35:02 +01:00
Mikołaj Młodzikowski 19580fb9ce fix(ci): work around syntax issue on updating release notes 2023-05-23 13:43:32 +02:00
m.rayandEdd 0721099d7d chore(trading): console fairground links (#3896)
Co-authored-by: Edd <edd@vega.xyz>
2023-05-23 11:06:57 +00:00
m.rayandEdd 9ee2810c51 chore(trading): adding mainnet links (#3879)
Co-authored-by: Edd <edd@vega.xyz>
2023-05-23 10:29:09 +00:00
Edd 9f8f99b50b fix(explorer): wrap routes in suspense (#3894) 2023-05-23 11:15:13 +01:00
m.ray 3208f762fd fix(trading): hide download or export all when no entries (#3892) 2023-05-23 09:26:47 +00:00
Mikołaj Młodzikowski 7a06c946d1 feat(ci): support fairground / mainnet variables for s3 and do not deploy trading to s3 bucket on main branch 2023-05-23 11:20:54 +02:00
Maciek 70e172045d fix(trading): improve data count on propsed markets (#3890) 2023-05-23 08:53:15 +00:00
Mikołaj Młodzikowski 06c540666e feat(ci): setup correct domain for fairground deployments 2023-05-23 10:30:35 +02:00
Matthew Russell f81503b8f7 chore: bump app version for trading 2023-05-22 22:20:30 -07:00
Matthew Russell 1699e33cbd fix(trading): redirect to markets all page if no market found (#3888) 2023-05-22 22:02:55 -07:00
Matthew Russell 5280b79927 feat(trading): market selection changes (#3863) 2023-05-22 21:33:16 -07:00
Matthew Russell 34526d527e fix(trading): icon color when navbar is dark (#3887) 2023-05-22 19:07:18 -07:00
Matthew Russell 7b9aae700d chore(trading): dont show upgrade banner unless APP_VERSION is set (#3886) 2023-05-22 14:10:06 -07:00
Matthew Russell e9cb2ad217 chore(ui-toolkit): adjust nav styles and banner (#3865) 2023-05-22 13:20:17 -07:00
Edd 6dd4536fdd fix(explorer): change how internal filters are detected (#3852) 2023-05-22 21:08:57 +01:00
Bartłomiej Głownia 522eb521b9 feat(trading): show positions for all markets (#3868) 2023-05-22 12:55:15 -07:00
Edd 3aa0e974c2 feat(explorer): footer updates (#3884) 2023-05-22 12:54:37 -07:00
Art a0eb381ab1 feat(trading): upgrade banner (#3883) 2023-05-22 12:53:40 -07:00
Matthew Russell a51ab4d98d chore(governance): remove process tranches script (#3864) 2023-05-22 12:52:13 -07:00
Bartłomiej Głownia 67643afd74 fix(trading): positions and markets settlement asset column filter and sort (#3873) 2023-05-22 12:34:05 -07:00
dexturr 145539e0c0 chore: update tranches
Signed-off-by: github-actions[bot] <41898282+github-actions[bot]@users.noreply.github.com>
2023-05-22 18:07:30 +00:00
Art 48109b584c fix(ui-toolkit): test toast configuration (#3877) 2023-05-22 18:34:02 +02:00
Maciek a4512e6064 feat(trading): move trade grid panel - add back priority for chart pane (#3880) 2023-05-22 15:55:02 +00:00
m.rayandEdd 45adac2932 chore(trading): update environments. add vega.trading to network switcher (#3869)
Co-authored-by: Edd <edd@vega.xyz>
2023-05-22 15:50:13 +00:00
Maciek fff8fdd78b feat(trading): move trade grid panel - fix id of store (#3872) 2023-05-22 14:09:37 +00:00
m.rayandmaciek 079d8bc48d feat(trading): move deal ticket panel to the left (#3842)
Co-authored-by: maciek <maciek@vegaprotocol.io>
2023-05-22 15:40:42 +02:00
Eddandm.ray 9658363b56 chore(explorer): update be env for validator testnet (#3867)
Co-authored-by: m.ray <16125548+MadalinaRaicu@users.noreply.github.com>
2023-05-22 13:38:51 +00:00
dexturr e24289330e chore: update tranches
Signed-off-by: github-actions[bot] <41898282+github-actions[bot]@users.noreply.github.com>
2023-05-22 12:08:25 +00:00
Mikołaj Młodzikowski 0fbd2bfa72 feat(ci): adjust environment name 2023-05-22 11:42:09 +02:00
Mikołaj MłodzikowskiandMikołaj Młodzikowski 43ef4fad6f feat(ci): fix affected resolution (#3849)
Co-authored-by: Mikołaj Młodzikowski <mikolaj.mlodzikowski@github.com>
2023-05-22 11:16:33 +02:00
Matthew Russell 828dcf6e93 chore(governance,explorer,trading): move sentry dsn to env files (#3860) 2023-05-22 08:54:15 +02:00
dexturr 4a583ccf09 chore: update tranches
Signed-off-by: github-actions[bot] <41898282+github-actions[bot]@users.noreply.github.com>
2023-05-22 06:07:44 +00:00
dexturr 8bcad28f50 chore: update tranches
Signed-off-by: github-actions[bot] <41898282+github-actions[bot]@users.noreply.github.com>
2023-05-22 00:16:28 +00:00
dexturr b375681076 chore: update tranches
Signed-off-by: github-actions[bot] <41898282+github-actions[bot]@users.noreply.github.com>
2023-05-21 18:07:08 +00:00
dexturr 8a2db407cf chore: update tranches
Signed-off-by: github-actions[bot] <41898282+github-actions[bot]@users.noreply.github.com>
2023-05-21 12:10:41 +00:00
dexturr 491844d3fd chore: update tranches
Signed-off-by: github-actions[bot] <41898282+github-actions[bot]@users.noreply.github.com>
2023-05-21 06:09:53 +00:00
dexturr f1f51c5ecd chore: update tranches
Signed-off-by: github-actions[bot] <41898282+github-actions[bot]@users.noreply.github.com>
2023-05-21 00:15:03 +00:00
dexturr 9bc78f8ccd chore: update tranches
Signed-off-by: github-actions[bot] <41898282+github-actions[bot]@users.noreply.github.com>
2023-05-20 18:06:53 +00:00
dexturr a03031a283 chore: update tranches
Signed-off-by: github-actions[bot] <41898282+github-actions[bot]@users.noreply.github.com>
2023-05-20 12:10:14 +00:00
Matthew Russell b499c293e3 fix(trading): fix proposals not showing (#3859) 2023-05-20 10:55:52 +01:00
dexturr 65747e8d26 chore: update tranches
Signed-off-by: github-actions[bot] <41898282+github-actions[bot]@users.noreply.github.com>
2023-05-20 06:09:41 +00:00
dexturr 9a84eda21b chore: update tranches
Signed-off-by: github-actions[bot] <41898282+github-actions[bot]@users.noreply.github.com>
2023-05-20 00:14:21 +00:00
Maciek fba98f2fd0 feat(trading,governance): improve flow of risk disclaimer presentation (#3772) 2023-05-19 21:27:45 +00:00
Matthew Russell 3e32d0f396 chore(governance,trading): update mainnet envs with new ethereum provider url (#3857) 2023-05-19 13:31:49 -07:00
Matthew Russell b75d189054 fix(trading): settlement price of closed markets (#3831) 2023-05-19 13:29:24 -07:00
Sam Keen afa627864c fix(governance): homepage proposals ordering fixed (#3856) 2023-05-19 18:12:14 +00:00
dexturr b13a866b2a chore: update tranches
Signed-off-by: github-actions[bot] <41898282+github-actions[bot]@users.noreply.github.com>
2023-05-19 18:07:12 +00:00
daro-maj c65f07eee6 test(trading): skip failing node tests (#3854) 2023-05-19 19:54:56 +02:00
Sam Keen 5bd18cc127 feat(governance): avoid showing untitled proposals (#3851) 2023-05-19 16:19:28 +01:00
Art ff3519279d fix(governance): penalties calculation (#3850) 2023-05-19 16:19:07 +01:00
m.ray fd338c7400 fix(orders): cancel all and pegged orders amendable (#3843) 2023-05-19 14:55:08 +00:00
Sam Keen 0db5d0ce87 feat(governance): hide proposal details on market proposals (#3845) 2023-05-19 13:47:48 +00:00
Matthew Russell 42c316c8e1 feat(environment): avoid logging node check queries (#3830) 2023-05-19 14:32:27 +01:00
Sam Keen 9e2474d39a feat(governance): proposals-sort-order (#3848) 2023-05-19 14:30:08 +01:00
Joe Tsang 2533e5ec44 test(governance): 3790 proposal tests refactor (#3838) 2023-05-19 14:29:20 +01:00
dexturr 22a43249ea chore: update tranches
Signed-off-by: github-actions[bot] <41898282+github-actions[bot]@users.noreply.github.com>
2023-05-19 12:08:42 +00:00
m.ray b40ee0caf5 fix(markets): remove queries for internal data sources (#3829) 2023-05-19 12:53:00 +01:00
Edd 95aca70434 fix(explorer): prevent render of signature component on some proposals (#3840) 2023-05-19 12:09:48 +01:00
Sam Keen 5e13266250 feat(governance): change url of upgrade proposals (#3841) 2023-05-19 12:09:40 +01:00
Edd 5c0588887c fix(explorer): fix footer links (#3825) 2023-05-19 10:37:59 +01:00
daro-maj 089a7daac7 test(trading): e2e test for select network and nodes - 0006-NETW (#3828) 2023-05-19 10:37:44 +01:00
Mikołaj Młodzikowski 02b6251b1a feat(ci): support mainnet branching strategy (#3832) 2023-05-19 10:38:36 +02:00
Bartłomiej Głownia 9ce8907861 feat(trading): do not show oracle banner when data is loading (#3821) 2023-05-19 10:01:22 +02:00
dexturr 3be9126906 chore: update tranches
Signed-off-by: github-actions[bot] <41898282+github-actions[bot]@users.noreply.github.com>
2023-05-19 06:10:00 +00:00
dexturr 77316092d1 chore: update tranches
Signed-off-by: github-actions[bot] <41898282+github-actions[bot]@users.noreply.github.com>
2023-05-19 00:15:57 +00:00
Dexter Edwards fca229e62a feat(governance): use rest to expose proposal data (#3827) 2023-05-18 22:43:32 +01:00
dexturr 162b167860 chore: update tranches
Signed-off-by: github-actions[bot] <41898282+github-actions[bot]@users.noreply.github.com>
2023-05-18 18:07:36 +00:00
Art a4149cc55e feat(web3): withdrawal details (#3701) 2023-05-18 16:50:15 +02:00
Mikołaj Młodzikowski 4161a74eaf feat(ci): fix release body (#3822) 2023-05-18 14:59:46 +01:00
Mikołaj Młodzikowski 5008e57a56 feat(ci): adjust variables during release pipeline to cover actual tag_name 2023-05-18 15:12:12 +02:00
Mikołaj Młodzikowski 89031bf826 feat(ci): append ipfs related information to release body (#3818) 2023-05-18 14:51:53 +02:00
dexturr 61501d4d14 chore: update tranches
Signed-off-by: github-actions[bot] <41898282+github-actions[bot]@users.noreply.github.com>
2023-05-18 12:10:20 +00:00
Madalina Raicu f8f3ce7df9 fix: no oracle for this market banner 2023-05-18 13:00:17 +01:00
Maciek f7aab5a78a feat(ui-toolkit,trading): allow toast box configuration (#3811) 2023-05-18 12:53:36 +01:00
Bartłomiej Głownia 2904975fd3 feat(trading): highlight negative oracle statuses in market lists (#3816) 2023-05-18 13:22:54 +02:00
Mikołaj Młodzikowski 4f55c946f0 feat(ci): add pipeline for rollback console deployments (#3817) 2023-05-18 10:11:41 +00:00
Matthew Russell de637fee13 chore(trading): show markets in opening auction in market selector (#3814) 2023-05-18 09:49:44 +01:00
dexturr 69c6db8ec2 chore: update tranches
Signed-off-by: github-actions[bot] <41898282+github-actions[bot]@users.noreply.github.com>
2023-05-18 06:09:07 +00:00
Matthew Russell 8dc465c1d1 feat(trading): additional row actions for tables (#3600) 2023-05-17 21:05:53 -07:00
dexturr 0be934edca chore: update tranches
Signed-off-by: github-actions[bot] <41898282+github-actions[bot]@users.noreply.github.com>
2023-05-18 00:16:39 +00:00
Matthew Russell 653688c1dd fix(governance): clear wallet state if user changes to a non existent party (#3813) 2023-05-17 19:25:14 +00:00
dexturr 34400be18a chore: update tranches
Signed-off-by: github-actions[bot] <41898282+github-actions[bot]@users.noreply.github.com>
2023-05-17 18:09:58 +00:00
Sam Keen d4a0a4a42c fix(governance): updated page titles (#3810) 2023-05-17 16:16:19 +00:00
Joe Tsang fabf643ce7 chore(ci): fix nightly test runner (#3804) 2023-05-17 16:21:10 +01:00
Sam Keen 45e210092c fix(governance): ensure no negative overstaked penalty (#3794) 2023-05-17 14:41:55 +00:00
Ciaran McGhie 1dc3b3fd05 fix(ui-toolkit): add keys to healthbar segments (#3797) 2023-05-17 15:14:11 +01:00
Sam Keen 0a80e3e39d fix(governance): avoid unknown pubkey causing validator page error (#3755) 2023-05-17 13:21:00 +00:00
Sam Keen 7b8d9dc94b feat(governance): validator tables refocused on stake (#3780) 2023-05-17 14:14:23 +01:00
Daniel c0320c2468 feat(ci): update DNS for mainnet console when new version is released (#3783) 2023-05-17 14:45:06 +02:00
Sam Keen 11173d6614 fix(governance): point to correct data for displayed LP rewards (#3800) 2023-05-17 12:20:51 +00:00
dexturr e3324331e2 chore: update tranches
Signed-off-by: github-actions[bot] <41898282+github-actions[bot]@users.noreply.github.com>
2023-05-17 12:11:33 +00:00
Maciek 0a6e3cb6f5 chore(trading): refactor docs links resolver (#3782) 2023-05-17 12:10:31 +02:00
Sam Keen 68ede90609 feat(3779): proposal terms in table, full proposal json, description … (#3793) 2023-05-17 08:23:25 +00:00
daro-maj 09778a5d3f test(trading): pegged orders e2e tests (#3787) 2023-05-17 09:54:19 +02:00
MaciekandMatthew Russell 59993e3ea6 chore(trading): suppress sentry logs when eth fails (#3726)
Co-authored-by: Matthew Russell <mattrussell36@gmail.com>
2023-05-16 23:31:53 -07:00
dexturr 54161a6dba chore: update tranches
Signed-off-by: github-actions[bot] <41898282+github-actions[bot]@users.noreply.github.com>
2023-05-17 06:07:24 +00:00
Matthew Russell 26f524ea07 feat(trading): sidebar market list adjustments (#3792) 2023-05-16 18:45:17 -07:00
dexturr db13e6f21d chore: update tranches
Signed-off-by: github-actions[bot] <41898282+github-actions[bot]@users.noreply.github.com>
2023-05-17 00:17:38 +00:00
dexturr 4a679813ba chore: update tranches
Signed-off-by: github-actions[bot] <41898282+github-actions[bot]@users.noreply.github.com>
2023-05-16 18:07:35 +00:00
Matthew Russell a4279d5b5e feat(trading): sidebar market list (#3776) 2023-05-16 16:57:36 +00:00
m.ray 1a274a67c3 feat(trading): oracle banner check termination and settlement data oracles (#3707) 2023-05-16 15:12:22 +02:00
dexturr 1e9ff31fd7 chore: update tranches
Signed-off-by: github-actions[bot] <41898282+github-actions[bot]@users.noreply.github.com>
2023-05-16 12:08:54 +00:00
Sam Keen aa2b755b93 fix(governance): reward aggregation for validator types (#3773) 2023-05-16 08:40:36 +01:00
Matthew Russell 4a7296312a fix(smart-contracts,deposits): add different abi for tether (#3775) 2023-05-16 08:40:05 +01:00
dexturr 1418a2259f chore: update tranches
Signed-off-by: github-actions[bot] <41898282+github-actions[bot]@users.noreply.github.com>
2023-05-16 06:07:24 +00:00
dexturr 7e5ef0157a chore: update tranches
Signed-off-by: github-actions[bot] <41898282+github-actions[bot]@users.noreply.github.com>
2023-05-16 00:14:15 +00:00
dexturr 0cf764f11e chore: update tranches
Signed-off-by: github-actions[bot] <41898282+github-actions[bot]@users.noreply.github.com>
2023-05-15 18:09:01 +00:00
Sam Keen 1c626aeeb2 fix(governance): useWeb3ConnectStore instead of app state for eth connect d… (#3750) 2023-05-15 16:21:20 +01:00
Bartłomiej Głownia c4cec47b0b feat(trading): add oracle dialog trigger to oracle banner, display status reas… (#3727) 2023-05-15 16:20:30 +01:00
dexturr 1a67c41bb4 chore: update tranches
Signed-off-by: github-actions[bot] <41898282+github-actions[bot]@users.noreply.github.com>
2023-05-15 12:08:57 +00:00
Matthew Russell fc66240390 fix(governance): check value of telemetry local storage entry (#3762) 2023-05-15 09:48:42 +01:00
Maciek fc0da98683 fix(trading): match link as active more strictly (#3754) 2023-05-15 10:08:21 +02:00
Maciek 4d0dafb113 fix(trading): match link as active more strictly (#3754) 2023-05-15 10:08:04 +02:00
dexturr eda431be9e chore: update tranches
Signed-off-by: github-actions[bot] <41898282+github-actions[bot]@users.noreply.github.com>
2023-05-15 06:07:48 +00:00
dexturr 4ff1749e54 chore: update tranches
Signed-off-by: github-actions[bot] <41898282+github-actions[bot]@users.noreply.github.com>
2023-05-15 00:17:19 +00:00
dexturr e7a108fd7a chore: update tranches
Signed-off-by: github-actions[bot] <41898282+github-actions[bot]@users.noreply.github.com>
2023-05-14 18:07:19 +00:00
dexturr 5d3f2ea7d8 chore: update tranches
Signed-off-by: github-actions[bot] <41898282+github-actions[bot]@users.noreply.github.com>
2023-05-14 12:08:55 +00:00
dexturr 1ab27574ca chore: update tranches
Signed-off-by: github-actions[bot] <41898282+github-actions[bot]@users.noreply.github.com>
2023-05-14 06:09:03 +00:00
dexturr 0ea3c43e78 chore: update tranches
Signed-off-by: github-actions[bot] <41898282+github-actions[bot]@users.noreply.github.com>
2023-05-14 00:17:56 +00:00
dexturr 9e183568b0 chore: update tranches
Signed-off-by: github-actions[bot] <41898282+github-actions[bot]@users.noreply.github.com>
2023-05-13 18:08:39 +00:00
dexturr 69fd5b26b6 chore: update tranches
Signed-off-by: github-actions[bot] <41898282+github-actions[bot]@users.noreply.github.com>
2023-05-13 12:09:50 +00:00
dexturr 2d5b926609 chore: update tranches
Signed-off-by: github-actions[bot] <41898282+github-actions[bot]@users.noreply.github.com>
2023-05-13 06:07:23 +00:00
dexturr 98a2ba79a8 chore: update tranches
Signed-off-by: github-actions[bot] <41898282+github-actions[bot]@users.noreply.github.com>
2023-05-13 00:13:37 +00:00
dexturr 0e6e986937 chore: update tranches
Signed-off-by: github-actions[bot] <41898282+github-actions[bot]@users.noreply.github.com>
2023-05-12 18:07:19 +00:00
Mikołaj Młodzikowski 15d6ea0c05 feat(ci): push directly to main branch on vega.xyz 2023-05-12 17:40:52 +02:00
Mikołaj Młodzikowski 0358ce6293 feat(ci): try to merge to vega.xyz using standard PR 2023-05-12 17:13:33 +02:00
Mikołaj Młodzikowski 0791be4636 feat(ci): push directly to main branch on vega.xyz 2023-05-12 16:40:45 +02:00
Dexter Edwardsandsam-keen 07442848ee fix(governance): claim not encoding ascii correctly (#3747)
Co-authored-by: sam-keen <samuel.kleinmann@gmail.com>
2023-05-12 14:04:06 +00:00
Mikołaj Młodzikowski d5f0bd419e feat(ci): update vega landing page whenever new console is released (#3751) 2023-05-12 15:18:15 +02:00
Sam KeenandBartłomiej Głownia 2c7934a8c7 fix(governance): fix time delay notice for withdrawal of 0.00 assets (#3740)
Co-authored-by: Bartłomiej Głownia <bglownia@gmail.com>
2023-05-12 15:04:53 +02:00
Joe Tsang fae61c28ca chore(cypress): remove cypress project id (#3739) 2023-05-12 13:44:22 +01:00
dexturr fcd4541625 chore: update tranches
Signed-off-by: github-actions[bot] <41898282+github-actions[bot]@users.noreply.github.com>
2023-05-12 12:10:20 +00:00
Sam KeenandJoe 8e0a92fdec fix(governance): network upgrade proposal e2e test tweak (#3748)
Co-authored-by: Joe <joe@vega.xyz>
2023-05-12 09:58:10 +01:00
dexturr 6e7109ed87 chore: update tranches
Signed-off-by: github-actions[bot] <41898282+github-actions[bot]@users.noreply.github.com>
2023-05-12 06:09:45 +00:00
dexturr f2c698ce06 chore: update tranches
Signed-off-by: github-actions[bot] <41898282+github-actions[bot]@users.noreply.github.com>
2023-05-12 00:16:15 +00:00
dexturr ad9a3a3400 chore: update tranches
Signed-off-by: github-actions[bot] <41898282+github-actions[bot]@users.noreply.github.com>
2023-05-11 18:10:08 +00:00
Sam Keen efeac49d58 feat(governance): change status labels for network upgrade proposals (#3711) 2023-05-11 15:43:27 +00:00
Mikołaj Młodzikowski 2d430710ab feat(ci): use actual secret in the script 2023-05-11 17:31:12 +02:00
Mikołaj Młodzikowski bca1a98985 fix(ci): remove old dockerfile 2023-05-11 17:16:28 +02:00
Edd 8a080d3279 fix(explorer): fix bug where no votes displayed a yes icon (#3699) 2023-05-11 14:55:00 +00:00
Mikołaj Młodzikowski f121836b4e feat(ci): fleek updates (#3724) 2023-05-11 15:42:35 +02:00
Sam Keen b641c82ad8 feat(governance): voting blog link and button title (#3717) 2023-05-11 12:59:28 +00:00
Sam Keen bf73559c30 fix(governance): change proposal sort order (#3716) 2023-05-11 12:39:30 +00:00
dexturr 653cec2592 chore: update tranches
Signed-off-by: github-actions[bot] <41898282+github-actions[bot]@users.noreply.github.com>
2023-05-11 12:07:57 +00:00
m.ray 579c884a5a feat(trading): show pegged order offset and reference in the order table (#3675) 2023-05-11 12:43:20 +01:00
Bartłomiej Głownia b2279c7e47 feat(trading): hook up new EstimatePosition and EstimateFees api methods (#3634) 2023-05-11 12:58:12 +02:00
Sam Keen a8c17b6807 fix(governance): tranches data (#3708) 2023-05-11 10:22:52 +00:00
Sam Keen b4c7dc6f59 fix(governance): more thorough catch for url in error reporting (#3686) 2023-05-11 10:21:16 +00:00
daro-maj d44392bebf test(trading): show full oracle profile info in markets test (#3695) 2023-05-11 08:18:00 +02:00
dexturr bd679957e2 chore: update tranches
Signed-off-by: github-actions[bot] <41898282+github-actions[bot]@users.noreply.github.com>
2023-05-11 06:07:33 +00:00
dexturr e30d48555e chore: update tranches
Signed-off-by: github-actions[bot] <41898282+github-actions[bot]@users.noreply.github.com>
2023-05-11 00:16:19 +00:00
Sam Keen b4b2416780 fix(governance): my stake share 2 dp (#3685) 2023-05-10 16:23:37 +00:00
Maciek dc7832ac81 chore(candles-chart): fill up missing candles (#3664) 2023-05-10 15:26:27 +00:00
Joe Tsang 91207d31ee chore(governance): fix failing validator tests (#3703) 2023-05-10 15:03:47 +00:00
dexturr 58efb460a6 chore: update tranches
Signed-off-by: github-actions[bot] <41898282+github-actions[bot]@users.noreply.github.com>
2023-05-10 12:10:00 +00:00
Mikołaj Młodzikowski 044f98777b feat(ci): lint makefile 2023-05-10 13:43:33 +02:00
Mikołaj Młodzikowski 00fdc5e81a fix(ci): preparing dist bash syntax 2023-05-10 13:33:17 +02:00
Mikołaj Młodzikowski adfad3bafb feat(ci): fix typo 2023-05-10 13:21:53 +02:00
dexturr e6ae88905c chore: update tranches
Signed-off-by: github-actions[bot] <41898282+github-actions[bot]@users.noreply.github.com>
2023-05-10 06:07:15 +00:00
dexturr 3953ed9953 chore: update tranches
Signed-off-by: github-actions[bot] <41898282+github-actions[bot]@users.noreply.github.com>
2023-05-10 00:15:02 +00:00
Matthew Russell b48ab58e6a chore: add VEGA_URL for explorer mainnet 2023-05-09 14:06:10 -07:00
Matthew Russell e44cf1ff53 chore(environment,trading): fix unit tests for footer and node switcher (#3682) 2023-05-09 13:39:17 -07:00
Matthew Russell bded1d32ba feat(explorer,governance): always allow selecting a node, add node guard (#3678) 2023-05-09 12:58:09 -07:00
Edd 76ddf45f4c fix(explorer): add envs back to env (#3677) 2023-05-09 12:57:38 -07:00
Dexter Edwards 6a2c9004d8 fix(governance, console, explorer): show vega node in list, cache bust (#3676) 2023-05-09 12:57:11 -07:00
dexturr 77ee88b43e chore: update tranches
Signed-off-by: github-actions[bot] <41898282+github-actions[bot]@users.noreply.github.com>
2023-05-09 18:09:50 +00:00
Dexter e4958ce3c0 fix: do not show validators with 0 self stake in list 2023-05-09 18:25:20 +01:00
Mikołaj Młodzikowski ecedb879f8 fix(ci): define which app ipfs hash is set for 2023-05-09 18:47:50 +02:00
m.ray 89700803d6 fix(trading): fix release script for mainnet (#3669) 2023-05-09 16:30:05 +00:00
Mikołaj Młodzikowski 65c9fa5df2 feat(ci): establish build based on docker to produce ipfs-hashes (#3612) 2023-05-09 18:24:39 +02:00
ArtandMadalina Raicu 02399c40fc fix(trading): welcome dialog links (#3656)
Co-authored-by: Madalina Raicu <madalina@raygroup.uk>
2023-05-09 15:43:36 +00:00
Sam Keen 2cb3b55a3b fix(governance): total supply displayed (#3666) 2023-05-09 15:33:07 +00:00
Sam Keen 3acc0e2401 fix(governance): consensus table works without previous epoch (#3663) 2023-05-09 15:14:04 +00:00
Dexter c734556eb4 ci: force build 2023-05-09 16:09:50 +01:00
Sam KeenandJoe 792ff1fc1f feat(governance): hide make proposal journey and link to docs instead (#3658)
Co-authored-by: Joe <joe@vega.xyz>
2023-05-09 14:43:39 +00:00
Sam KeenandJoe 3740a97d7e feat(governance): token references to governance (#3657)
Co-authored-by: Joe <joe@vega.xyz>
2023-05-09 14:17:40 +00:00
Dexter 20350ae2cf ci: force build 2023-05-09 15:13:53 +01:00
Dexter Edwards 50e93dad64 chore(explorer,trading,governance): new data node & explorer service urls (#3653) 2023-05-09 14:33:33 +01:00
Sam KeenandJoe c87c4bbc91 feat(governance): opt in/out telemetry (#3638)
Co-authored-by: Joe <joe@vega.xyz>
2023-05-09 13:32:16 +01:00
m.ray 00679c75f2 fix(toasts): proposal toasts timeout (#3645) 2023-05-09 10:03:17 +00:00
Art 7fe722dad0 fix(explorer): use data provider import (#3648) 2023-05-09 09:46:24 +00:00
Maciek 0d8a74dfd0 fix(trading): wrong hover effect on datagrid (#3647) 2023-05-09 09:26:59 +00:00
1497 changed files with 58135 additions and 179561 deletions
+1
View File
@@ -0,0 +1 @@
node_modules
+13 -7
View File
@@ -1,7 +1,7 @@
{
"root": true,
"ignorePatterns": ["**/*"],
"plugins": ["@nrwl/nx", "eslint-plugin-unicorn", "jsx-a11y", "jest"],
"plugins": ["@nx", "eslint-plugin-unicorn", "jsx-a11y", "jest"],
"settings": {
"jsx-a11y": {
"components": {
@@ -18,7 +18,7 @@
"files": ["*.ts", "*.tsx", "*.js", "*.jsx"],
"extends": ["plugin:jsx-a11y/strict"],
"rules": {
"@nrwl/nx/enforce-module-boundaries": [
"@nx/enforce-module-boundaries": [
"error",
{
"enforceBuildableLibDependency": true,
@@ -51,12 +51,13 @@
"ul": ["list"],
"ol": ["list"]
}
]
],
"no-console": ["error", { "allow": ["warn", "error"] }]
}
},
{
"files": ["*.ts", "*.tsx"],
"extends": ["plugin:@nrwl/nx/typescript"],
"extends": ["plugin:@nx/typescript"],
"rules": {
"@typescript-eslint/ban-ts-comment": [
"error",
@@ -80,14 +81,19 @@
},
{
"files": ["*.spec.ts", "*.spec.tsx"],
"extends": ["plugin:@nrwl/nx/typescript", "plugin:jest/recommended"],
"extends": ["plugin:@nx/typescript", "plugin:jest/recommended"],
"rules": {
"jest/consistent-test-it": ["error", { "fn": "it" }]
"jest/consistent-test-it": [
"error",
{
"fn": "it"
}
]
}
},
{
"files": ["*.js", "*.jsx"],
"extends": ["plugin:@nrwl/nx/javascript"],
"extends": ["plugin:@nx/javascript"],
"rules": {}
}
]
+2 -3
View File
@@ -14,8 +14,7 @@ What we need to achieve and who for
## Tasks
- [ ] What do we need to do first
- [ ] and then what?
- [ ] Etc.
- [ ]
- [ ]
## Additional details / background info
+28
View File
@@ -0,0 +1,28 @@
---
name: Feature Epic
about: A template to capture and scope user requirements, high level process, and basic mockups for an upcoming feature as part of the initial core spec review process.
title: 'FEATURE EPIC: '
labels: feature-epic
---
## Core Feature
<Name>
## Tasks
- [ ] Define high level requirements
- [ ] Create basic mockups
- [ ] Update "API Requirements" in core spec
- [ ] Update "User-Interface Spec" in relevant front end repo
- [ ] Create detailed user stories using normal template
## High Level Requirements
## Basic Mockups
## Link to API Requirements in Core spec
## Link to User Interface Specs
## Linked User Stories
+7 -4
View File
@@ -22,11 +22,14 @@ So that
## Tasks
- [ ] Explore and sketch
- [ ] UX (if needed)
- [ ] Design (if needed)
- [ ] Team and stakeholder review
- [ ] Visual Design
- [ ] Team review
- [ ] Etc.
- [ ] Specs reviewed and created or adjusted
- [ ] Implementation
- [ ] Testing (unit and/or e2e)
- [ ] Code review
- [ ] QA review
## Sketch
@@ -0,0 +1,84 @@
name: After Release
on:
release:
types: [published]
jobs:
after-release:
runs-on: ubuntu-22.04
timeout-minutes: 45
steps:
- name: Checkout
uses: actions/checkout@v3
with:
fetch-depth: 0
- name: Set up Docker Buildx
uses: docker/setup-buildx-action@v2
- name: Log in to the Container registry (ghcr)
uses: docker/login-action@v2
with:
registry: ghcr.io
username: ${{ github.actor }}
password: ${{ secrets.GITHUB_TOKEN }}
- name: Log in to the Container registry (docker hub)
uses: docker/login-action@v2
with:
username: ${{ secrets.DOCKERHUB_USERNAME }}
password: ${{ secrets.DOCKERHUB_TOKEN }}
- name: Wait for publish to complete
uses: lewagon/wait-on-check-action@v1.3.1
with:
ref: ${{ github.event.release.tag_name }}
check-name: '(CD) publish dist / trading'
repo-token: ${{ secrets.GITHUB_TOKEN }}
wait-interval: 10
- name: resolve ipfs hashes for release
run: |
echo "Name: ${{ github.event.release.name }}"
echo "Description: ${{ github.event.release.body }}"
echo "Tag: ${{ github.event.release.tag_name }}"
docker run --rm vegaprotocol/trading:mainnet cat /ipfs-hash > ipfs-hash
curl -L https://dist.ipfs.tech/kubo/v0.20.0/kubo_v0.20.0_linux-amd64.tar.gz -o kubo.tgz
tar -xzf kubo.tgz
export PATH="$PATH:$PWD/kubo"
which ipfs
echo IPFS_V0=$(cat ipfs-hash) >> $GITHUB_ENV
echo IPFS_V1=$(ipfs cid format -v 1 -b base32 $(cat ipfs-hash)) >> $GITHUB_ENV
- name: Edit Release
uses: irongut/EditRelease@v1.2.0
with:
token: ${{ secrets.GITHUB_TOKEN }}
id: ${{ github.event.release.id }}
body: |
___
# Deployments
* https://explorer.vega.xyz
* https://governance.vega.xyz
# IPFS releases
The IPFS hash of this release of the Trading app is:
CIDv0: ${{ env.IPFS_V0 }}
CIDv1: ${{ env.IPFS_V1 }}
You can always access the latest IPFS release by visiting [console.vega.xyz](https://console.vega.xyz).
You can also access Trading directly from an IPFS gateway.
BEWARE: The Trading interface uses [localStorage](https://developer.mozilla.org/en-US/docs/Web/API/Window/localStorage) to remember your settings, such as which tokens you have imported. You should always use an IPFS gateway that enforces [origin separation](https://ipfs.github.io/public-gateway-checker/).
Your settings are not remembered across different URLs.
IPFS gateways:
https://${{ env.IPFS_V1 }}.ipfs.dweb.link/
https://${{ env.IPFS_V1 }}.ipfs.cf-ipfs.com/
ipfs://${{ env.IPFS_V0 }}/
+1 -1
View File
@@ -6,7 +6,7 @@ name: 'Add Issues To Project Board'
types:
- opened
env:
GH_TOKEN: ${{ secrets.GH_NEW_CARD_TO_PROJECT }}
GH_TOKEN: ${{ secrets.PROJECT_MANAGE_ACTION }}
PROJECT_ID: ${{ secrets.FRONT_END_PROJECT_ID }}
ISSUE_ID: ${{ github.event.issue.node_id }}
USER: ${{ github.actor }}
+66 -56
View File
@@ -19,6 +19,8 @@ jobs:
steps:
- name: Checkout
uses: actions/checkout@v3
with:
ref: ${{ github.event.pull_request.head.sha || github.sha }}
- name: Cache node modules
id: cache
@@ -59,6 +61,7 @@ jobs:
uses: actions/checkout@v3
with:
fetch-depth: 0
ref: ${{ github.event.pull_request.head.sha || github.sha }}
- name: Setup node
uses: actions/setup-node@v3
@@ -78,6 +81,22 @@ jobs:
with:
main-branch-name: develop
# See affected apps
- name: See affected apps
run: |
branch_slug="$(echo '${{ github.head_ref || github.ref_name }}' | sed -r s/[^a-zA-Z0-9]+/-/g | sed -r s/^-+\|-+$//g | cut -c 1-50 )"
python3 tools/ci/check-affected.py --github-ref="${{ github.ref }}" --branch-slug="$branch_slug" --event-name="${{ github.event_name }}"
- name: Verify script result
run: |
echo "Check outputs from script"
echo "projects: ${{ env.PROJECTS }}"
echo "projects-e2e: ${{ env.PROJECTS_E2E }}"
echo "preview_governance: ${{ env.PREVIEW_GOVERNANCE }}"
echo "preview_trading: ${{ env.PREVIEW_TRADING }}"
echo "preview_explorer: ${{ env.PREVIEW_EXPLORER }}"
echo "preview_tools: ${{ env.PREVIEW_TOOLS }}"
- name: Check formatting
run: yarn nx format:check
@@ -93,61 +112,27 @@ jobs:
- name: Build affected
run: yarn nx affected:build || (yarn install && yarn nx affected:build)
# See affected apps
- name: See affected apps
run: |
echo ">>>> debug"
echo "NX Version: $nx_version"
echo "NX_BASE: ${{ env.NX_BASE }}"
echo "NX_HEAD: ${{ env.NX_HEAD }}"
echo ">>>> eof debug"
affected="$(yarn nx print-affected --base=${{ env.NX_BASE }} --head=${{ env.NX_HEAD }} --select=projects)"
echo -n "Affected projects: $affected"
branch_slug="$(echo ${{ github.head_ref || github.ref_name }} | sed -r s/[^a-zA-Z0-9]+/-/g | sed -r s/^-+\|-+$//g | cut -c 1-50 )"
projects_e2e=""
preview_governance="not deployed"
preview_trading="not deployed"
preview_explorer="not deployed"
if [[ -z "$projects_e2e" ]]; then
projects_e2e+='"governance-e2e" "trading-e2e" "explorer-e2e" '
preview_governance=$(printf "https://%s.%s.vega.rocks" "governance" "$branch_slug")
preview_trading=$(printf "https://%s.%s.vega.rocks" "trading" "$branch_slug")
preview_explorer=$(printf "https://%s.%s.vega.rocks" "explorer" "$branch_slug")
else
if [[ $affected == *"governance"* ]]; then
projects_e2e+='"governance-e2e" '
preview_governance=$(printf "https://%s.%s.vega.rocks" "governance" "$branch_slug")
fi
if [[ $affected == *"trading"* ]]; then
projects_e2e+='"trading-e2e" '
preview_trading=$(printf "https://%s.%s.vega.rocks" "trading" "$branch_slug")
fi
if [[ $affected == *"explorer"* ]]; then
projects_e2e+='"explorer-e2e" '
preview_explorer=$(printf "https://%s.%s.vega.rocks" "explorer" "$branch_slug")
fi
fi
projects_e2e=${projects_e2e%?}
projects_e2e=[${projects_e2e// /,}]
echo PROJECTS_E2E=$projects_e2e >> $GITHUB_ENV
echo PROJECTS=$(echo $projects_e2e | sed 's|-e2e||g') >> $GITHUB_ENV
echo PREVIEW_GOVERNANCE=$preview_governance >> $GITHUB_ENV
echo PREVIEW_TRADING=$preview_trading >> $GITHUB_ENV
echo PREVIEW_EXPLORER=$preview_explorer >> $GITHUB_ENV
outputs:
projects: ${{ env.PROJECTS }}
projects-e2e: ${{ env.PROJECTS_E2E }}
preview_governance: ${{ env.PREVIEW_GOVERNANCE }}
preview_trading: ${{ env.PREVIEW_TRADING }}
preview_explorer: ${{ env.PREVIEW_EXPLORER }}
preview_tools: ${{ env.PREVIEW_TOOLS }}
console-e2e:
needs: lint-test-build
name: '(CI) console python'
uses: ./.github/workflows/console-test-run.yml
secrets: inherit
if: ${{ contains(fromJSON(needs.lint-test-build.outputs.projects), 'trading') && github.event_name == 'pull_request' }}
with:
github-sha: ${{ github.event.pull_request.head.sha || github.sha }}
cypress:
needs: lint-test-build
name: '(CI) cypress'
if: ${{ needs.lint-test-build.outputs.projects != '[]' }}
# if: ${{ needs.lint-test-build.outputs.projects-e2e != '[]' }}
uses: ./.github/workflows/cypress-run.yml
secrets: inherit
with:
@@ -157,7 +142,7 @@ jobs:
publish-dist:
needs: lint-test-build
name: '(CD) publish dist'
if: ${{ needs.lint-test-build.outputs.projects != '[]' }}
if: ${{ (github.event_name == 'pull_request' && github.event.pull_request.head.repo.full_name == 'vegaprotocol/frontend-monorepo') || github.event_name == 'push' }}
uses: ./.github/workflows/publish-dist.yml
secrets: inherit
with:
@@ -168,7 +153,8 @@ jobs:
needs:
- publish-dist
- lint-test-build
if: ${{ github.event_name == 'pull_request' }}
if: ${{ github.event_name == 'pull_request' && github.event.pull_request.head.repo.full_name == 'vegaprotocol/frontend-monorepo' }}
timeout-minutes: 60
name: '(CD) comment preview links'
steps:
- name: Find Comment
@@ -178,26 +164,50 @@ jobs:
issue-number: ${{ github.event.pull_request.number }}
body-includes: Previews
- name: Wait for deployments
run: |
# https://stackoverflow.com/questions/3183444/check-for-valid-link-url
regex='(https?|ftp|file)://[-[:alnum:]\+&@#/%?=~_|!:,.;]*[-[:alnum:]\+&@#/%=~_|]'
if [[ "${{ needs.lint-test-build.outputs.preview_governance }}" =~ $regex ]]; then
until curl --insecure --location --fail "${{ needs.lint-test-build.outputs.preview_governance }}"; do
echo "waiting for governance preview: ${{ needs.lint-test-build.outputs.preview_governance }}"
sleep 5
done
fi
if [[ "${{ needs.lint-test-build.outputs.preview_explorer }}" =~ $regex ]]; then
until curl --insecure --location --fail "${{ needs.lint-test-build.outputs.preview_explorer }}"; do
echo "waiting for explorer preview: ${{ needs.lint-test-build.outputs.preview_explorer }}"
sleep 5
done
fi
if [[ "${{ needs.lint-test-build.outputs.preview_trading }}" =~ $regex ]]; then
until curl --insecure --location --fail "${{ needs.lint-test-build.outputs.preview_trading }}"; do
echo "waiting for trading preview: ${{ needs.lint-test-build.outputs.preview_trading }}"
sleep 5
done
fi
if [[ "${{ needs.lint-test-build.outputs.preview_tools }}" =~ $regex ]]; then
until curl --insecure --location --fail "${{ needs.lint-test-build.outputs.preview_tools }}"; do
echo "waiting for tools preview: ${{ needs.lint-test-build.outputs.preview_tools }}"
sleep 5
done
fi
- name: Create comment
uses: peter-evans/create-or-update-comment@v3
if: ${{ steps.fc.outputs.comment-id == 0 }}
with:
issue-number: ${{ github.event.pull_request.number }}
body: |
Previews:
Previews
* governance: ${{ needs.lint-test-build.outputs.preview_governance }}
* explorer: ${{ needs.lint-test-build.outputs.preview_explorer }}
* trading: ${{ needs.lint-test-build.outputs.preview_trading }}
cypress-check:
name: '(CI) cypress - check'
runs-on: ubuntu-latest
needs: cypress
steps:
- run: echo Done!
* tools: ${{ needs.lint-test-build.outputs.preview_tools }}
# Report single result at the end, to avoid mess with required checks in PR
cypress-result:
cypress-check:
name: '(CI) cypress - check'
if: ${{ always() }}
needs: cypress
runs-on: ubuntu-22.04
+142
View File
@@ -0,0 +1,142 @@
name: (CI) Console tests
on:
workflow_call:
inputs:
github-sha:
required: true
type: string
jobs:
run-tests:
name: run-tests
runs-on: 8-cores
timeout-minutes: 20
steps:
#----------------------------------------------
# check-out frontend-monorepo
#----------------------------------------------
- name: Checkout console test repo
uses: actions/checkout@v3
with:
ref: ${{ inputs.github-sha }}
#----------------------------------------------
# cache node modules
#----------------------------------------------
- name: Cache node modules
id: cache
uses: actions/cache@v3
with:
path: node_modules
key: ${{ runner.os }}-cache-node-modules-${{ hashFiles('yarn.lock') }}
# comment out "restore-keys" if you need to rebuild yarn from 0
restore-keys: |
${{ runner.os }}-cache-node-modules-
#----------------------------------------------
# setup node
#----------------------------------------------
- name: Setup node
uses: actions/setup-node@v3
with:
node-version-file: '.nvmrc'
# https://stackoverflow.com/questions/61010294/how-to-cache-yarn-packages-in-github-actions
cache: yarn
#----------------------------------------------
# install deps if cache missing
#----------------------------------------------
- name: yarn install
if: steps.cache.outputs.cache-hit != 'true'
run: yarn install --pure-lockfile
#----------------------------------------------
# build trading
#----------------------------------------------
- name: Build affected spec
run: |
yarn env-cmd -f ./apps/trading/.env.stagnet1 yarn nx export trading
#----------------------------------------------
# run trading server
#----------------------------------------------
- name: Run trading server
run: |
docker run -d -p 80:4200 -v $PWD/docker/nginx.conf:/etc/nginx/conf.d/default.conf -v $PWD/dist/apps/trading/exported:/usr/share/nginx/html nginx:1.23-alpine@sha256:6318314189b40e73145a48060bff4783a116c34cc7241532d0d94198fb2c9629
sleep 5
docker ps
#----------------------------------------------
# check if container persists between runs
#----------------------------------------------
- name: Check server
run: |
docker ps
#----------------------------------------------
# check-out tests repo
#----------------------------------------------
- name: Checkout console test repo
uses: actions/checkout@v3
with:
repository: vegaprotocol/console-test
path: './console-test'
#----------------------------------------------
# set-up python
#----------------------------------------------
- name: Set up python
id: setup-python
uses: actions/setup-python@v4
with:
python-version: '3.10.11'
#----------------------------------------------
# ----- install & configure poetry -----
#----------------------------------------------
- name: Install Poetry
uses: snok/install-poetry@v1
with:
virtualenvs-create: true
virtualenvs-in-project: true
virtualenvs-path: console-test/.venv
#----------------------------------------------
# load cached venv if cache exists
#----------------------------------------------
- name: Load cached venv
id: cached-poetry-dependencies
uses: actions/cache@v3
with:
path: console-test/.venv
key: venv-${{ runner.os }}-${{ steps.setup-python.outputs.python-version }}-${{ hashFiles('**/poetry.lock') }}
#----------------------------------------------
# install dependencies if cache does not exist
#----------------------------------------------
- name: Install dependencies
working-directory: ./console-test
if: steps.cached-poetry-dependencies.outputs.cache-hit != 'true'
run: poetry install --no-interaction --no-root
#----------------------------------------------
# install vega binaries
#----------------------------------------------
- name: Install vega binaries
working-directory: ./console-test
run: poetry run python -m vega_sim.tools.load_binaries --force
#----------------------------------------------
# install playwright
#----------------------------------------------
- name: install playwright
run: poetry run playwright install
working-directory: ./console-test
#----------------------------------------------
# run tests
#----------------------------------------------
- name: Run tests
working-directory: ./console-test
run: poetry run pytest -s --numprocesses auto
- name: Check files
run: |
ls -al .
ls -al console-test
#----------------------------------------------
# upload traces
#----------------------------------------------
- name: Upload Playwright Trace
uses: actions/upload-artifact@v3
if: always()
with:
name: playwright-trace
path: ./traces/
retention-days: 15
-1
View File
@@ -33,5 +33,4 @@ jobs:
config: baseUrl=${{ github.event.inputs.url }}
env: grepTags=@live
env:
CYPRESS_RECORD_KEY: ${{ secrets.CYPRESS_RECORD_KEY }}
GITHUB_TOKEN: ${{ secrets.GITHUB_TOKEN }}
+4 -3
View File
@@ -20,7 +20,7 @@ jobs:
project: ${{ fromJSON(inputs.projects) }}
name: ${{ matrix.project }}
runs-on: self-hosted-runner
timeout-minutes: 40
timeout-minutes: 100
steps:
# Checks if skip cache was requested
- name: Set skip-nx-cache flag
@@ -33,6 +33,7 @@ jobs:
with:
fetch-depth: 0
path: './frontend-monorepo'
ref: ${{ github.event.pull_request.head.sha || github.sha }}
# Restore node_modules from cache if possible
- name: Restore node_modules from cache
@@ -66,7 +67,7 @@ jobs:
######
- name: Run Cypress tests
run: yarn nx run ${{ matrix.project }}:e2e ${{ env.SKIP_CACHE }} --record --key ${{ secrets.CYPRESS_RECORD_KEY }} --browser chrome --env.grepTags="${{ inputs.tags }}"
run: yarn nx run ${{ matrix.project }}:e2e ${{ env.SKIP_CACHE }} --browser chrome --env.grepTags="${{ inputs.tags }}"
working-directory: frontend-monorepo
env:
CYPRESS_SLACK_WEBHOOK: ${{ secrets.CYPRESS_SLACK_WEBHOOK }}
@@ -98,4 +99,4 @@ jobs:
if: ${{ failure() }}
with:
name: test-report-${{ matrix.project }}
path: frontend-monorepo/apps/trading-e2e/cypress/reports
path: frontend-monorepo/apps/${{ matrix.project }}/cypress/reports
+2
View File
@@ -11,6 +11,8 @@ jobs:
steps:
- name: Checkout
uses: actions/checkout@v3
with:
ref: ${{ github.event.pull_request.head.sha || github.sha }}
- name: Setup node
uses: actions/setup-node@v3
-32
View File
@@ -1,32 +0,0 @@
name: Generate tranches
on:
schedule:
- cron: '0 */6 * * *'
jobs:
master:
name: Generate Queries
runs-on: ubuntu-22.04
steps:
- name: Checkout
uses: actions/checkout@v2
with:
token: ${{ secrets.VEGA_CI_BOT_GITHUB_TOKEN }}
fetch-depth: 0
- name: Use Node.js 16
id: Node
uses: actions/setup-node@v2
with:
node-version: 16.15.1
- name: Install root dependencies
run: yarn install
- name: Generate queries
run: node ./scripts/get-tranches.js
- uses: stefanzweifel/git-auto-commit-action@v4
with:
commit_message: 'chore: update tranches'
commit_options: '--no-verify --signoff'
skip_fetch: true
skip_checkout: true
+221 -57
View File
@@ -19,6 +19,47 @@ jobs:
steps:
- name: Check out code
uses: actions/checkout@v3
with:
ref: ${{ github.event.pull_request.head.sha || github.sha }}
- name: Init variables
run: |
echo IS_PR=false >> $GITHUB_ENV
echo IS_MAINNET_RELEASE=false >> $GITHUB_ENV
echo IS_TESTNET_RELEASE=false >> $GITHUB_ENV
echo IS_IPFS_RELEASE=false >> $GITHUB_ENV
echo IS_S3_RELEASE=false >> $GITHUB_ENV
echo IS_DEV_IMAGE=false >> $GITHUB_ENV
- name: Is dev image
if: ${{ contains(github.ref, 'develop') && github.event_name == 'push' && matrix.app == 'trading' }}
run: |
echo IS_DEV_IMAGE=true >> $GITHUB_ENV
- name: Is PR
if: ${{ github.event_name == 'pull_request' }}
run: |
echo IS_PR=true >> $GITHUB_ENV
- name: Is mainnet release
if: ${{ contains(github.ref, 'release/mainnet') && !contains(github.ref, 'mirror') }}
run: |
echo IS_MAINNET_RELEASE=true >> $GITHUB_ENV
- name: Is testnet release
if: ${{ contains(github.ref, 'release/testnet') }}
run: |
echo IS_TESTNET_RELEASE=true >> $GITHUB_ENV
- name: Is IPFS Release
if: ${{ matrix.app == 'trading' && github.event_name == 'push' && ( env.IS_MAINNET_RELEASE == 'true' || env.IS_TESTNET_RELEASE == 'true' ) }}
run: |
echo IS_IPFS_RELEASE=true >> $GITHUB_ENV
- name: Is S3 Release
if: ${{ env.IS_IPFS_RELEASE == 'false' && github.event_name == 'push' }}
run: |
echo IS_S3_RELEASE=true >> $GITHUB_ENV
- name: Set up QEMU
id: quemu
@@ -30,13 +71,21 @@ jobs:
- name: Set up Docker Buildx
uses: docker/setup-buildx-action@v2
- name: Log in to the Container registry
- name: Log in to the Container registry (ghcr)
if: ${{ env.IS_PR == 'true' }}
uses: docker/login-action@v2
with:
registry: ghcr.io
username: ${{ github.actor }}
password: ${{ secrets.GITHUB_TOKEN }}
- name: Log in to the Container registry (docker hub)
uses: docker/login-action@v2
if: ${{ env.IS_IPFS_RELEASE == 'true' || env.IS_DEV_IMAGE == 'true' }}
with:
username: ${{ secrets.DOCKERHUB_USERNAME }}
password: ${{ secrets.DOCKERHUB_TOKEN }}
- name: Setup node
uses: actions/setup-node@v3
with:
@@ -51,46 +100,36 @@ jobs:
key: ${{ runner.os }}-cache-node-modules-${{ hashFiles('yarn.lock') }}
# https://docs.github.com/en/actions/learn-github-actions/contexts
- name: Define variables
- name: Define dist variables
if: ${{ github.event_name == 'push' }}
run: |
envName=''
dockerfile="dist.Dockerfile"
if [[ "${{ github.event_name }}" = "push" ]]; then
domain="vega.rocks"
if [[ "${{ github.ref }}" =~ .*release/.* ]]; then
envName="$(echo ${{ github.ref }} | rev | cut -d '/' -f 1 | rev)"
if [[ "${{ github.ref }}" =~ .*mainnet.* ]]; then
domain="vega.community"
if [[ "${{ matrix.app }}" = "trading" ]]; then
dockerfile="ipfs.Dockerfile"
fi
fi
elif [[ "${{ github.ref }}" =~ .*develop$ ]]; then
envName="stagnet1"
fi
bucketName="${{ matrix.app }}.${envName}.${domain}"
echo BUCKET_NAME=${bucketName} >> $GITHUB_ENV
fi
nodeVersion=$(cat .nvmrc | head -n 1)
echo ENV_NAME=${envName} >> $GITHUB_ENV
echo NODE_VERSION=${nodeVersion} >> $GITHUB_ENV
echo DOCKERFILE=docker/${dockerfile} >> $GITHUB_ENV
python3 tools/ci/define-dist-variables.py --github-ref="${{ github.ref }}" --app="${{ matrix.app }}"
- name: Verify script result
if: ${{ github.event_name == 'push' }}
run: |
echo "BUCKET_NAME=${{ env.BUCKET_NAME }}"
echo "ENV_NAME=${{ env.ENV_NAME }}"
- name: Build local dist
if: ${{ env.DOCKERFILE != 'docker/ipfs.Dockerfile' }}
run: |
flags=""
envCmd=""
if [[ ! -z "${{ env.ENV_NAME }}" ]]; then
if [[ "${{ env.ENV_NAME }}" != "ops-vega" ]]; then
flags="--env=${{ env.ENV_NAME }}"
fi
envCmd="yarn env-cmd -f ./apps/${{ matrix.app }}/.env.${{ env.ENV_NAME }}"
fi
if [ "${{ matrix.app }}" = "trading" ]; then
yarn nx export trading $flags || (yarn install && yarn nx export trading $flags)
$envCmd yarn nx export trading || (yarn install && $envCmd yarn nx export trading)
DIST_LOCATION=dist/apps/trading/exported
elif [ "${{ matrix.app }}" = "ui-toolkit" ]; then
NODE_ENV=production yarn nx run ui-toolkit:build-storybook
DIST_LOCATION=dist/storybook/ui-toolkit
elif [ "${{ matrix.app }}" = "static" ]; then
yarn nx build static || (yarn install && yarn nx build static)
else
yarn nx build ${{ matrix.app }} $flags || (yarn install && yarn nx build ${{ matrix.app }} $flags)
$envCmd yarn nx build ${{ matrix.app }} || (yarn install && $envCmd yarn nx build ${{ matrix.app }})
fi
if [[ -z "$DIST_LOCATION" ]]; then
DIST_LOCATION=dist/apps/${{ matrix.app }}
fi
mv $DIST_LOCATION dist-result
@@ -98,62 +137,92 @@ jobs:
- name: Build and export to local Docker
id: docker_build
if: ${{ github.event_name == 'pull_request' || ( env.DOCKERFILE == 'docker/ipfs.Dockerfile' && github.event_name == 'push' ) }}
uses: docker/build-push-action@v3
with:
context: .
file: ${{ env.DOCKERFILE }}
file: docker/node-outside-docker.Dockerfile
load: true
build-args: |
APP=${{ matrix.app }}
NODE_VERSION=${{ env.NODE_VERSION }}
ENV_NAME=${{ env.ENV_NAME }}
tags: |
ghcr.io/vegaprotocol/frontend/${{ matrix.app }}:local
- name: Image digest
if: ${{ github.event_name == 'pull_request' || ( env.DOCKERFILE == 'docker/ipfs.Dockerfile' && github.event_name == 'push' ) }}
if: ${{ env.IS_PR == 'true' }}
run: echo ${{ steps.docker_build.outputs.digest }}
- name: Sanity check docker image
if: ${{ github.event_name == 'pull_request' || ( env.DOCKERFILE == 'docker/ipfs.Dockerfile' && github.event_name == 'push' ) }}
run: |
echo "Check ipfs-hash"
if [[ "${{ env.DOCKERFILE }}" = "docker/ipfs.Dockerfile" ]]; then
docker run --rm ghcr.io/vegaprotocol/frontend/${{ matrix.app }}:local cat /ipfs-hash
fi
docker run --rm ghcr.io/vegaprotocol/frontend/${{ matrix.app }}:local cat /ipfs-hash
docker run --rm ghcr.io/vegaprotocol/frontend/${{ matrix.app }}:local cat /ipfs-hash > ${{ matrix.app }}-ipfs-hash
echo "List html directory"
docker run --rm ghcr.io/vegaprotocol/frontend/${{ matrix.app }}:local sh -c 'apk add --update tree; tree .'
docker run --rm ghcr.io/vegaprotocol/frontend/${{ matrix.app }}:local sh -c 'apk add --update tree; tree /usr/share/nginx/html'
- name: Copy dist to local filesystem
if: ${{ env.DOCKERFILE == 'docker/ipfs.Dockerfile' && github.event_name == 'push' }}
run: |
docker create --name=dist ghcr.io/vegaprotocol/frontend/${{ matrix.app }}:local
docker cp dist:/usr/share/nginx/html dist
echo "check local dist files"
tree dist/html
mv dist/html dist-result
- name: Publish dist as docker image
- name: Publish dist as docker image (ghcr)
uses: docker/build-push-action@v3
if: ${{ github.event_name == 'pull_request' }}
continue-on-error: true
id: ghcr-push
if: ${{ env.IS_PR == 'true' }}
with:
context: .
file: ${{ env.DOCKERFILE }}
file: docker/node-outside-docker.Dockerfile
push: true
build-args: |
APP=${{ matrix.app }}
NODE_VERSION=${{ env.NODE_VERSION }}
ENV_NAME=${{ env.ENV_NAME }}
tags: |
ghcr.io/vegaprotocol/frontend/${{ matrix.app }}:${{ github.event.pull_request.head.sha || github.sha }}
- name: Publish dist as docker image (docker hub)
uses: docker/build-push-action@v3
continue-on-error: true
id: dockerhub-push
if: ${{ env.IS_IPFS_RELEASE == 'true' || env.IS_DEV_IMAGE == 'true' }}
with:
context: .
file: docker/node-outside-docker.Dockerfile
push: true
build-args: |
APP=${{ matrix.app }}
ENV_NAME=${{ env.ENV_NAME }}
tags: |
vegaprotocol/${{ matrix.app }}:${{ github.sha }}
vegaprotocol/${{ matrix.app }}:${{ env.IS_MAINNET_RELEASE == 'true' && 'mainnet' || env.IS_TESTNET_RELEASE == 'true' && 'testnet' || env.IS_DEV_IMAGE == 'true' && 'develop' || '' }}
- name: Publish dist as docker image (ghcr - retry)
uses: docker/build-push-action@v3
if: ${{ steps.ghcr-push.outcome == 'failure' }}
with:
context: .
file: docker/node-outside-docker.Dockerfile
push: true
build-args: |
APP=${{ matrix.app }}
ENV_NAME=${{ env.ENV_NAME }}
tags: |
ghcr.io/vegaprotocol/frontend/${{ matrix.app }}:${{ github.event.pull_request.head.sha || github.sha }}
- name: Publish dist as docker image (docker hub - retry)
uses: docker/build-push-action@v3
if: ${{ steps.dockerhub-push.outcome == 'failure' }}
with:
context: .
file: docker/node-outside-docker.Dockerfile
push: true
build-args: |
APP=${{ matrix.app }}
ENV_NAME=${{ env.ENV_NAME }}
tags: |
vegaprotocol/${{ matrix.app }}:${{ github.sha }}
vegaprotocol/${{ matrix.app }}:${{ env.IS_MAINNET_RELEASE == 'true' && 'mainnet' || env.IS_TESTNET_RELEASE == 'true' && 'testnet' || '' }}
# bucket creation in github.com/vegaprotocol/terraform//frontend
- name: Publish dist to s3
uses: jakejarvis/s3-sync-action@master
if: ${{ github.event_name == 'push' }}
# s3 releases are not happening for trading on mainnet - it's IPFS
if: ${{ env.IS_S3_RELEASE == 'true' }}
with:
args: --acl private --follow-symlinks --delete
env:
@@ -163,9 +232,104 @@ jobs:
AWS_REGION: 'eu-west-1'
SOURCE_DIR: 'dist-result'
- name: Install aws CLI
if: ${{ env.IS_S3_RELEASE == 'true' }}
uses: unfor19/install-aws-cli-action@master
- name: Perform cache invalidation
if: ${{ env.IS_S3_RELEASE == 'true' }}
env:
AWS_ACCESS_KEY_ID: ${{ secrets.AWS_ACCESS_KEY_ID }}
AWS_SECRET_ACCESS_KEY: ${{ secrets.AWS_SECRET_ACCESS_KEY }}
AWS_REGION: 'eu-west-1'
run: |
echo "Looking for distribution for bucket: ${{ env.BUCKET_NAME }}"
id=$(aws cloudfront list-distributions | jq -Mrc '.DistributionList.Items | .[] | select(.DefaultCacheBehavior.TargetOriginId == "${{ env.BUCKET_NAME }}") | .Id')
echo "Found id is: ${id}"
aws cloudfront create-invalidation --distribution-id $id --paths "/*"
- name: Add preview label
uses: actions-ecosystem/action-add-labels@v1
if: ${{ github.event_name == 'pull_request' }}
if: ${{ env.IS_PR == 'true' }}
with:
labels: ${{ matrix.app }}-preview
number: ${{ github.event.number }}
- name: Trigger fleek deployment
# release to ipfs happens only on mainnet (represented by main branch) for trading
if: ${{ env.IS_IPFS_RELEASE == 'true' }}
run: |
if [[ "${{ env.IS_MAINNET_RELEASE }}" = "true" ]]; then
# display info about app
curl --fail -H "Authorization: ${{ secrets.FLEEK_API_KEY }}" \
-H "Content-Type: application/json" \
-d '{"query": "query{getSiteById(siteId:\"f8f2e051-f18e-49e6-b876-0a39369dc0d8\"){id latestDeploy{id status}}}"}' \
https://api.fleek.co/graphql
# trigger new deployment as base image is always set to vegaprotocol/trading:mainnet
curl --fail -H "Authorization: ${{ secrets.FLEEK_API_KEY }}" \
-H "Content-Type: application/json" \
-d '{"query": "mutation{triggerDeploy(siteId:\"f8f2e051-f18e-49e6-b876-0a39369dc0d8\"){id status}}"}' \
https://api.fleek.co/graphql
elif [[ "${{ env.IS_TESTNET_RELEASE }}" = "true" ]]; then
# display info about app
curl --fail -H "Authorization: ${{ secrets.FLEEK_API_KEY }}" \
-H "Content-Type: application/json" \
-d '{"query": "query{getSiteById(siteId:\"79baaeca-1952-4ae7-a256-f668cfc1d68e\"){id latestDeploy{id status}}}"}' \
https://api.fleek.co/graphql
# trigger new deployment as base image is always set to vegaprotocol/trading:mainnet
curl --fail -H "Authorization: ${{ secrets.FLEEK_API_KEY }}" \
-H "Content-Type: application/json" \
-d '{"query": "mutation{triggerDeploy(siteId:\"79baaeca-1952-4ae7-a256-f668cfc1d68e\"){id status}}"}' \
https://api.fleek.co/graphql
fi
- name: Check out ipfs-redirect
if: ${{ env.IS_IPFS_RELEASE == 'true' }}
uses: actions/checkout@v3
with:
repository: 'vegaprotocol/ipfs-redirect'
path: 'ipfs-redirect'
fetch-depth: '0'
token: ${{ secrets.VEGA_CI_BOT_GITHUB_TOKEN }}
- name: Update interstitial page to point to the new console
if: ${{ env.IS_IPFS_RELEASE == 'true' }}
env:
GH_TOKEN: ${{ secrets.VEGA_CI_BOT_GITHUB_TOKEN }}
run: |
# set CID
curl -L https://dist.ipfs.tech/kubo/v0.20.0/kubo_v0.20.0_linux-amd64.tar.gz -o kubo.tgz
tar -xzf kubo.tgz
export PATH="$PATH:$PWD/kubo"
which ipfs
new_hash=$(cat ${{ matrix.app }}-ipfs-hash)
new_cid=$(ipfs cid format -v 1 -b base32 $new_hash)
(
cd ipfs-redirect
# configure git
git status
cat .git/config
git config --global user.email "vega-ci-bot@vega.xyz"
git config --global user.name "vega-ci-bot"
# update CID files
if [[ "${{ env.IS_MAINNET_RELEASE }}" = "true" ]]; then
echo $new_hash > cidv0-mainnet.txt
echo $new_cid > cidv1-mainnet.txt
git add cidv0-mainnet.txt cidv1-mainnet.txt
elif [[ "${{ env.IS_TESTNET_RELEASE }}" = "true" ]]; then
echo $new_hash > cidv0-fairground.txt
echo $new_cid > cidv1-fairground.txt
git add cidv0-fairground.txt cidv1-fairground.txt
fi
# create commit
commit_msg="Automated hash update from ${{ github.ref }}"
git commit -m "$commit_msg"
git push -u origin "main"
)
+84
View File
@@ -0,0 +1,84 @@
name: 'Rollback console'
on:
workflow_dispatch:
inputs:
version:
description: 'Version that should be set on rollback'
required: true
type: string
jobs:
rollback:
runs-on: ubuntu-22.04
timeout-minutes: 10
steps:
- name: Set up Docker Buildx
uses: docker/setup-buildx-action@v2
- name: Log in to the Container registry (docker hub)
uses: docker/login-action@v2
with:
username: ${{ secrets.DOCKERHUB_USERNAME }}
password: ${{ secrets.DOCKERHUB_TOKEN }}
- name: Retag mainnet
run: |
docker pull vegaprotocol/trading:${{ inputs.version }}
docker tag vegaprotocol/trading:${{ inputs.version }} vegaprotocol/trading:mainnet
docker push vegaprotocol/trading:mainnet
docker run --rm vegaprotocol/trading:mainnet cat /ipfs-hash > ipfs-hash
- name: Trigger fleek deployment
run: |
# display info about app
curl -H "Authorization: ${{ secrets.FLEEK_API_KEY }}" \
-H "Content-Type: application/json" \
-d '{"query": "query{getSiteById(siteId:\"f8f2e051-f18e-49e6-b876-0a39369dc0d8\"){id latestDeploy{id status}}}"}' \
https://api.fleek.co/graphql
# trigger new deployment as base image is always set to vegaprotocol/trading:mainnet
curl -H "Authorization: ${{ secrets.FLEEK_API_KEY }}" \
-H "Content-Type: application/json" \
-d '{"query": "mutation{triggerDeploy(siteId:\"f8f2e051-f18e-49e6-b876-0a39369dc0d8\"){id status}}"}' \
https://api.fleek.co/graphql
- name: Check out ipfs-redirect
uses: actions/checkout@v3
with:
repository: 'vegaprotocol/ipfs-redirect'
path: 'ipfs-redirect'
fetch-depth: '0'
token: ${{ secrets.VEGA_CI_BOT_GITHUB_TOKEN }}
- name: Update console.vega.xyz DNS to redirect to the new console
env:
GH_TOKEN: ${{ secrets.VEGA_CI_BOT_GITHUB_TOKEN }}
run: |
curl -L https://dist.ipfs.tech/kubo/v0.20.0/kubo_v0.20.0_linux-amd64.tar.gz -o kubo.tgz
tar -xzf kubo.tgz
export PATH="$PATH:$PWD/kubo"
which ipfs
new_hash=$(cat ipfs-hash)
new_cid=$(ipfs cid format -v 1 -b base32 $new_hash)
git config --global user.email "vega-ci-bot@vega.xyz"
git config --global user.name "vega-ci-bot"
echo $new_hash > ipfs-redirect/cidv0.txt
echo $new_cid > ipfs-redirect/cidv1.txt
(
cd ipfs-redirect
git status
branch_name="rollback-to-$new_hash"
git checkout -b "$branch_name"
commit_msg="hash rollback to $new_hash"
git add cidv0.txt cidv1.txt
git commit -m "$commit_msg"
git push -u origin "$branch_name" --force-with-lease
pr_url="$(gh pr create --title "${commit_msg}" --body 'automated pull request to update CIDs')"
echo $pr_url
# once auto merge get's enabled on documentation repo let's do follow up
sleep 5
gh pr merge "${pr_url}" --delete-branch --squash --admin
)
+4 -1
View File
@@ -2,6 +2,7 @@
# compiled output
/dist
/dist-result
/tmp
/out-tsc
/tools/executors/**/*.js
@@ -48,4 +49,6 @@ cypress.env.json
.next
#cypress
/apps/trading-e2e/cypress/reports/
/apps/**/cypress/reports/
/apps/**/cypress/downloads/
/apps/**/fixtures/wallet/node**
-29
View File
@@ -1,29 +0,0 @@
module.exports = {
stories: [],
addons: [
'@storybook/addon-actions',
'@storybook/addon-viewport',
{
name: '@storybook/addon-docs',
options: {
configureJSX: true,
babelOptions: {},
sourceLoaderOptions: null,
transcludeMarkdown: true,
},
},
'@storybook/addon-controls',
'@storybook/addon-backgrounds',
'@storybook/addon-toolbars',
'@storybook/addon-measure',
'@storybook/addon-outline',
'@storybook/addon-a11y',
],
// uncomment the property below if you want to apply some webpack config globally
// webpackFinal: async (config, { configType }) => {
// // Make whatever fine-grained changes you need that should apply to all storybook configs
// // Return the altered config
// return config;
// },
};
-14
View File
@@ -1,14 +0,0 @@
{
"extends": "../tsconfig.base.json",
"exclude": [
"../**/*.spec.js",
"../**/*.test.js",
"../**/*.spec.ts",
"../**/*.test.ts",
"../**/*.spec.tsx",
"../**/*.test.tsx",
"../**/*.spec.jsx",
"../**/*.test.jsx"
],
"include": ["../**/*"]
}
+20
View File
@@ -0,0 +1,20 @@
.PHONY: latest-release
latest-release:
gh release list | head -n 1 | awk '{print $1}'
.PHONY: show-latest-release
show-latest-release:
gh release view `gh release list | head -n 1 | awk '{print $1}'`
.PHONY: recalculate-ipfs
recalculate-ipfs:
echo "ipfs hash inside the image"
docker run --rm ${TAG} cat /ipfs-hash
echo "recalculating ipfs hash"
docker run --rm ${TAG} ipfs add -r /usr/share/nginx/html
.PHONY: eject-ipfs-hash
unpack:
docker create --name=dist ${TAG}
docker cp dist:/usr/share/nginx/html dist
docker rm dist
+55 -12
View File
@@ -103,25 +103,68 @@ In CI linting, formatting and also run. These checks can be seen in the [CI work
Visit the [Nx Documentation](https://nx.dev/getting-started/intro) to learn more.
# Docker & Vegacapsule
# 🐋 Hosting a console
## Docker
To host a console there are two possible build scenarios for running the frontends: nx performed **outside** or **inside** docker build. For specific build instructions follow [build instructions](#build-instructions).
The [Dockerfile](./dockerfiles) for running the frontends is pretty basic, merely building the application with the APP arg that is passed in and serving the application from [nginx](./nginx/nginx.conf). The only complexity that exists is that there is a script which allows the passing of run time environment variables to the containers. See configuration below for how to do this.
You can build any of the containers locally with the following command:
```bash
docker build --dockerfile dockerfiles/Dockerfile.cra . --build-arg APP=[YOUR APP] --tag=[TAG]
```
In order to run a container:
In order to run a container on port 3000:
```bash
docker run -p 3000:80 [TAG]
```
Images ending with `.dist` are to pack locally created transpiled HTML files into nginx container for non-compatible with yarn architectures like M1 Mac
## Build instructions
The [`docker`](./docker) subfolder has some docker configurations for easily setting up your own hosted version of console either for the web, or ready for pinning on IPFS
### nx build outside the docker
Packaging prepared dist into [`nginx`](https://hub.docker.com/_/nginx)([server configuration](./nginx/nginx.conf)) docker image involves building the application on docker host machine from source.
As a prerequisite you need to perform build of `dist` directory and move its content for specific application to `dist-result` directory. Use following script to do it with a single command:
```bash
./docker/prepare-dist.sh
```
You can build any of the containers locally with the following command:
```bash
docker build --dockerfile docker/node-outside-docker.Dockerfile . --tag=[TAG]
```
### nx build inside the docker
Using multistage dockerfile dist is compiled using [node](https://hub.docker.com/_/node) image and later packed to nginx as in [dist build](#dist-build) example.
```bash
docker build --build-arg APP=[YOUR APP] --build-arg NODE_VERSION=$(cat .nvmrc) --build-arg ENV_NAME=mainnet -t [TAG] -f docker/node-inside-docker.Dockerfile .
```
### Computing ipfs-hash of the build
At the moment this feature is important only for `trading` (console) releases.
Each docker build finishes with hash calculation for dist directory. Resulting hash is added to file named as `/ipfs-hash`. Once docker image is produced you can run following commad to display ipfs-hash:
```bash
make recalculate-ipfs TAG=vegaprotocol/trading:{YOUR_VERSION}
```
**updating hash:** recompiling dist directory (even if there are no changed to source code) results in different hash computed by ipfs command.
### Verifying ipfs-hash of existing current application version
An IPFS CID will be attached to every [release](https://github.com/vegaprotocol/frontend-monorepo/releases). If you are intending to pin an application on IPFS, you can check that your build matches by running the following steps:
1. Show latest release by runnning: `make latest-release`. You need to configure [`gh`](https://cli.github.com/) for this step to work, otherwise please provide release manually from [github](https://github.com/vegaprotocol/frontend-monorepo/releases) or [dockerhub](https://hub.docker.com/r/vegaprotocol/trading)
2. Set RELEASE environment variable to value that you want to validate: `export RELEASE=$(make latest-release)` or `export RELEASE=vXX.XX.XX`
3. Set TAG environment variable to image that you want to validate: `export TAG=vegaprotocol/trading:$RELEASE`
4. Download docker image with the desired release `docker pull $TAG`.
5. Recalculate hash: `make recalculate-ipfs`
6. You should see exactly same hash produced by ipfs command as one placed with the release notes: `make show-latest-release`
7. If you want to extract dist from docker image to your local filesystem you can run following command: `make unpack`
8. Now `dist` directory contains valid application build. **it is not possible to calculate same ipfs hash on files that are result of copy operation**
## Config
+6 -2
View File
@@ -1,4 +1,3 @@
NX_CHAIN_EXPLORER_URL=https://explorer.vega.trading/.netlify/functions/chain-explorer-api
NX_TENDERMINT_URL=http://localhost:26617
NX_TENDERMINT_WEBSOCKET_URL=wss://localhost:26617/websocket
NX_VEGA_URL=http://localhost:3008/graphql
@@ -17,5 +16,10 @@ NX_EXPLORER_NETWORK_PARAMETERS=1
NX_EXPLORER_PARTIES=1
NX_EXPLORER_VALIDATORS=1
CYPRESS_VEGA_WALLET_API_TOKEN=
CYPRESS_VEGA_URL=http://localhost:3008/graphql
CYPRESS_ETH_WALLET_MNEMONIC=ozone access unlock valid olympic save include omit supply green clown session
CYPRESS_ETHEREUM_PROVIDER_URL=http://localhost:8545
CYPRESS_FAUCET_URL=http://localhost:1790/api/v1/mint
CYPRESS_VEGA_PUBLIC_KEY=02eceaba4df2bef76ea10caf728d8a099a2aa846cced25737cccaa9812342f65
CYPRESS_VEGA_WALLET_URL=http://localhost:1789
CYPRESS_VEGA_WALLET_API_TOKEN=
-1
View File
@@ -1,5 +1,4 @@
# App configuration variables
NX_CHAIN_EXPLORER_URL=https://explorer.vega.trading/.netlify/functions/chain-explorer-api
NX_TENDERMINT_URL=https://n04.d.vega.xyz/tm
NX_TENDERMINT_WEBSOCKET_URL=wss://n04.d.vega.xyz/tm/websocket
NX_VEGA_URL=https://api.n04.d.vega.xyz/graphql
+1 -2
View File
@@ -1,8 +1,7 @@
# App configuration variables
NX_CHAIN_EXPLORER_URL=https://explorer.vega.trading/.netlify/functions/chain-explorer-api
NX_TENDERMINT_URL=https://mainnet-observer-proxy01.ops.vega.xyz/
NX_TENDERMINT_WEBSOCKET_URL=wss://mainnet-observer-proxy01.ops.vega.xyz/websocket
NX_VEGA_URL=https://api.vega.xyz/query
NX_VEGA_URL=https://api.vega.community/graphql
NX_VEGA_ENV=MAINNET
NX_BLOCK_EXPLORER=https://be.explorer.vega.xyz/rest
-1
View File
@@ -1,5 +1,4 @@
# App configuration variables
NX_CHAIN_EXPLORER_URL=https://explorer.vega.trading/.netlify/functions/chain-explorer-api
NX_TENDERMINT_URL=https://tm.n07.testnet.vega.xyz/tm
NX_TENDERMINT_WEBSOCKET_URL=wss://lb.testnet.vega.xyz/tm/websocket
NX_VEGA_URL=https://api.n07.testnet.vega.xyz/graphql
+2 -1
View File
@@ -1,10 +1,11 @@
const { defineConfig } = require('cypress');
module.exports = defineConfig({
projectId: 'et4snf',
reporter: '../../node_modules/cypress-mochawesome-reporter',
e2e: {
setupNodeEvents(on, config) {
require('cypress-mochawesome-reporter/plugin')(on);
require('@cypress/grep/src/plugin')(config);
return config;
},
+4 -3
View File
@@ -1,10 +1,11 @@
{
"name": "explorer-e2e",
"$schema": "../../node_modules/nx/schemas/project-schema.json",
"sourceRoot": "apps/explorer-e2e/src",
"projectType": "application",
"targets": {
"e2e": {
"executor": "@nrwl/cypress:cypress",
"executor": "@nx/cypress:cypress",
"options": {
"cypressConfig": "apps/explorer-e2e/cypress.config.js",
"devServerTarget": "explorer:serve"
@@ -16,14 +17,14 @@
}
},
"lint": {
"executor": "@nrwl/linter:eslint",
"executor": "@nx/linter:eslint",
"outputs": ["{options.outputFile}"],
"options": {
"lintFilePatterns": ["apps/explorer-e2e/**/*.{js,ts}"]
}
},
"build": {
"executor": "@nrwl/workspace:run-commands",
"executor": "nx:run-commands",
"outputs": [],
"options": {
"command": "yarn tsc --project ./apps/explorer-e2e/"
@@ -31,7 +31,7 @@ context('Asset page', { tags: '@regression' }, () => {
});
});
it('should open details page when clicked on "View details"', () => {
it.skip('should open details page when clicked on "View details"', () => {
cy.getAssets().then((assets) => {
assets.forEach((asset) => {
cy.get(`[row-id="${asset.id}"] [col-id="actions"] button`)
+121 -10
View File
@@ -1,19 +1,130 @@
//Tests set to skip until market bug for capsule checkpoint is fixed
context.skip('Market page', { tags: '@regression' }, function () {
context('Market page', { tags: '@regression' }, function () {
describe('Verify elements on page', function () {
const marketHeaders = '[data-testid="markets-header"]';
const marketNavigation = 'a[href="/markets"]';
const marketHeaders = 'markets-heading';
const createdMarketId =
'2eab0e66545a789047561bc5a2e5cbc3b19eb708da41104e3cac2474ee36c4d4';
it('Markets page is displayed', function () {
before('Create market', function () {
cy.visit('/');
cy.get(marketNavigation).click();
cy.common_validate_blocks_data_displayed(marketHeaders);
cy.createMarket();
});
it('Markets page displayed on mobile', function () {
beforeEach('Get market id', function () {
cy.navigate_to('markets');
cy.get('[col-id="id"]').eq(1).invoke('text').as('createdMarketId');
});
it('Market displayed on market page', function () {
cy.navigate_to('markets');
cy.getByTestId(marketHeaders).should('be.visible');
cy.get(`[row-id="${this.createdMarketId}"]`)
.should('be.visible')
.within(() => {
cy.get_element_by_col_id('code').should('have.text', 'TEST.24h');
cy.get_element_by_col_id('name').should('have.text', 'Test market 1');
cy.get_element_by_col_id('state').should('have.text', 'Pending');
cy.get_element_by_col_id('asset').should('have.text', 'fUSDC');
cy.get_element_by_col_id('id').should(
'have.text',
this.createdMarketId
);
cy.get_element_by_col_id('actions')
.find('a')
.should('have.attr', 'href', `/markets/${this.createdMarketId}`);
});
});
it('Able to go to market details page', function () {
cy.navigate_to('markets');
cy.get_element_by_col_id('actions').eq(1).click();
cy.getByTestId(marketHeaders).should('have.text', 'Test market 1');
cy.validate_element_from_table('Name', 'Test market 1');
cy.validate_element_from_table('Market ID', this.createdMarketId);
cy.validate_element_from_table('Trading Mode', 'Opening auction');
cy.validate_element_from_table('Market Decimal Places', '5');
cy.validate_element_from_table('Position Decimal Places', '5');
cy.validate_element_from_table('Settlement Asset Decimal Places', '5');
// Instrument
cy.validate_element_from_table('Market Name', 'Test market 1');
cy.validate_element_from_table('Code', 'TEST.24h');
cy.validate_element_from_table('Product Type', 'Future');
cy.validate_element_from_table('Quote Name', 'fUSDC');
// Settlement Asset
cy.validate_element_from_table('Quote Name', 'fUSDC');
cy.validate_element_from_table('Symbol', 'fUSDC');
cy.validate_element_from_table('Decimals', '5');
cy.validate_element_from_table('Quantum', '0.00');
cy.validate_element_from_table('Status', 'Enabled');
cy.validate_element_from_table('Max faucet amount', '10,000,000.00');
cy.validate_element_from_table(
'Infrastructure fee account balance',
'0.00'
);
cy.validate_element_from_table(
'Global reward pool account balance',
'0.00'
);
// Metadata
cy.validate_element_from_table('Sector', 'tech');
cy.validate_element_from_table('Source', 'docs.vega.xyz');
// Risk model
cy.validate_element_from_table('Tau', '0.0001140771161');
cy.validate_element_from_table('Risk Aversion Parameter', '0.01');
// Risk parameters
// cy.validate_element_from_table('R', '0.016')
cy.validate_element_from_table('Sigma', '0.5');
// Risk factors
cy.validate_element_from_table('Short', '0.0143218738374871');
cy.validate_element_from_table('Long', '0.0141450471498822');
// Price monitoring settings 1
cy.validate_element_from_table('Horizon Secs', '43,200');
cy.validate_element_from_table('Probability', '1');
cy.validate_element_from_table('Auction Extension Secs', '600');
// Liquidity Monitoring
cy.validate_element_from_table('Triggering Ratio', '0.7');
cy.validate_element_from_table('Time Window', '3,600');
cy.validate_element_from_table('Scaling Factor', '10');
// Liquidity
cy.validate_element_from_table('Target Stake', '0.00 fUSDC');
cy.validate_element_from_table('Supplied Stake', '0.00 fUSDC');
cy.validate_element_from_table('Market Value Proxy', '0.00 fUSDC');
// Liquidity price range
cy.validate_element_from_table(
'Liquidity Price Range',
'1,000.00% of mid price'
);
cy.validate_element_from_table('Lowest Price', '0.00 fUSDC');
cy.validate_element_from_table('Highest Price', '0.00 fUSDC');
cy.getByTestId('oracle-spec-links')
.should('have.attr', 'href')
.and(
'contain',
'/oracles/bf242aa5c9f64fcbb77808aa8582e73711519f4b35264eb797a80f1803590a24'
);
// Able to view Json
cy.contains('View JSON').click();
cy.get('.language-json').should('exist');
});
// Skipping due to resize observer loop limit error
it.skip('Markets page displayed on mobile', function () {
cy.common_switch_to_mobile_and_click_toggle();
cy.get(marketNavigation).click();
cy.common_validate_blocks_data_displayed(marketHeaders);
cy.navigate_to('markets', true);
cy.getByTestId(marketHeaders).should('be.visible');
cy.get(`[row-id="${createdMarketId}"]`)
.should('be.visible')
.within(() => {
cy.get_element_by_col_id('code').should('have.text', 'TEST.24h');
cy.get_element_by_col_id('name').should('have.text', 'Test market 1');
cy.get_element_by_col_id('state').should('have.text', 'Pending');
cy.get_element_by_col_id('asset').should('have.text', 'fUSDC');
cy.get_element_by_col_id('id').should('have.text', createdMarketId);
cy.get_element_by_col_id('actions')
.find('a')
.should('have.attr', 'href', `/markets/${createdMarketId}`);
});
});
});
});
@@ -169,7 +169,6 @@ context.skip('Parties page', { tags: '@regression' }, function () {
const jsonFields = '.hljs';
const sideMenuBackground = '.absolute';
// Engage dark mode if not allready set
cy.get(sideMenuBackground)
.should('have.css', 'background-color')
.then((background_color) => {
@@ -0,0 +1,46 @@
context('Proposal page', { tags: '@smoke' }, function () {
describe('Verify elements on page', function () {
const proposalHeading = 'proposals-heading';
const dateTimeRegex =
/(\d{1,2})\/(\d{1,2})\/(\d{4}), (\d{1,2}):(\d{1,2}):(\d{1,2})/gm;
const proposalTitle = 'Add Lorem Ipsum market';
before('Create market proposal', function () {
cy.visit('/');
cy.createMarket();
});
it('Able to view proposal', function () {
cy.navigate_to('governanceProposals');
cy.getByTestId(proposalHeading).should('be.visible');
// get first proposal in list
cy.get('[row-index="0"]').within(() => {
cy.get_element_by_col_id('title').should('have.text', proposalTitle);
cy.get_element_by_col_id('type').should('have.text', 'NewMarket');
cy.get_element_by_col_id('state').should('have.text', 'Enacted');
cy.getByTestId('vote-progress').should('be.visible');
cy.get('[col-id="cDate"]')
.invoke('text')
.should('match', dateTimeRegex);
cy.get('[col-id="eDate"]')
.invoke('text')
.should('match', dateTimeRegex);
cy.getByTestId('external-link')
.should('have.attr', 'href')
.and('contains', 'https://governance.fairground.wtf/proposals/');
cy.contains('View terms').should('exist').click();
});
cy.getByTestId('dialog-title').should('have.text', proposalTitle);
cy.get('.language-json').should('exist');
});
it('Proposal page displayed on mobile', function () {
cy.common_switch_to_mobile_and_click_toggle();
cy.navigate_to('governanceProposals', true);
cy.getByTestId(proposalHeading).should('be.visible');
cy.get('[row-index="0"]').within(() => {
cy.get_element_by_col_id('title').should('have.text', proposalTitle);
});
});
});
});
@@ -40,7 +40,7 @@ context.skip('Transactions page', function () {
.first()
.click({ force: true });
} else {
cy.slack('Unable to find any transactions on page');
cy.log('Unable to find any transactions on page');
cy.screenshot();
}
});
@@ -78,7 +78,7 @@ context.skip('Transactions page', function () {
}
});
} else {
cy.slack('Unable to find any transactions on page');
cy.log('Unable to find any transactions on page');
cy.screenshot();
}
});
@@ -7,7 +7,11 @@ context('Validator page', { tags: '@smoke' }, function () {
it('should be able to see validator tiles', function () {
cy.getNodes().then((nodes) => {
nodes.forEach((node) => {
cy.get(`[validator-id="${node.id}"]`).should('be.visible');
if (node.rankingScore.performanceScore > 0) {
cy.get(`[validator-id="${node.id}"]`).should('be.visible');
} else {
cy.get(`[validator-id="${node.id}"]`).should('not.exist');
}
});
});
});
@@ -28,7 +28,7 @@ Cypress.Commands.add('switchToMobile', () => {
Cypress.Commands.add('common_switch_to_mobile_and_click_toggle', function () {
cy.viewport('iphone-x');
cy.visit('/');
cy.get('[data-testid="open-menu"]').click();
cy.get('[data-testid="button-menu-drawer"]').click();
});
Cypress.Commands.add('monitor_clipboard', () => {
@@ -88,3 +88,42 @@ Cypress.Commands.add('convert_number_to_max_four_decimal', (number) => {
maximumFractionDigits: 4,
});
});
Cypress.Commands.add('navigate_to', (page, mobileView = false) => {
const navigation = {
transactions: '/txs',
blocks: '/blocks',
oracles: '/oracles',
validators: '/validators',
parties: '/parties',
assets: '/assets',
markets: '/markets',
governanceProposals: '/governance',
networkParameters: '/network-parameters',
genesisParameters: '/genesis',
};
const topLevelRoutes = ['transactions', 'blocks', 'oracles', 'validators'];
cy.getByTestId('navigation').within(() => {
if (!topLevelRoutes.includes(page) && mobileView === false) {
cy.getByTestId('other').first().click();
}
cy.get(`[href="${navigation[page]}"]`).first().click();
});
cy.url().should('include', navigation[page]);
});
Cypress.Commands.add('get_element_by_col_id', (elementName) => {
cy.get(`[col-id="${elementName}"]`);
});
Cypress.Commands.add(
'validate_element_from_table',
(tableRowName, tableRowValue) => {
cy.contains(tableRowName)
.parentsUntil("[data-testid='key-value-table-row']")
.siblings()
.should('have.text', tableRowValue);
}
);
+1
View File
@@ -15,5 +15,6 @@
import '@vegaprotocol/cypress';
import './common.functions.js';
import 'cypress-mochawesome-reporter/register';
import registerCypressGrep from '@cypress/grep';
registerCypressGrep();
+1 -1
View File
@@ -1,7 +1,7 @@
{
"presets": [
[
"@nrwl/react/babel",
"@nx/react/babel",
{
"runtime": "automatic"
}
+10 -7
View File
@@ -1,18 +1,21 @@
NX_ETHEREUM_PROVIDER_URL=https://sepolia.infura.io/v3/4f846e79e13f44d1b51bbd7ed9edefb8
NX_ETHERSCAN_URL=https://sepolia.etherscan.io
NX_HOSTED_WALLET_URL=https://wallet.testnet.vega.xyz
NX_HOSTED_WALLET_URL=https://wallet.testnet.vega.rocks
NX_VEGA_CONFIG_URL=https://raw.githubusercontent.com/vegaprotocol/networks-internal/main/stagnet1/vegawallet-stagnet1.toml
NX_VEGA_ENV=STAGNET1
NX_VEGA_EXPLORER_URL=https://stagnet1.explorer.vega.xyz
NX_VEGA_TOKEN_URL=https://stagnet1.token.vega.xyz
NX_VEGA_EXPLORER_URL=https://explorer.stagnet1.vega.rocks
NX_VEGA_TOKEN_URL=https://governance.stagnet1.vega.rocks
NX_VEGA_WALLET_URL=http://localhost:1789
NX_TENDERMINT_URL=https://tm.n01.stagnet1.vega.xyz
NX_TENDERMINT_URL=https://tm.n01.stagnet1.vega.rocks
NX_TENDERMINT_WEBSOCKET_URL=wss://tm.n01.stagnet1.vega.xyz/websocket
NX_BLOCK_EXPLORER=https://be.stagnet1.vega.xyz/rest
NX_BLOCK_EXPLORER=https://be.stagnet1.vega.rocks/rest
NX_ETHERSCAN_URL=https://sepolia.etherscan.io
NX_ORACLE_PROOFS_URL=https://raw.githubusercontent.com/vegaprotocol/well-known/main/__generated__/oracle-proofs.json
NX_VEGA_GOVERNANCE_URL=https://stagnet1.token.vega.xyz
NX_ANNOUNCEMENTS_CONFIG_URL=https://raw.githubusercontent.com/vegaprotocol/announcements/fairground/announcements.jsoo
NX_VEGA_GOVERNANCE_URL=https://governance.stagnet1.vega.rocks
NX_ANNOUNCEMENTS_CONFIG_URL=https://raw.githubusercontent.com/vegaprotocol/announcements/fairground/announcements.json
NX_VEGA_NETWORKS='{"TESTNET":"https://explorer.fairground.wtf","MAINNET":"https://explorer.vega.xyz"}'
NX_GITHUB_FEEDBACK_URL=https://github.com/vegaprotocol/feedback/discussions
NX_VEGA_REPO_URL=https://github.com/vegaprotocol/vega/releases/tag/
# App flags
NX_EXPLORER_ASSETS=1
+3 -3
View File
@@ -1,12 +1,12 @@
# App configuration variables
NX_TENDERMINT_URL=https://tm.be.devnet1.vega.xyz/tm
NX_TENDERMINT_URL=https://tm.be.devnet1.vega.xyz/
NX_TENDERMINT_WEBSOCKET_URL=wss://be.devnet1.vega.xyz/websocket
NX_VEGA_CONFIG_URL=https://raw.githubusercontent.com/vegaprotocol/networks-internal/main/devnet1/vegawallet-devnet1.toml
NX_VEGA_ENV=DEVNET
NX_BLOCK_EXPLORER=https://be.devnet1.vega.xyz/rest
NX_ETHERSCAN_URL=https://sepolia.etherscan.io
NX_VEGA_GOVERNANCE_URL=https://dev.token.vega.xyz
NX_VEGA_GOVERNANCE_URL=https://dev.governance.vega.xyz
NX_VEGA_URL=https://api.devnet1.vega.xyz/graphql
NX_VEGA_CONFIG_URL=https://raw.githubusercontent.com/vegaprotocol/networks-internal/main/devnet1/vegawallet-devnet1.toml
NX_ANNOUNCEMENTS_CONFIG_URL=https://raw.githubusercontent.com/vegaprotocol/announcements/fairground/announcements.json
NX_VEGA_EXPLORER_URL=/
NX_VEGA_EXPLORER_URL=/
+8 -5
View File
@@ -1,10 +1,13 @@
# App configuration variables
NX_TENDERMINT_URL=https://be.explorer.vega.xyz
NX_TENDERMINT_WEBSOCKET_URL=wss://be.explorer.vega.xyz/websocket
NX_TENDERMINT_URL=https://be.vega.community
NX_TENDERMINT_WEBSOCKET_URL=wss://be.vega.community/websocket
NX_SENTRY_DSN=https://b3a56b03eda842faad731f3ea9dfd1bc@o286262.ingest.sentry.io/6242427
NX_VEGA_CONFIG_URL=https://raw.githubusercontent.com/vegaprotocol/networks/master/mainnet1/mainnet1.toml
NX_VEGA_URL=https://api.vega.community/graphql
NX_VEGA_ENV=MAINNET
NX_BLOCK_EXPLORER=https://be.explorer.vega.xyz/rest/
NX_BLOCK_EXPLORER=https://be.vega.community/rest
NX_ETHERSCAN_URL=https://etherscan.io
NX_VEGA_GOVERNANCE_URL=https://token.vega.xyz
NX_VEGA_GOVERNANCE_URL=https://governance.vega.xyz
NX_ANNOUNCEMENTS_CONFIG_URL=https://raw.githubusercontent.com/vegaprotocol/announcements/mainnet/announcements.json
NX_VEGA_EXPLORER_URL=https://explorer.vega.xyz/
NX_VEGA_EXPLORER_URL=https://explorer.vega.xyz/
NX_VEGA_CONSOLE_URL=https://console.vega.xyz
+13
View File
@@ -0,0 +1,13 @@
# App configuration variables
NX_TENDERMINT_URL=https://be.mainnet-mirror.vega.rocks
NX_TENDERMINT_WEBSOCKET_URL=wss://be.mainnet-mirror.vega.rocks/websocket
NX_SENTRY_DSN=https://4b8c8a8ba07742648aa4dfe1b8d17e40@o286262.ingest.sentry.io/5882996
NX_VEGA_CONFIG_URL=https://raw.githubusercontent.com/vegaprotocol/networks-internal/main/mainnet-mirror/vegawallet-mainnet-mirror.toml
NX_VEGA_URL=https://api.mainnet-mirror.vega.rocks/graphql
NX_VEGA_ENV=MAINNET_MIRROR
NX_BLOCK_EXPLORER=https://be.mainnet-mirror.vega.rocks/rest
NX_ETHERSCAN_URL=https://sepolia.etherscan.io
NX_VEGA_GOVERNANCE_URL=https://governance.mainnet-mirror.vega.rocks
NX_ANNOUNCEMENTS_CONFIG_URL=https://raw.githubusercontent.com/vegaprotocol/announcements/mainnet/announcements.json
NX_VEGA_EXPLORER_URL=https://explorer.mainnet-mirror.vega.rocks/
NX_VEGA_CONSOLE_URL=https://console.mainnet-mirror.vega.rocks
+2 -1
View File
@@ -1 +1,2 @@
# .env is stagnet1, so there are no overrides required
# .env is stagnet1, so there are no overrides required
NX_VEGA_NETWORKS='{"TESTNET":"https://explorer.fairground.wtf","MAINNET":"https://explorer.vega.xyz","STAGNET1":"https://stagnet1.explorer.vega.xyz"}'
+3 -2
View File
@@ -7,6 +7,7 @@ NX_VEGA_ENV=TESTNET
NX_VEGA_URL=https://api.n07.testnet.vega.xyz/graphql
NX_HOSTED_WALLET_URL=https://wallet.testnet.vega.xyz
NX_ETHERSCAN_URL=https://sepolia.etherscan.io
NX_VEGA_GOVERNANCE_URL=https://token.fairground.wtf
NX_VEGA_GOVERNANCE_URL=https://governance.fairground.wtf
NX_ANNOUNCEMENTS_CONFIG_URL=https://raw.githubusercontent.com/vegaprotocol/announcements/fairground/announcements.json
NX_VEGA_EXPLORER_URL=https://explorer.fairground.wtf
NX_VEGA_EXPLORER_URL=https://explorer.fairground.wtf
NX_VEGA_CONSOLE_URL=https://console.fairground.wtf
@@ -7,8 +7,9 @@ NX_ETHEREUM_PROVIDER_URL=https://sepolia.infura.io/v3/4f846e79e13f44d1b51bbd7ed9
NX_ETHERSCAN_URL=https://sepolia.etherscan.io
NX_ANNOUNCEMENTS_CONFIG_URL=https://raw.githubusercontent.com/vegaprotocol/announcements/fairground/announcements.json
NX_VEGA_GOVERNANCE_URL=https://validator-testnet.governance.vega.xyz
NX_TENDERMINT_URL=https://tm-be.validators-testnet.vega.rocks
NX_TENDERMINT_URL=https://tm.be.validators-testnet.vega.rocks
NX_BLOCK_EXPLORER=https://be.validators-testnet.vega.rocks/rest
NX_TENDERMINT_WEBSOCKET_URL=wss://be.validators-testnet.vega.xyz/websocket
NX_VEGA_EXPLORER_URL=https://validator-testnet.explorer.vega.xyz/
NX_VEGA_GOVERNANCE_URL=https://governance.validators-testnet.vega.rocks
NX_VEGA_EXPLORER_URL=https://explorer.validators-testnet.vega.rocks/
NX_VEGA_CONSOLE_URL=https://trading.validators-testnet.vega.rocks/
+2 -2
View File
@@ -1,6 +1,6 @@
{
"extends": ["plugin:@nrwl/nx/react", "../../.eslintrc.json"],
"ignorePatterns": ["!**/*", "__generated__", "__generated___"],
"extends": ["plugin:@nx/react", "../../.eslintrc.json"],
"ignorePatterns": ["!**/*", "__generated__"],
"overrides": [
{
"files": ["*.ts", "*.tsx", "*.js", "*.jsx"],
+2 -1
View File
@@ -32,6 +32,7 @@ yarn nx serve explorer
Example configurations are provided here:
- [Mainnet](./.env.mainnet)
- [Mainnet-mirror](./.env.mainnet-mirror)
- [Devnet](./.env.devnet)
- [Capsule](./.env.capsule)
- [Testnet](./.env.testnet)
@@ -39,7 +40,7 @@ Example configurations are provided here:
For convenience, you can boot the app injecting one of the configurations above by running:
```bash
yarn nx run explorer:serve --env={env} # e.g. stagnet1
yarn env-cmd -f .\apps\explorer\.env.{env} yarn nx run explorer:serve # e.g. stagnet1
```
There are a few different configuration options offered for this app:
+2 -2
View File
@@ -4,8 +4,8 @@ export default {
displayName: 'explorer',
preset: '../../jest.preset.js',
transform: {
'^(?!.*\\.(js|jsx|ts|tsx|css|json)$)': '@nrwl/react/plugins/jest',
'^.+\\.[tj]sx?$': 'babel-jest',
'^(?!.*\\.(js|jsx|ts|tsx|css|json)$)': '@nx/react/plugins/jest',
'^.+\\.[tj]sx?$': ['babel-jest', { presets: ['@nx/react/babel'] }],
},
moduleFileExtensions: ['ts', 'tsx', 'js', 'jsx'],
coverageDirectory: '../../coverage/apps/explorer',
+16 -9
View File
@@ -1,10 +1,11 @@
{
"name": "explorer",
"$schema": "../../node_modules/nx/schemas/project-schema.json",
"sourceRoot": "apps/explorer/src",
"projectType": "application",
"targets": {
"build": {
"executor": "./tools/executors/webpack:build",
"executor": "@nx/webpack:webpack",
"outputs": ["{options.outputPath}"],
"defaultConfiguration": "production",
"options": {
@@ -38,7 +39,7 @@
}
},
"serve": {
"executor": "./tools/executors/webpack:serve",
"executor": "@nx/webpack:dev-server",
"options": {
"port": 3000,
"buildTarget": "explorer:build:development",
@@ -52,30 +53,36 @@
}
},
"lint": {
"executor": "@nrwl/linter:eslint",
"executor": "@nx/linter:eslint",
"outputs": ["{options.outputFile}"],
"options": {
"lintFilePatterns": ["apps/explorer/**/*.{ts,tsx,js,jsx}"]
}
},
"test": {
"executor": "@nrwl/jest:jest",
"outputs": ["coverage/apps/explorer"],
"executor": "@nx/jest:jest",
"outputs": ["{workspaceRoot}/coverage/apps/explorer"],
"options": {
"jestConfig": "apps/explorer/jest.config.ts",
"passWithNoTests": true
},
"configurations": {
"ci": {
"ci": true,
"codeCoverage": true
}
}
},
"generate-types": {
"executor": "@nrwl/workspace:run-commands",
"executor": "nx:run-commands",
"options": {
"commands": [
"npx openapi-typescript https://raw.githubusercontent.com/vegaprotocol/documentation/main/specs/v0.67.3/blockexplorer.openapi.json --output apps/explorer/src/types/explorer.d.ts --immutable-types"
"npx openapi-typescript https://raw.githubusercontent.com/vegaprotocol/documentation/spec-update-v0.72.0-preview.2/specs/v0.72.0-preview.2/blockexplorer.openapi.json --output apps/explorer/src/types/explorer.d.ts --immutable-types"
]
}
},
"build-netlify": {
"executor": "@nrwl/workspace:run-commands",
"executor": "nx:run-commands",
"options": {
"commands": [
"cp apps/explorer/netlify.toml netlify.toml",
@@ -84,7 +91,7 @@
}
},
"build-spec": {
"executor": "@nrwl/workspace:run-commands",
"executor": "nx:run-commands",
"outputs": [],
"options": {
"command": "yarn tsc --project ./apps/explorer/tsconfig.spec.json"
+27 -2
View File
@@ -1,9 +1,19 @@
import { NetworkLoader, useInitializeEnv } from '@vegaprotocol/environment';
import {
AppFailure,
NetworkLoader,
NodeGuard,
NodeSwitcherDialog,
useEnvironment,
useInitializeEnv,
useNodeSwitcherStore,
} from '@vegaprotocol/environment';
import { TendermintWebsocketProvider } from './contexts/websocket/tendermint-websocket-provider';
import { Loader, Splash } from '@vegaprotocol/ui-toolkit';
import { DEFAULT_CACHE_CONFIG } from '@vegaprotocol/apollo-client';
import { RouterProvider } from 'react-router-dom';
import { router } from './routes/router-config';
import { t } from '@vegaprotocol/i18n';
import { Suspense } from 'react';
const splashLoading = (
<Splash>
@@ -12,10 +22,25 @@ const splashLoading = (
);
function App() {
const { VEGA_URL } = useEnvironment();
const [nodeSwitcherOpen, setNodeSwitcherOpen] = useNodeSwitcherStore(
(store) => [store.dialogOpen, store.setDialogOpen]
);
return (
<TendermintWebsocketProvider>
<NetworkLoader cache={DEFAULT_CACHE_CONFIG}>
<RouterProvider router={router} fallbackElement={splashLoading} />
<NodeGuard
skeleton={<div>{t('Loading')}</div>}
failure={<AppFailure title={t(`Node: ${VEGA_URL} is unsuitable`)} />}
>
<Suspense fallback={splashLoading}>
<RouterProvider router={router} fallbackElement={splashLoading} />
</Suspense>
</NodeGuard>
<NodeSwitcherDialog
open={nodeSwitcherOpen}
setOpen={setNodeSwitcherOpen}
/>
</NetworkLoader>
</TendermintWebsocketProvider>
);
@@ -1,15 +1,15 @@
import { useMemo } from 'react';
import type { AssetFieldsFragment } from '@vegaprotocol/assets';
import { AssetTypeMapping, AssetStatusMapping } from '@vegaprotocol/assets';
import { t } from '@vegaprotocol/i18n';
import { ButtonLink } from '@vegaprotocol/ui-toolkit';
import type { AgGridReact } from 'ag-grid-react';
import { AgGridColumn } from 'ag-grid-react';
import { AgGridLazy as AgGrid } from '@vegaprotocol/datagrid';
import type { VegaICellRendererParams } from '@vegaprotocol/datagrid';
import { useRef, useLayoutEffect } from 'react';
import { BREAKPOINT_MD } from '../../config/breakpoints';
import { useNavigate } from 'react-router-dom';
import type { RowClickedEvent } from 'ag-grid-community';
import type { RowClickedEvent, ColDef } from 'ag-grid-community';
type AssetsTableProps = {
data: AssetFieldsFragment[] | null;
@@ -31,6 +31,58 @@ export const AssetsTable = ({ data }: AssetsTableProps) => {
};
}, []);
const columnDefs = useMemo<ColDef[]>(
() => [
{ headerName: t('Symbol'), field: 'symbol' },
{ headerName: t('Name'), field: 'name' },
{
flex: 2,
headerName: t('ID'),
field: 'id',
hide: window.innerWidth < BREAKPOINT_MD,
},
{
colId: 'type',
headerName: t('Type'),
field: 'source.__typename',
hide: window.innerWidth < BREAKPOINT_MD,
valueFormatter: ({ value }: { value?: string }) =>
value ? AssetTypeMapping[value].value : '',
},
{
headerName: t('Status'),
field: 'status',
hide: window.innerWidth < BREAKPOINT_MD,
valueFormatter: ({ value }: { value?: string }) =>
value ? AssetStatusMapping[value].value : '',
},
{
colId: 'actions',
headerName: '',
sortable: false,
filter: false,
resizable: false,
wrapText: true,
field: 'id',
cellRenderer: ({
value,
}: VegaICellRendererParams<AssetFieldsFragment, 'id'>) =>
value ? (
<ButtonLink
onClick={(e) => {
navigate(value);
}}
>
{t('View details')}
</ButtonLink>
) : (
''
),
},
],
[navigate]
);
return (
<AgGrid
ref={ref}
@@ -46,60 +98,11 @@ export const AssetsTable = ({ data }: AssetsTableProps) => {
filterParams: { buttons: ['reset'] },
autoHeight: true,
}}
columnDefs={columnDefs}
suppressCellFocus={true}
onRowClicked={({ data }: RowClickedEvent) => {
navigate(data.id);
}}
>
<AgGridColumn headerName={t('Symbol')} field="symbol" />
<AgGridColumn headerName={t('Name')} field="name" />
<AgGridColumn
flex="2"
headerName={t('ID')}
field="id"
hide={window.innerWidth < BREAKPOINT_MD}
/>
<AgGridColumn
colId="type"
headerName={t('Type')}
field="source.__typename"
hide={window.innerWidth < BREAKPOINT_MD}
valueFormatter={({ value }: { value?: string }) =>
value && AssetTypeMapping[value].value
}
/>
<AgGridColumn
headerName={t('Status')}
field="status"
hide={window.innerWidth < BREAKPOINT_MD}
valueFormatter={({ value }: { value?: string }) =>
value && AssetStatusMapping[value].value
}
/>
<AgGridColumn
colId="actions"
headerName=""
sortable={false}
filter={false}
resizable={false}
wrapText={true}
field="id"
cellRenderer={({
value,
}: VegaICellRendererParams<AssetFieldsFragment, 'id'>) =>
value ? (
<ButtonLink
onClick={(e) => {
navigate(value);
}}
>
{t('View details')}
</ButtonLink>
) : (
''
)
}
/>
</AgGrid>
/>
);
};
@@ -1,29 +1,13 @@
import WS from 'jest-websocket-mock';
import useWebSocket from 'react-use-websocket';
import {
render,
screen,
fireEvent,
act,
waitFor,
} from '@testing-library/react';
import { TendermintWebsocketContext } from '../../contexts/websocket/tendermint-websocket-context';
import { render, screen } from '@testing-library/react';
import { BlocksRefetch } from './blocks-refetch';
const BlocksRefetchInWebsocketProvider = ({
callback,
mocketLocation,
}: {
callback: () => null;
mocketLocation: string;
}) => {
const contextShape = useWebSocket(mocketLocation);
return (
<TendermintWebsocketContext.Provider value={{ ...contextShape }}>
<BlocksRefetch refetch={callback} />
</TendermintWebsocketContext.Provider>
);
return <BlocksRefetch refetch={callback} />;
};
describe('Blocks refetch', () => {
@@ -32,111 +16,8 @@ describe('Blocks refetch', () => {
const mocket = new WS(mocketLocation, { jsonProtocol: true });
new WebSocket(mocketLocation);
render(
<BlocksRefetchInWebsocketProvider
callback={() => null}
mocketLocation={mocketLocation}
/>
);
await mocket.connected;
expect(screen.getByTestId('new-blocks')).toHaveTextContent('new blocks');
render(<BlocksRefetchInWebsocketProvider callback={() => null} />);
expect(screen.getByTestId('refresh')).toBeInTheDocument();
mocket.close();
});
it('should initiate callback when the button is clicked', async () => {
const mocketLocation = 'wss:localhost:3003';
const mocket = new WS(mocketLocation, { jsonProtocol: true });
new WebSocket(mocketLocation);
const callback = jest.fn();
render(
<BlocksRefetchInWebsocketProvider
callback={callback}
mocketLocation={mocketLocation}
/>
);
await mocket.connected;
const button = screen.getByTestId('refresh');
act(() => {
fireEvent.click(button);
});
expect(callback.mock.calls.length).toEqual(1);
mocket.close();
});
it('should show new blocks as websocket is correctly updated', async () => {
const mocketLocation = 'wss:localhost:3004';
const mocket = new WS(mocketLocation, { jsonProtocol: true });
new WebSocket(mocketLocation);
render(
<BlocksRefetchInWebsocketProvider
callback={() => null}
mocketLocation={mocketLocation}
/>
);
await mocket.connected;
// Ensuring we send an ID equal to the one the client subscribed with.
await waitFor(() => expect(mocket.messages.length).toEqual(1));
// @ts-ignore id on messages
const id = mocket.messages[0].id;
const newBlockMessage = {
id,
result: {
query: "tm.event = 'NewBlock'",
},
};
expect(screen.getByTestId('new-blocks')).toHaveTextContent('0 new blocks');
act(() => {
mocket.send(newBlockMessage);
});
expect(screen.getByTestId('new-blocks')).toHaveTextContent('1 new blocks');
act(() => {
mocket.send(newBlockMessage);
});
expect(screen.getByTestId('new-blocks')).toHaveTextContent('2 new blocks');
mocket.close();
});
it('will not show new blocks if websocket has wrong ID', async () => {
const mocketLocation = 'wss:localhost:3005';
const mocket = new WS(mocketLocation, { jsonProtocol: true });
new WebSocket(mocketLocation);
render(
<BlocksRefetchInWebsocketProvider
callback={() => null}
mocketLocation={mocketLocation}
/>
);
await mocket.connected;
// Ensuring we send an ID equal to the one the client subscribed with.
await waitFor(() => expect(mocket.messages.length).toEqual(1));
const newBlockMessageBadId = {
id: 'blahblahblah',
result: {
query: "tm.event = 'NewBlock'",
},
};
expect(screen.getByTestId('new-blocks')).toHaveTextContent('0 new blocks');
act(() => {
mocket.send(newBlockMessageBadId);
});
expect(screen.getByTestId('new-blocks')).toHaveTextContent('0 new blocks');
mocket.close();
});
});
@@ -1,36 +1,19 @@
import { useState, useEffect } from 'react';
import { useTendermintWebsocket } from '../../hooks/use-tendermint-websocket';
import { t } from '@vegaprotocol/i18n';
import { ButtonLink } from '@vegaprotocol/ui-toolkit';
import { Button, Icon } from '@vegaprotocol/ui-toolkit';
interface BlocksRefetchProps {
refetch: () => void;
}
export const BlocksRefetch = ({ refetch }: BlocksRefetchProps) => {
const [blocksToLoad, setBlocksToLoad] = useState<number>(0);
const { messages } = useTendermintWebsocket({
query: "tm.event = 'NewBlock'",
});
useEffect(() => {
if (messages.length > 0) {
setBlocksToLoad((prev) => prev + 1);
}
}, [messages]);
const refresh = () => {
refetch();
setBlocksToLoad(0);
};
return (
<div className="mb-4">
<span data-testid="new-blocks">{blocksToLoad} new blocks - </span>
<ButtonLink onClick={refresh} data-testid="refresh">
{t('refresh to see latest')}
</ButtonLink>
</div>
<Button onClick={refresh} data-testid="refresh" size="xs">
<Icon name="refresh" className="!align-baseline mr-2" size={3} />
{t('Load new')}
</Button>
);
};
@@ -1,13 +1,21 @@
import { NodeSwitcherDialog, useEnvironment } from '@vegaprotocol/environment';
import {
useEnvironment,
useNodeSwitcherStore,
} from '@vegaprotocol/environment';
import { t } from '@vegaprotocol/i18n';
import { useScreenDimensions } from '@vegaprotocol/react-helpers';
import { ExternalLink, Link } from '@vegaprotocol/ui-toolkit';
import { useMemo, useState } from 'react';
import { Link, ExternalLink } from '@vegaprotocol/ui-toolkit';
import { useMemo } from 'react';
import { ENV } from '../../config/env';
import { Routes } from '../../routes/route-names';
import { Link as RouteLink } from 'react-router-dom';
export const Footer = () => {
const { VEGA_URL, GIT_COMMIT_HASH, GIT_ORIGIN_URL } = useEnvironment();
const [nodeSwitcherOpen, setNodeSwitcherOpen] = useState(false);
const setNodeSwitcherOpen = useNodeSwitcherStore(
(store) => store.setDialogOpen
);
const { screenSize } = useScreenDimensions();
const showFullFeedbackLabel = useMemo(
() => ['md', 'lg', 'xl', 'xxl', 'xxxl'].includes(screenSize),
@@ -15,56 +23,59 @@ export const Footer = () => {
);
return (
<>
<footer className="grid grid-rows-2 grid-cols-[1fr_auto] text-xs md:text-md md:flex md:col-span-2 px-4 py-2 gap-4 border-t border-vega-light-200 dark:border-vega-dark-200">
<div className="flex justify-between gap-2 align-middle">
{GIT_COMMIT_HASH && (
<div className="content-center flex border-r border-neutral-700 dark:border-neutral-300 pr-4">
<p data-testid="git-commit-hash">
{t('Version')}:{' '}
<Link
href={
GIT_ORIGIN_URL
? `${GIT_ORIGIN_URL}/commit/${GIT_COMMIT_HASH}`
: undefined
}
target={GIT_ORIGIN_URL ? '_blank' : undefined}
>
{GIT_COMMIT_HASH}
</Link>
</p>
</div>
)}
<div className="content-center flex pl-2 md:border-r border-neutral-700 dark:border-neutral-300 pr-4">
{VEGA_URL && <NodeUrl url={VEGA_URL} />}
<Link className="ml-2" onClick={() => setNodeSwitcherOpen(true)}>
{t('Change')}
</Link>
<footer className="grid grid-cols-[1fr_auto] items-center text-xs md:text-md lg:flex md:col-span-2 px-4 pt-2 pb-3 gap-4 border-t border-vega-light-200 dark:border-vega-dark-200">
<div className="flex justify-between gap-2 align-middle">
{GIT_COMMIT_HASH && (
<div className="content-center flex border-r border-neutral-700 dark:border-neutral-300 pr-4">
<p data-testid="git-commit-hash">
{t('Version')}:{' '}
<Link
href={
GIT_ORIGIN_URL
? `${GIT_ORIGIN_URL}/commit/${GIT_COMMIT_HASH}`
: undefined
}
target={GIT_ORIGIN_URL ? '_blank' : undefined}
>
{GIT_COMMIT_HASH}
</Link>
</p>
</div>
)}
<div className="content-center flex pr-4 md:border-r border-neutral-700 dark:border-neutral-300">
<span className="pr-2">{VEGA_URL && <NodeUrl url={VEGA_URL} />}</span>
<Link
className="ml-2 underline-offset-4"
onClick={() => setNodeSwitcherOpen(true)}
>
{t('Change')}
</Link>
</div>
{ENV.addresses.feedback ? (
<div className="flex pl-2 content-center">
<ExternalLink href={ENV.addresses.feedback}>
{showFullFeedbackLabel ? t('Share your feedback') : t('Feedback')}
</ExternalLink>
</div>
</div>
</footer>
<NodeSwitcherDialog
open={nodeSwitcherOpen}
setOpen={setNodeSwitcherOpen}
/>
</>
) : null}
</div>
<div className="pl-2 align-center lg:align-right lg:flex lg:justify-end gap-2 align-middle lg:max-w-xs lg:ml-auto">
<RouteLink
to={`/${Routes.DISCLAIMER}`}
className="underline underline-offset-4"
>
Disclaimer
</RouteLink>
</div>
</footer>
);
};
const NodeUrl = ({ url }: { url: string }) => {
export const NodeUrl = ({ url }: { url: string }) => {
// get base url from api url, api sub domain
const urlObj = new URL(url);
const nodeUrl = urlObj.origin.replace(/^[^.]+\./g, '');
return (
<Link href={'https://' + nodeUrl} target="_blank">
{nodeUrl}
</Link>
);
return <span className="cursor-default">{nodeUrl}</span>;
};
@@ -3,6 +3,7 @@ import { Header } from './header';
import { MemoryRouter } from 'react-router-dom';
jest.mock('@vegaprotocol/environment', () => ({
...jest.requireActual('@vegaprotocol/environment'),
NetworkSwitcher: () => (
<div data-testid="network-switcher">NetworkSwitcher</div>
),
@@ -95,7 +95,10 @@ export const Header = () => {
{mainItems.map(routeToNavigationItem)}
{groupedItems && groupedItems.length > 0 && (
<NavigationItem>
<NavigationTrigger isActive={Boolean(isOnOther)}>
<NavigationTrigger
isActive={Boolean(isOnOther)}
data-testid="other"
>
{t('Other')}
</NavigationTrigger>
<NavigationContent>
@@ -1,5 +1,4 @@
import { Icon, Tooltip } from '@vegaprotocol/ui-toolkit';
import React from 'react';
export interface InfoBlockProps {
title: string;
@@ -1,33 +1,98 @@
import { render } from '@testing-library/react';
import { MemoryRouter } from 'react-router-dom';
import PartyLink from './party-link';
import { MockedProvider } from '@apollo/client/testing';
import { ExplorerNodeNamesDocument } from '../../../routes/validators/__generated__/NodeNames';
import { act } from 'react-dom/test-utils';
const zeroes =
'0000000000000000000000000000000000000000000000000000000000000000';
const mocks = [
{
request: {
query: ExplorerNodeNamesDocument,
},
result: {
data: {
nodesConnection: {
edges: [
{
node: {
id: '1',
name: 'Validator Node',
pubkey:
'13464e35bcb8e8a2900ca0f87acaf252d50cf2ab2fc73694845a16b7c8a0dc6e',
tmPubkey: 'tmPubkey1',
ethereumAddress: '0x123456789',
},
},
{
node: {
id: '2',
name: 'Node 2',
pubkey: 'pubkey2',
tmPubkey: 'tmPubkey2',
ethereumAddress: '0xabcdef123',
},
},
],
},
},
},
},
];
describe('PartyLink', () => {
it('renders Network for 000.000 party', () => {
const zeroes =
'0000000000000000000000000000000000000000000000000000000000000000';
const screen = render(<PartyLink id={zeroes} />);
const screen = render(
<MockedProvider>
<PartyLink id={zeroes} />
</MockedProvider>
);
expect(screen.getByText('Network')).toBeInTheDocument();
});
it('renders Network for network party', () => {
const screen = render(<PartyLink id="network" />);
const screen = render(
<MockedProvider>
<PartyLink id="network" />
</MockedProvider>
);
expect(screen.getByText('Network')).toBeInTheDocument();
});
it('renders ID with no link for invalid party', () => {
const screen = render(<PartyLink id="this-party-is-not-valid" />);
const screen = render(
<MockedProvider>
<PartyLink id="this-party-is-not-valid" />
</MockedProvider>
);
expect(screen.getByTestId('invalid-party')).toBeInTheDocument();
});
it('if the key is a validator, render their name instead', async () => {
const screen = render(
<MockedProvider mocks={mocks}>
<MemoryRouter>
<PartyLink id="13464e35bcb8e8a2900ca0f87acaf252d50cf2ab2fc73694845a16b7c8a0dc6e" />
</MemoryRouter>
</MockedProvider>
);
// Wait for hook to update with mock data
await act(() => new Promise((resolve) => setTimeout(resolve, 0)));
await expect(screen.getByText('Validator Node')).toBeInTheDocument();
});
it('links a valid party to the party page', () => {
const aValidParty =
'13464e35bcb8e8a2900ca0f87acaf252d50cf2ab2fc73694845a16b7c8a0dc6e';
const screen = render(
<MemoryRouter>
<PartyLink id={aValidParty} />
</MemoryRouter>
<MockedProvider>
<MemoryRouter>
<PartyLink id={aValidParty} />
</MemoryRouter>
</MockedProvider>
);
const el = screen.getByText(aValidParty);
@@ -1,22 +1,44 @@
import { Routes } from '../../../routes/route-names';
import { Link } from 'react-router-dom';
import type { ComponentProps } from 'react';
import { useMemo, type ComponentProps } from 'react';
import Hash from '../hash';
import { t } from '@vegaprotocol/i18n';
import { isValidPartyId } from '../../../routes/parties/id/components/party-id-error';
import { truncateMiddle } from '@vegaprotocol/ui-toolkit';
import { Icon, truncateMiddle } from '@vegaprotocol/ui-toolkit';
import { useExplorerNodeNamesQuery } from '../../../routes/validators/__generated__/NodeNames';
import type { ExplorerNodeNamesQuery } from '../../../routes/validators/__generated__/NodeNames';
export const SPECIAL_CASE_NETWORK_ID =
'0000000000000000000000000000000000000000000000000000000000000000';
export const SPECIAL_CASE_NETWORK = 'network';
export function getNameForParty(id: string, data?: ExplorerNodeNamesQuery) {
if (!data || data?.nodesConnection?.edges?.length === 0) {
return id;
}
const validator = data.nodesConnection.edges?.find((e) => {
return e?.node.pubkey === id;
});
if (validator) {
return validator.node.name;
}
return id;
}
export type PartyLinkProps = Partial<ComponentProps<typeof Link>> & {
id: string;
truncate?: boolean;
};
const PartyLink = ({ id, truncate = false, ...props }: PartyLinkProps) => {
const { data } = useExplorerNodeNamesQuery();
const name = useMemo(() => getNameForParty(id, data), [data, id]);
const useName = name !== id;
// Some transactions will involve the 'network' party, which is alias for '000...000'
// The party page does not handle this nicely, so in this case we render the word 'Network'
if (id === SPECIAL_CASE_NETWORK || id === SPECIAL_CASE_NETWORK_ID) {
@@ -38,13 +60,20 @@ const PartyLink = ({ id, truncate = false, ...props }: PartyLinkProps) => {
}
return (
<Link
className="underline font-mono"
{...props}
to={`/${Routes.PARTIES}/${id}`}
>
<Hash text={truncate ? truncateMiddle(id) : id} />
</Link>
<span className="whitespace-nowrap">
{useName && <Icon size={4} name="cube" className="mr-2" />}
<Link
className="underline font-mono"
{...props}
to={`/${Routes.PARTIES}/${id}`}
>
{useName ? (
name
) : (
<Hash text={truncate ? truncateMiddle(id, 4, 4) : id} />
)}
</Link>
</span>
);
};
@@ -1,8 +1,12 @@
import { t } from '@vegaprotocol/i18n';
import type { MarketInfoWithData } from '@vegaprotocol/market-info';
import { LiquidityInfoPanel } from '@vegaprotocol/market-info';
import { LiquidityMonitoringParametersInfoPanel } from '@vegaprotocol/market-info';
import type { MarketInfoWithData } from '@vegaprotocol/markets';
import {
PriceMonitoringBoundsInfoPanel,
SuccessionLineInfoPanel,
} from '@vegaprotocol/markets';
import {
LiquidityInfoPanel,
LiquidityMonitoringParametersInfoPanel,
InstrumentInfoPanel,
KeyDetailsInfoPanel,
LiquidityPriceRangeInfoPanel,
@@ -12,20 +16,18 @@ import {
RiskModelInfoPanel,
RiskParametersInfoPanel,
SettlementAssetInfoPanel,
} from '@vegaprotocol/market-info';
import { MarketInfoTable } from '@vegaprotocol/market-info';
} from '@vegaprotocol/markets';
import { MarketInfoTable } from '@vegaprotocol/markets';
import type { DataSourceDefinition } from '@vegaprotocol/types';
import isEqual from 'lodash/isEqual';
export const MarketDetails = ({ market }: { market: MarketInfoWithData }) => {
if (!market) return null;
const settlementData =
market.tradableInstrument.instrument.product.dataSourceSpecForSettlementData
.data;
const terminationData =
market.tradableInstrument.instrument.product
.dataSourceSpecForTradingTermination.data;
const settlementData = market.tradableInstrument.instrument.product
.dataSourceSpecForSettlementData.data as DataSourceDefinition;
const terminationData = market.tradableInstrument.instrument.product
.dataSourceSpecForTradingTermination.data as DataSourceDefinition;
const getSigners = (data: DataSourceDefinition) => {
if (data.sourceType.__typename === 'DataSourceDefinitionExternal') {
@@ -41,133 +43,71 @@ export const MarketDetails = ({ market }: { market: MarketInfoWithData }) => {
return [];
};
const oraclePanels = isEqual(
const showTwoOracles = isEqual(
getSigners(settlementData),
getSigners(terminationData)
)
? [
{
title: t('Settlement Oracle'),
content: (
<OracleInfoPanel
noBorder={false}
market={market}
type="settlementData"
/>
),
},
{
title: t('Termination Oracle'),
content: (
<OracleInfoPanel
noBorder={false}
market={market}
type="termination"
/>
),
},
]
: [
{
title: t('Oracle'),
content: (
<OracleInfoPanel
noBorder={false}
market={market}
type="settlementData"
/>
),
},
];
);
const panels = [
{
title: t('Key details'),
content: <KeyDetailsInfoPanel noBorder={false} market={market} />,
},
{
title: t('Instrument'),
content: <InstrumentInfoPanel noBorder={false} market={market} />,
},
{
title: t('Settlement asset'),
content: <SettlementAssetInfoPanel market={market} noBorder={false} />,
},
{
title: t('Metadata'),
content: <MetadataInfoPanel noBorder={false} market={market} />,
},
{
title: t('Risk model'),
content: <RiskModelInfoPanel noBorder={false} market={market} />,
},
{
title: t('Risk parameters'),
content: <RiskParametersInfoPanel noBorder={false} market={market} />,
},
{
title: t('Risk factors'),
content: <RiskFactorsInfoPanel noBorder={false} market={market} />,
},
...(market.priceMonitoringSettings?.parameters?.triggers || []).map(
(trigger, i) => ({
title: t(`Price monitoring trigger ${i + 1}`),
content: <MarketInfoTable noBorder={false} data={trigger} />,
})
),
...(market.data?.priceMonitoringBounds || []).map((trigger, i) => ({
title: t(`Price monitoring bound ${i + 1}`),
content: (
<>
<MarketInfoTable
noBorder={false}
data={{
maxValidPrice: trigger.maxValidPrice,
minValidPrice: trigger.minValidPrice,
}}
decimalPlaces={market.decimalPlaces}
/>
<MarketInfoTable
noBorder={false}
data={{ referencePrice: trigger.referencePrice }}
decimalPlaces={
market.tradableInstrument.instrument.product.settlementAsset
.decimals
}
/>
</>
),
})),
{
title: t('Liquidity monitoring parameters'),
content: (
<LiquidityMonitoringParametersInfoPanel
noBorder={false}
market={market}
/>
),
},
{
title: t('Liquidity'),
content: <LiquidityInfoPanel market={market} noBorder={false} />,
},
{
title: t('Liquidity price range'),
content: (
<LiquidityPriceRangeInfoPanel market={market} noBorder={false} />
),
},
...oraclePanels,
];
const headerClassName = 'font-alpha calt text-xl mt-4 border-b-2 pb-2';
return (
<>
{panels.map((p) => (
<div key={p.title} className="mb-3">
<h2 className="font-alpha calt text-xl">{p.title}</h2>
{p.content}
</div>
<div>
<h2 className={headerClassName}>{t('Key details')}</h2>
<KeyDetailsInfoPanel market={market} />
<h2 className={headerClassName}>{t('Instrument')}</h2>
<InstrumentInfoPanel market={market} />
<h2 className={headerClassName}>{t('Settlement asset')}</h2>
<SettlementAssetInfoPanel market={market} />
<h2 className={headerClassName}>{t('Metadata')}</h2>
<MetadataInfoPanel market={market} />
<h2 className={headerClassName}>{t('Risk model')}</h2>
<RiskModelInfoPanel market={market} />
<h2 className={headerClassName}>{t('Risk parameters')}</h2>
<RiskParametersInfoPanel market={market} />
<h2 className={headerClassName}>{t('Risk factors')}</h2>
<RiskFactorsInfoPanel market={market} />
{(market.data?.priceMonitoringBounds || []).map((trigger, i) => (
<>
<h2 className={headerClassName}>
{t('Price monitoring bounds %s', [(i + 1).toString()])}
</h2>
<PriceMonitoringBoundsInfoPanel
market={market}
triggerIndex={i + 1}
/>
</>
))}
</>
{(market.priceMonitoringSettings?.parameters?.triggers || []).map(
(trigger, i) => (
<>
<h2 className={headerClassName}>
{t('Price monitoring settings %s', [(i + 1).toString()])}
</h2>
<MarketInfoTable data={trigger} key={i} />
</>
)
)}
<h2 className={headerClassName}>{t('Liquidity monitoring')}</h2>
<LiquidityMonitoringParametersInfoPanel market={market} />
<h2 className={headerClassName}>{t('Liquidity')}</h2>
<LiquidityInfoPanel market={market} />
<h2 className={headerClassName}>{t('Liquidity price range')}</h2>
<LiquidityPriceRangeInfoPanel market={market} />
{showTwoOracles ? (
<>
<h2 className={headerClassName}>{t('Settlement oracle')}</h2>
<OracleInfoPanel market={market} type="settlementData" />
<h2 className={headerClassName}>{t('Termination oracle')}</h2>
<OracleInfoPanel market={market} type="termination" />
</>
) : (
<>
<h2 className={headerClassName}>{t('Oracle')}</h2>
<OracleInfoPanel market={market} type="settlementData" />
</>
)}
<h2 className={`${headerClassName} mb-4`}>{t('Succession line')}</h2>
<SuccessionLineInfoPanel market={market} />
</div>
);
};
@@ -1,8 +1,9 @@
import type { MarketFieldsFragment } from '@vegaprotocol/market-list';
import { useMemo } from 'react';
import type { MarketFieldsFragment } from '@vegaprotocol/markets';
import { t } from '@vegaprotocol/i18n';
import { ButtonLink } from '@vegaprotocol/ui-toolkit';
import type { AgGridReact } from 'ag-grid-react';
import { AgGridColumn } from 'ag-grid-react';
import type { ColDef } from 'ag-grid-community';
import { AgGridLazy as AgGrid } from '@vegaprotocol/datagrid';
import type {
VegaICellRendererParams,
@@ -39,6 +40,79 @@ export const MarketsTable = ({ data }: MarketsTableProps) => {
};
}, []);
const columnDefs = useMemo<ColDef[]>(
() => [
{
colId: 'code',
headerName: t('Code'),
field: 'tradableInstrument.instrument.code',
},
{
colId: 'name',
headerName: t('Name'),
field: 'tradableInstrument.instrument.name',
},
{
headerName: t('Status'),
field: 'state',
hide: window.innerWidth <= BREAKPOINT_MD,
valueGetter: ({
data,
}: VegaValueGetterParams<MarketFieldsFragment>) => {
return data?.state ? MarketStateMapping[data?.state] : '-';
},
},
{
colId: 'asset',
headerName: t('Settlement asset'),
field: 'tradableInstrument.instrument.product.settlementAsset.symbol',
hide: window.innerWidth <= BREAKPOINT_MD,
cellRenderer: ({
data,
}: VegaICellRendererParams<
MarketFieldsFragment,
'tradableInstrument.instrument.product.settlementAsset.symbol'
>) => {
const value =
data?.tradableInstrument.instrument.product.settlementAsset;
return value ? (
<ButtonLink
onClick={(e) => {
openAssetDetailsDialog(value.id, e.target as HTMLElement);
}}
>
{value.symbol}
</ButtonLink>
) : (
''
);
},
},
{
flex: 2,
headerName: t('Market ID'),
field: 'id',
hide: window.innerWidth <= BREAKPOINT_MD,
},
{
colId: 'actions',
headerName: '',
field: 'id',
cellRenderer: ({
value,
}: VegaICellRendererParams<MarketFieldsFragment, 'id'>) =>
value ? (
<Link className="underline" to={value}>
{t('View details')}
</Link>
) : (
''
),
},
],
[openAssetDetailsDialog]
);
return (
<AgGrid
ref={gridRef}
@@ -54,79 +128,13 @@ export const MarketsTable = ({ data }: MarketsTableProps) => {
filterParams: { buttons: ['reset'] },
autoHeight: true,
}}
columnDefs={columnDefs}
suppressCellFocus={true}
onRowClicked={({ data, event }: RowClickedEvent) => {
if ((event?.target as HTMLElement).tagName.toUpperCase() !== 'BUTTON') {
navigate(data.id);
}
}}
>
<AgGridColumn
colId="code"
headerName={t('Code')}
field="tradableInstrument.instrument.code"
/>
<AgGridColumn
colId="name"
headerName={t('Name')}
field="tradableInstrument.instrument.name"
/>
<AgGridColumn
headerName={t('Status')}
field="state"
hide={window.innerWidth <= BREAKPOINT_MD}
valueGetter={({
data,
}: VegaValueGetterParams<MarketFieldsFragment, 'state'>) => {
return data?.state ? MarketStateMapping[data?.state] : '-';
}}
/>
<AgGridColumn
colId="asset"
headerName={t('Settlement asset')}
field="tradableInstrument.instrument.product.settlementAsset"
hide={window.innerWidth <= BREAKPOINT_MD}
cellRenderer={({
value,
}: VegaICellRendererParams<
MarketFieldsFragment,
'tradableInstrument.instrument.product.settlementAsset'
>) =>
value ? (
<ButtonLink
onClick={(e) => {
openAssetDetailsDialog(value.id, e.target as HTMLElement);
}}
>
{value.symbol}
</ButtonLink>
) : (
''
)
}
/>
<AgGridColumn
flex={2}
headerName={t('Market ID')}
field="id"
hide={window.innerWidth <= BREAKPOINT_MD}
/>
<AgGridColumn
colId="actions"
headerName=""
field="id"
cellRenderer={({
value,
}: VegaICellRendererParams<MarketFieldsFragment, 'id'>) =>
value ? (
<Link className="underline" to={value}>
{t('View details')}
</Link>
) : (
''
)
}
/>
</AgGrid>
/>
);
};
@@ -13,6 +13,10 @@ fragment ExplorerDeterministicOrderFields on Order {
remaining
size
rejectionReason
peggedOrder {
reference
offset
}
party {
id
}
@@ -3,7 +3,7 @@ import * as Types from '@vegaprotocol/types';
import { gql } from '@apollo/client';
import * as Apollo from '@apollo/client';
const defaultOptions = {} as const;
export type ExplorerDeterministicOrderFieldsFragment = { __typename?: 'Order', id: string, type?: Types.OrderType | null, reference: string, status: Types.OrderStatus, version: string, createdAt: any, updatedAt?: any | null, expiresAt?: any | null, timeInForce: Types.OrderTimeInForce, price: string, side: Types.Side, remaining: string, size: string, rejectionReason?: Types.OrderRejectionReason | null, party: { __typename?: 'Party', id: string }, market: { __typename?: 'Market', id: string, decimalPlaces: number, positionDecimalPlaces: number, state: Types.MarketState, tradableInstrument: { __typename?: 'TradableInstrument', instrument: { __typename?: 'Instrument', name: string, product: { __typename?: 'Future', quoteName: string } } } } };
export type ExplorerDeterministicOrderFieldsFragment = { __typename?: 'Order', id: string, type?: Types.OrderType | null, reference: string, status: Types.OrderStatus, version: string, createdAt: any, updatedAt?: any | null, expiresAt?: any | null, timeInForce: Types.OrderTimeInForce, price: string, side: Types.Side, remaining: string, size: string, rejectionReason?: Types.OrderRejectionReason | null, peggedOrder?: { __typename?: 'PeggedOrder', reference: Types.PeggedReference, offset: string } | null, party: { __typename?: 'Party', id: string }, market: { __typename?: 'Market', id: string, decimalPlaces: number, positionDecimalPlaces: number, state: Types.MarketState, tradableInstrument: { __typename?: 'TradableInstrument', instrument: { __typename?: 'Instrument', name: string, product: { __typename?: 'Future', quoteName: string } } } } };
export type ExplorerDeterministicOrderQueryVariables = Types.Exact<{
orderId: Types.Scalars['ID'];
@@ -11,7 +11,7 @@ export type ExplorerDeterministicOrderQueryVariables = Types.Exact<{
}>;
export type ExplorerDeterministicOrderQuery = { __typename?: 'Query', orderByID: { __typename?: 'Order', id: string, type?: Types.OrderType | null, reference: string, status: Types.OrderStatus, version: string, createdAt: any, updatedAt?: any | null, expiresAt?: any | null, timeInForce: Types.OrderTimeInForce, price: string, side: Types.Side, remaining: string, size: string, rejectionReason?: Types.OrderRejectionReason | null, party: { __typename?: 'Party', id: string }, market: { __typename?: 'Market', id: string, decimalPlaces: number, positionDecimalPlaces: number, state: Types.MarketState, tradableInstrument: { __typename?: 'TradableInstrument', instrument: { __typename?: 'Instrument', name: string, product: { __typename?: 'Future', quoteName: string } } } } } };
export type ExplorerDeterministicOrderQuery = { __typename?: 'Query', orderByID: { __typename?: 'Order', id: string, type?: Types.OrderType | null, reference: string, status: Types.OrderStatus, version: string, createdAt: any, updatedAt?: any | null, expiresAt?: any | null, timeInForce: Types.OrderTimeInForce, price: string, side: Types.Side, remaining: string, size: string, rejectionReason?: Types.OrderRejectionReason | null, peggedOrder?: { __typename?: 'PeggedOrder', reference: Types.PeggedReference, offset: string } | null, party: { __typename?: 'Party', id: string }, market: { __typename?: 'Market', id: string, decimalPlaces: number, positionDecimalPlaces: number, state: Types.MarketState, tradableInstrument: { __typename?: 'TradableInstrument', instrument: { __typename?: 'Instrument', name: string, product: { __typename?: 'Future', quoteName: string } } } } } };
export const ExplorerDeterministicOrderFieldsFragmentDoc = gql`
fragment ExplorerDeterministicOrderFields on Order {
@@ -29,6 +29,10 @@ export const ExplorerDeterministicOrderFieldsFragmentDoc = gql`
remaining
size
rejectionReason
peggedOrder {
reference
offset
}
party {
id
}
@@ -12,7 +12,7 @@ type Amend = components['schemas']['v1OrderAmendment'];
function renderAmendOrderDetails(
id: string,
version: number,
version: number | undefined,
amend: Amend,
mocks: MockedResponse[]
) {
@@ -25,7 +25,11 @@ function renderAmendOrderDetails(
);
}
function renderExistingAmend(id: string, version: number, amend: Amend) {
function renderExistingAmend(
id: string,
version: number | undefined,
amend: Amend
) {
const mocks = [
{
request: {
@@ -49,6 +53,7 @@ function renderExistingAmend(id: string, version: number, amend: Amend) {
timeInForce: Schema.OrderTimeInForce.TIME_IN_FORCE_GTC,
price: '200',
side: 'BUY',
peggedOrder: null,
remaining: '99',
rejectionReason: 'rejection',
reference: '123',
@@ -77,6 +82,56 @@ function renderExistingAmend(id: string, version: number, amend: Amend) {
},
},
},
{
request: {
query: ExplorerDeterministicOrderDocument,
variables: {
orderId: '123',
},
},
result: {
data: {
orderByID: {
__typename: 'Order',
id: '123',
type: 'GTT',
status: Schema.OrderStatus.STATUS_ACTIVE,
version: 100,
createdAt: '123',
updatedAt: '456',
expiresAt: '789',
timeInForce: Schema.OrderTimeInForce.TIME_IN_FORCE_GTC,
peggedOrder: null,
price: '200',
side: 'BUY',
remaining: '99',
rejectionReason: 'rejection',
reference: '123',
size: '200',
party: {
__typename: 'Party',
id: '234',
},
market: {
__typename: 'Market',
id: 'amend-to-order-latest-version',
state: 'STATUS_ACTIVE',
positionDecimalPlaces: 2,
decimalPlaces: '5',
tradableInstrument: {
instrument: {
name: 'amend-to-order-latest-version-test',
product: {
__typename: 'Future',
quoteName: '123',
},
},
},
},
},
},
},
},
{
request: {
query: ExplorerMarketDocument,
@@ -157,4 +212,15 @@ describe('Amend order details', () => {
expect(await res.findByText('New price')).toBeInTheDocument();
expect(await res.findByText('-7879')).toBeInTheDocument();
});
it('Fetches latest version when version is not specified', async () => {
const amend: Amend = {
price: '-7879',
};
const res = renderExistingAmend('123', undefined, amend);
expect(
await res.findByText('amend-to-order-latest-version')
).toBeInTheDocument();
});
});
@@ -12,7 +12,7 @@ import { wrapperClasses } from './deterministic-order-details';
export interface AmendOrderDetailsProps {
id: string;
amend: components['schemas']['v1OrderAmendment'];
// Version to fetch, with 0 being 'latest' and 1 being 'first'. Defaults to 0
// Version to fetch. Latest is provided by default
version?: number;
}
@@ -34,13 +34,11 @@ export function getSideDeltaColour(delta: string): string {
* @param param0
* @returns
*/
const AmendOrderDetails = ({
id,
version = 0,
amend,
}: AmendOrderDetailsProps) => {
const AmendOrderDetails = ({ id, version, amend }: AmendOrderDetailsProps) => {
const variables = version ? { orderId: id, version } : { orderId: id };
const { data, error } = useExplorerDeterministicOrderQuery({
variables: { orderId: id, version },
variables,
});
if (error || (data && !data.orderByID)) {
@@ -5,6 +5,7 @@ import PriceInMarket from '../price-in-market/price-in-market';
import { Time } from '../time';
import { sideText, statusText, tifFull, tifShort } from './lib/order-labels';
import SizeInMarket from '../size-in-market/size-in-market';
import { TxOrderPeggedReference } from '../txs/details/order/tx-order-peg';
export interface DeterministicOrderDetailsProps {
id: string;
@@ -68,25 +69,35 @@ const DeterministicOrderDetails = ({
<span className="mx-5 text-base">@</span>
<PriceInMarket price={o.price} marketId={o.market.id} />
</h2>
<p className="text-gray-500 mb-4">
<p className="text-gray-200">
In <MarketLink id={o.market.id} /> at <Time date={o.createdAt} />.
</p>
{o.peggedOrder ? (
<p className="text-gray-200">
{t('Price peg')}:{' '}
<TxOrderPeggedReference
side={o.side}
reference={o.peggedOrder.reference}
offset={o.peggedOrder.offset}
marketId={o.market.id}
/>
</p>
) : null}
{o.reference ? (
<p className="text-gray-500 mb-4">
<p className="text-gray-500 mt-4">
<span>{t('Reference')}</span>: {o.reference}
</p>
) : null}
<div className="grid md:grid-cols-4 gap-x-6">
{version !== 0 ? null : (
<div className="mb-12 md:mb-0">
<h2 className="text-2xl font-bold text-dark mb-4">
{t('Status')}
</h2>
<h5 className="text-lg font-medium text-gray-500 mb-0 capitalize">
{statusText[o.status]}
</h5>
</div>
)}
<div className="grid md:grid-cols-4 gap-x-6 mt-4">
<div className="mb-12 md:mb-0">
<h2 className="text-2xl font-bold text-dark mb-4">
{t('Status')}
</h2>
<h5 className="text-lg font-medium text-gray-500 mb-0 capitalize">
{statusText[o.status]}
</h5>
</div>
<div className="mb-12 md:mb-0">
<h2 className="text-2xl font-bold text-dark mb-4">{t('Size')}</h2>
@@ -95,17 +106,6 @@ const DeterministicOrderDetails = ({
</h5>
</div>
{version !== 0 ? null : (
<div className="">
<h2 className="text-2xl font-bold text-dark mb-4">
{t('Remaining')}
</h2>
<h5 className="text-lg font-medium text-gray-500 mb-0">
<SizeInMarket size={o.remaining} marketId={o.market.id} />
</h5>
</div>
)}
<div className="">
<h2 className="text-2xl font-bold text-dark mb-4">
{t('Version')}
@@ -31,6 +31,7 @@ const mock = {
side: 'SIDE_BUY',
remaining: '100',
size: '100',
peggedOrder: null,
party: {
id: '456',
},
@@ -1,7 +1,6 @@
import type { ProposalListFieldsFragment } from '@vegaprotocol/proposals';
import { VoteProgress } from '@vegaprotocol/proposals';
import type { AgGridReact } from 'ag-grid-react';
import { AgGridColumn } from 'ag-grid-react';
import { ExternalLink } from '@vegaprotocol/ui-toolkit';
import { AgGridLazy as AgGrid } from '@vegaprotocol/datagrid';
import type {
@@ -9,7 +8,7 @@ import type {
VegaValueFormatterParams,
} from '@vegaprotocol/datagrid';
import { useLayoutEffect, useMemo, useRef, useState } from 'react';
import type { RowClickedEvent } from 'ag-grid-community';
import type { RowClickedEvent, ColDef } from 'ag-grid-community';
import { getDateTimeFormat } from '@vegaprotocol/utils';
import { t } from '@vegaprotocol/i18n';
import {
@@ -64,7 +63,128 @@ export const ProposalsTable = ({ data }: ProposalsTableProps) => {
title: '',
content: null,
});
const columnDefs = useMemo<ColDef[]>(
() => [
{
colId: 'title',
headerName: t('Title'),
field: 'rationale.title',
flex: 2,
wrapText: true,
},
{
colId: 'type',
maxWidth: 180,
hide: window.innerWidth <= BREAKPOINT_MD,
headerName: t('Type'),
field: 'terms.change.__typename',
},
{
maxWidth: 100,
headerName: t('State'),
field: 'state',
valueFormatter: ({
value,
}: VegaValueFormatterParams<ProposalListFieldsFragment, 'state'>) => {
return value ? ProposalStateMapping[value] : '-';
},
},
{
colId: 'voting',
maxWidth: 100,
hide: window.innerWidth <= BREAKPOINT_MD,
headerName: t('Voting'),
cellRenderer: ({
data,
}: VegaICellRendererParams<ProposalListFieldsFragment>) => {
if (data) {
const yesTokens = new BigNumber(data.votes.yes.totalTokens);
const noTokens = new BigNumber(data.votes.no.totalTokens);
const totalTokensVoted = yesTokens.plus(noTokens);
const yesPercentage = totalTokensVoted.isZero()
? new BigNumber(0)
: yesTokens.multipliedBy(100).dividedBy(totalTokensVoted);
return (
<div className="uppercase flex h-full items-center justify-center pt-2">
<VoteProgress
threshold={requiredMajorityPercentage}
progress={yesPercentage}
/>
</div>
);
}
return '-';
},
},
{
colId: 'cDate',
maxWidth: 150,
hide: window.innerWidth <= BREAKPOINT_MD,
headerName: t('Closing date'),
field: 'terms.closingDatetime',
valueFormatter: ({
value,
}: VegaValueFormatterParams<
ProposalListFieldsFragment,
'terms.closingDatetime'
>) => {
return value ? getDateTimeFormat().format(new Date(value)) : '-';
},
},
{
colId: 'eDate',
maxWidth: 150,
hide: window.innerWidth <= BREAKPOINT_MD,
headerName: t('Enactment date'),
field: 'terms.enactmentDatetime',
valueFormatter: ({
value,
}: VegaValueFormatterParams<
ProposalListFieldsFragment,
'terms.enactmentDatetime'
>) => {
return value ? getDateTimeFormat().format(new Date(value)) : '-';
},
},
{
colId: 'actions',
minWidth: window.innerWidth > BREAKPOINT_MD ? 221 : 80,
maxWidth: 221,
sortable: false,
filter: false,
resizable: false,
cellRenderer: ({
data,
}: VegaICellRendererParams<ProposalListFieldsFragment>) => {
const proposalPage = tokenLink(
TOKEN_PROPOSAL.replace(':id', data?.id || '')
);
const openDialog = () => {
if (!data) return;
setDialog({
open: true,
title: data.rationale.title,
content: data.terms,
});
};
return (
<div className="pb-1">
<button className="underline max-md:hidden" onClick={openDialog}>
{t('View terms')}
</button>{' '}
<ExternalLink className="max-md:hidden" href={proposalPage}>
{t('Open in Governance')}
</ExternalLink>
<ExternalLink className="md:hidden" href={proposalPage}>
{t('Open')}
</ExternalLink>
</div>
);
},
},
],
[requiredMajorityPercentage, tokenLink]
);
return (
<>
<AgGrid
@@ -83,6 +203,7 @@ export const ProposalsTable = ({ data }: ProposalsTableProps) => {
filterParams: { buttons: ['reset'] },
autoHeight: true,
}}
columnDefs={columnDefs}
suppressCellFocus={true}
onRowClicked={({ data, event }: RowClickedEvent) => {
if (
@@ -94,128 +215,7 @@ export const ProposalsTable = ({ data }: ProposalsTableProps) => {
window.open(proposalPage, '_blank');
}
}}
>
<AgGridColumn
colId="title"
headerName={t('Title')}
field="rationale.title"
flex={2}
wrapText={true}
/>
<AgGridColumn
colId="type"
maxWidth={180}
hide={window.innerWidth <= BREAKPOINT_MD}
headerName={t('Type')}
field="terms.change.__typename"
/>
<AgGridColumn
maxWidth={100}
headerName={t('State')}
field="state"
valueFormatter={({
value,
}: VegaValueFormatterParams<ProposalListFieldsFragment, 'state'>) => {
return value ? ProposalStateMapping[value] : '-';
}}
/>
<AgGridColumn
colId="voting"
maxWidth={100}
hide={window.innerWidth <= BREAKPOINT_MD}
headerName={t('Voting')}
cellRenderer={({
data,
}: VegaICellRendererParams<ProposalListFieldsFragment>) => {
if (data) {
const yesTokens = new BigNumber(data.votes.yes.totalTokens);
const noTokens = new BigNumber(data.votes.no.totalTokens);
const totalTokensVoted = yesTokens.plus(noTokens);
const yesPercentage = totalTokensVoted.isZero()
? new BigNumber(0)
: yesTokens.multipliedBy(100).dividedBy(totalTokensVoted);
return (
<div className="uppercase flex h-full items-center justify-center pt-2">
<VoteProgress
threshold={requiredMajorityPercentage}
progress={yesPercentage}
/>
</div>
);
}
return '-';
}}
/>
<AgGridColumn
colId="cDate"
maxWidth={150}
hide={window.innerWidth <= BREAKPOINT_MD}
headerName={t('Closing date')}
field="terms.closingDatetime"
valueFormatter={({
value,
}: VegaValueFormatterParams<
ProposalListFieldsFragment,
'terms.closingDatetime'
>) => {
return value ? getDateTimeFormat().format(new Date(value)) : '-';
}}
/>
<AgGridColumn
colId="eDate"
maxWidth={150}
hide={window.innerWidth <= BREAKPOINT_MD}
headerName={t('Enactment date')}
field="terms.enactmentDatetime"
valueFormatter={({
value,
}: VegaValueFormatterParams<
ProposalListFieldsFragment,
'terms.enactmentDatetime'
>) => {
return value ? getDateTimeFormat().format(new Date(value)) : '-';
}}
/>
<AgGridColumn
colId="actions"
minWidth={window.innerWidth > BREAKPOINT_MD ? 221 : 80}
maxWidth={221}
sortable={false}
filter={false}
resizable={false}
cellRenderer={({
data,
}: VegaICellRendererParams<ProposalListFieldsFragment>) => {
const proposalPage = tokenLink(
TOKEN_PROPOSAL.replace(':id', data?.id || '')
);
const openDialog = () => {
if (!data) return;
setDialog({
open: true,
title: data.rationale.title,
content: data.terms,
});
};
return (
<div className="pb-1">
<button
className="underline max-md:hidden"
onClick={openDialog}
>
{t('View terms')}
</button>{' '}
<ExternalLink className="max-md:hidden" href={proposalPage}>
{t('Open in Governance')}
</ExternalLink>
<ExternalLink className="md:hidden" href={proposalPage}>
{t('Open')}
</ExternalLink>
</div>
);
}}
/>
</AgGrid>
/>
<JsonViewerDialog
open={dialog.open}
onChange={(isOpen) => setDialog({ ...dialog, open: isOpen })}
@@ -1,19 +1,24 @@
import { Icon, Tooltip } from '@vegaprotocol/ui-toolkit';
// https://github.com/vegaprotocol/vega/blob/develop/core/blockchain/response.go
export const ErrorCodes = new Map([
[51, 'Transaction failed validation'],
[60, 'Transaction could not be decoded'],
[70, 'Error'],
[71, 'Partial success/error'],
[80, 'Unknown command'],
[89, 'Rejected as spam'],
[0, 'Success'],
]);
export const successCodes = new Set([0]);
export const successCodes = new Set([0, 71]);
interface ChainResponseCodeProps {
code: number;
hideLabel?: boolean;
error?: string;
hideIfOk?: boolean;
small?: boolean;
}
/**
@@ -25,10 +30,22 @@ export const ChainResponseCode = ({
code,
hideLabel = false,
error,
hideIfOk = false,
small = false,
}: ChainResponseCodeProps) => {
const isSuccess = successCodes.has(code);
if (hideIfOk && code === 0) {
return null;
}
const icon = isSuccess ? '✅' : '❌';
const isSuccess = successCodes.has(code);
const size = small ? 3 : 4;
const successColour =
code === 71 ? '!fill-vega-orange' : '!fill-vega-green-600';
const icon = isSuccess ? (
<Icon size={size} name="tick-circle" className={`${successColour}`} />
) : (
<Icon size={size} name="cross" className="!fill-vega-pink-500" />
);
const label = ErrorCodes.get(code) || 'Unknown response code';
// Hack for batches with many errors - see https://github.com/vegaprotocol/vega/issues/7245
@@ -36,18 +53,28 @@ export const ChainResponseCode = ({
error && error.length > 100 ? error.replace(/,/g, ',\r\n') : error;
return (
<div title={`Response code: ${code} - ${label}`} className="inline-block">
<span
className="mr-2"
aria-label={isSuccess ? 'Success' : 'Warning'}
role="img"
>
{icon}
</span>
{hideLabel ? null : <span>{label}</span>}
{!hideLabel && !!displayError ? (
<span className="ml-1 whitespace-pre">&mdash;&nbsp;{displayError}</span>
) : null}
</div>
<Tooltip
description={
<span>
Response code: {code} - {label}
</span>
}
>
<div className="mt-[-1px] inline-block">
<span
className="mr-2"
aria-label={isSuccess ? 'Success' : 'Warning'}
role="img"
>
{icon}
</span>
{hideLabel ? null : <span>{label}</span>}
{!hideLabel && !!displayError ? (
<span className="ml-1 whitespace-pre">
&mdash;&nbsp;{displayError}
</span>
) : null}
</div>
</Tooltip>
);
};
@@ -0,0 +1,52 @@
import { t } from '@vegaprotocol/i18n';
import type { components } from '../../../../../types/explorer';
import { Tooltip } from '@vegaprotocol/ui-toolkit';
export interface TxDetailsOrderIcebergDetailsProps {
iceberg: components['schemas']['v1IcebergOpts'];
size: components['schemas']['v1OrderSubmission']['size'];
}
/**
.iceberg .sub {
vertical-align: bottom;
color: #954F01;
}
.iceberg .sup {
vertical-align: top;
color: #515E1E;
}
*/
/**
* Visualises the iceberg details of an order, showing the minimum visible size,
* the full size and the peak size.
*/
export const TxOrderIcebergDetails = ({
iceberg,
size,
}: TxDetailsOrderIcebergDetailsProps) => {
return (
<div
className="inline-block iceberg bg-vega-blue-300 border-vega-blue-350 border-[1px] text-[70%] font-mono py-[2px] pl-2 pr-3 height-[1em] leading-[1em] cursor-pointer"
style={{ clipPath: 'polygon(10% 0%, 100% 0%, 90% 100%, 0% 100%)' }}
>
<Tooltip description={t('Iceberg: Minimum visible size')}>
<span className="align-bottom text-vega-orange-650">
{iceberg.minimumVisibleSize || '-'}
</span>
</Tooltip>
<Tooltip description={t('Iceberg: Total size')}>
<span className="text-sm text-vega-blue-600 mx-3">{size}</span>
</Tooltip>
<Tooltip description={t('Iceberg: Visible peak')}>
<span className="align-top text-vega-yellow-600">
{iceberg.peakSize || '-'}
</span>
</Tooltip>
</div>
);
};
@@ -0,0 +1,113 @@
import { render } from '@testing-library/react';
import type { TxDetailsOrderProps } from './tx-order-peg';
import { TxOrderPeggedReference, getMarketDecimals } from './tx-order-peg';
import { useExplorerMarketQuery } from '../../../links/market-link/__generated__/Market';
import type { ExplorerMarketQuery } from '../../../links/market-link/__generated__/Market';
import { PeggedReference, Side } from '@vegaprotocol/types';
// Mock the useExplorerMarketQuery hook
jest.mock('../../../links/market-link/__generated__/Market', () => ({
useExplorerMarketQuery: jest.fn().mockReturnValue({
data: {
market: { decimalPlaces: 0 },
},
loading: false,
}),
}));
describe('getSettlementAsset', () => {
it('should return the decimal places if data is defined', () => {
const data = {
market: {
__typename: 'Market',
id: '123',
decimalPlaces: 8,
},
};
const result = getMarketDecimals(data as Partial<ExplorerMarketQuery>);
expect(result).toEqual(8);
});
it('should return 0 if data is undefined', () => {
const result = getMarketDecimals(undefined);
expect(result).toEqual(0);
});
});
describe('TxOrderPeggedReference', () => {
beforeEach(() => {
// Mock the useExplorerMarketQuery hook return value
(useExplorerMarketQuery as jest.Mock).mockReturnValue({
data: {
settlementAsset: 'some-settlement-asset',
},
loading: false,
});
});
afterEach(() => {
jest.resetAllMocks();
});
it('should render the offset and reference correctly', () => {
const props: TxDetailsOrderProps = {
side: Side.SIDE_BUY,
offset: '10',
reference: PeggedReference.PEGGED_REFERENCE_MID,
marketId: 'some-market-id',
};
const { getByTestId } = render(<TxOrderPeggedReference {...props} />);
expect(getByTestId('pegged-reference')).toHaveTextContent('Mid + 10');
});
it('should return null if the reference is "PEGGED_REFERENCE_UNSPECIFIED"', () => {
const props: TxDetailsOrderProps = {
side: Side.SIDE_BUY,
offset: '10',
reference: 'PEGGED_REFERENCE_UNSPECIFIED',
marketId: 'some-market-id',
};
const { container } = render(<TxOrderPeggedReference {...props} />);
expect(container.firstChild).toBeNull();
});
it('should render the offset without formatting initially, then render the formatted version', () => {
const props: TxDetailsOrderProps = {
side: Side.SIDE_BUY,
offset: '10',
reference: PeggedReference.PEGGED_REFERENCE_BEST_ASK,
marketId: 'some-market-id',
};
(useExplorerMarketQuery as jest.Mock).mockReturnValue({
data: null,
loading: true,
});
const screen = render(<TxOrderPeggedReference {...props} />);
expect(screen.getByTestId('pegged-reference')).toHaveTextContent(
'Ask + 10'
);
(useExplorerMarketQuery as jest.Mock).mockReturnValue({
data: {
market: {
decimalPlaces: 10,
},
},
loading: false,
});
screen.rerender(<TxOrderPeggedReference {...props} />);
expect(screen.getByTestId('pegged-reference')).toHaveTextContent(
'Ask + 0.000000001'
);
});
});
@@ -0,0 +1,72 @@
import { t } from '@vegaprotocol/i18n';
import { TableCell, TableRow } from '../../../table';
import type { VegaPeggedReference } from '../liquidity-provision/liquidity-provision-details';
import { Side, PeggedReferenceMapping } from '@vegaprotocol/types';
import { useExplorerMarketQuery } from '../../../links/market-link/__generated__/Market';
import type { ExplorerMarketQuery } from '../../../links/market-link/__generated__/Market';
import { addDecimalsFormatNumber } from '@vegaprotocol/utils';
export interface TxDetailsOrderProps {
offset: string;
reference: VegaPeggedReference;
marketId: string;
side: Side;
}
export function getMarketDecimals(
data: ExplorerMarketQuery | undefined
): number {
return data?.market?.decimalPlaces || 0;
}
/**
* Summarises an order's peg
*/
export const TxOrderPeggedReferenceRow = ({
offset,
reference,
marketId,
side,
}: TxDetailsOrderProps) => {
return (
<TableRow modifier="bordered">
<TableCell>{t('Pegged order')}</TableCell>
<TableCell>
<TxOrderPeggedReference
side={side}
offset={offset}
reference={reference}
marketId={marketId}
/>
</TableCell>
</TableRow>
);
};
export const TxOrderPeggedReference = ({
offset,
reference,
marketId,
side,
}: TxDetailsOrderProps) => {
const { data, loading } = useExplorerMarketQuery({
variables: { id: marketId },
});
const direction = side === Side.SIDE_BUY ? '+' : '-';
const decimalPlaces = getMarketDecimals(data);
if (reference === 'PEGGED_REFERENCE_UNSPECIFIED') {
return null;
}
return (
<span data-testid="pegged-reference">
{PeggedReferenceMapping[reference]}&nbsp;
{direction}&nbsp;
{!loading && data
? addDecimalsFormatNumber(offset, decimalPlaces)
: offset}
</span>
);
};
@@ -6,10 +6,32 @@ import {
SPECIAL_CASE_NETWORK_ID,
} from '../../../../links/party-link/party-link';
import SizeInAsset from '../../../../size-in-asset/size-in-asset';
import { AccountTypeMapping } from '@vegaprotocol/types';
import { AccountType } from '@vegaprotocol/types';
import { headerClasses, wrapperClasses } from '../transfer-details';
import type { Transfer } from '../transfer-details';
import type { components } from '../../../../../../types/explorer';
type Transfer = components['schemas']['commandsv1Transfer'];
type AccountTypes = components['schemas']['vegaAccountType'];
const AccountType: Record<AccountTypes, string> = {
ACCOUNT_TYPE_UNSPECIFIED: 'Unspecified',
ACCOUNT_TYPE_INSURANCE: 'Insurance',
ACCOUNT_TYPE_SETTLEMENT: 'Settlement',
ACCOUNT_TYPE_MARGIN: 'Margin',
ACCOUNT_TYPE_GENERAL: 'General',
ACCOUNT_TYPE_FEES_INFRASTRUCTURE: 'Infrastructure',
ACCOUNT_TYPE_FEES_LIQUIDITY: 'Liquidity',
ACCOUNT_TYPE_FEES_MAKER: 'Maker',
ACCOUNT_TYPE_BOND: 'Bond',
ACCOUNT_TYPE_EXTERNAL: 'External',
ACCOUNT_TYPE_GLOBAL_INSURANCE: 'Global Insurance',
ACCOUNT_TYPE_GLOBAL_REWARD: 'Global Reward',
ACCOUNT_TYPE_PENDING_TRANSFERS: 'Pending Transfers',
ACCOUNT_TYPE_REWARD_MAKER_PAID_FEES: 'Maker Paid Fees',
ACCOUNT_TYPE_REWARD_MAKER_RECEIVED_FEES: 'Maker Received Fees',
ACCOUNT_TYPE_REWARD_LP_RECEIVED_FEES: 'LP Received Fees',
ACCOUNT_TYPE_REWARD_MARKET_PROPOSERS: 'Market Proposers',
ACCOUNT_TYPE_HOLDING: 'Holding',
};
interface TransferParticipantsProps {
transfer: Transfer;
@@ -30,22 +52,22 @@ export function TransferParticipants({
}: TransferParticipantsProps) {
// This mapping is required as the global account types require a type to be set, while
// the underlying protobufs allow for every field to be undefined.
const fromAcct =
const fromAcct: AccountTypes =
transfer.fromAccountType &&
transfer.fromAccountType !== 'ACCOUNT_TYPE_UNSPECIFIED'
? AccountType[transfer.fromAccountType]
: AccountType.ACCOUNT_TYPE_GENERAL;
const fromAccountTypeLabel = transfer.fromAccountType
? AccountTypeMapping[fromAcct]
? transfer.fromAccountType
: 'ACCOUNT_TYPE_GENERAL';
const fromAccountTypeLabel: string = transfer.fromAccountType
? AccountType[fromAcct]
: 'Unknown';
const toAcct =
const toAcct: AccountTypes =
transfer.toAccountType &&
transfer.toAccountType !== 'ACCOUNT_TYPE_UNSPECIFIED'
? AccountType[transfer.toAccountType]
: AccountType.ACCOUNT_TYPE_GENERAL;
? transfer.toAccountType
: 'ACCOUNT_TYPE_GENERAL';
const toAccountTypeLabel = transfer.fromAccountType
? AccountTypeMapping[toAcct]
? AccountType[toAcct]
: 'Unknown';
return (
@@ -27,9 +27,9 @@ export function TransferRepeat({ recurring }: TransferRepeatProps) {
<div className={wrapperClasses}>
<h2 className={headerClasses}>{t('Active epochs')}</h2>
<div className="relative block rounded-lg py-6 text-center p-6">
<p>
<div>
<EpochOverview id={recurring.startEpoch} />
</p>
</div>
<p className="leading-10 my-2">
<IconForEpoch
start={recurring.startEpoch}
@@ -37,13 +37,13 @@ export function TransferRepeat({ recurring }: TransferRepeatProps) {
current={data?.epoch.id}
/>
</p>
<p>
<div>
{recurring.endEpoch ? (
<EpochOverview id={recurring.endEpoch} />
) : (
<span>{t('Forever')}</span>
)}
</p>
</div>
</div>
</div>
);
@@ -8,7 +8,7 @@ import { DispatchMetricLabels } from '@vegaprotocol/types';
export type Metric = components['schemas']['vegaDispatchMetric'];
export type Strategy = components['schemas']['vegaDispatchStrategy'];
const metricLabels = {
const metricLabels: Record<Metric, string> = {
DISPATCH_METRIC_UNSPECIFIED: 'Unknown metric',
...DispatchMetricLabels,
};
@@ -3,7 +3,7 @@ import { TransferRepeat } from './blocks/transfer-repeat';
import { TransferRewards } from './blocks/transfer-rewards';
import { TransferParticipants } from './blocks/transfer-participants';
export type Recurring = components['schemas']['v1RecurringTransfer'];
export type Recurring = components['schemas']['commandsv1RecurringTransfer'];
export type Metric = components['schemas']['vegaDispatchMetric'];
export const wrapperClasses =
@@ -0,0 +1,86 @@
import { render } from '@testing-library/react';
import { TxDetailsLiquidityAmendment } from './tx-liquidity-amend';
import type { TendermintBlocksResponse } from '../../../routes/blocks/tendermint-blocks-response';
import type { BlockExplorerTransactionResult } from '../../../routes/types/block-explorer-response';
import { MockedProvider } from '@apollo/client/testing';
import { MemoryRouter } from 'react-router-dom';
describe('TxDetailsLiquidityAmendment', () => {
const mockTxData = {
hash: 'test',
command: {
liquidityProvisionAmendment: {
marketId: 'BTC-USD',
commitmentAmount: 100,
fee: '0.01',
},
},
};
const mockPubKey = '123';
const mockBlockData = {
result: {
block: {
header: {
height: '123',
},
},
},
};
it('should render the component with correct data', () => {
const { getByText } = render(
<MockedProvider>
<MemoryRouter>
<TxDetailsLiquidityAmendment
txData={mockTxData as BlockExplorerTransactionResult}
pubKey={mockPubKey}
blockData={mockBlockData as TendermintBlocksResponse}
/>
</MemoryRouter>
</MockedProvider>
);
expect(getByText('Market')).toBeInTheDocument();
expect(getByText('BTC-USD')).toBeInTheDocument();
expect(getByText('Commitment amount')).toBeInTheDocument();
expect(getByText('100')).toBeInTheDocument();
expect(getByText('Fee')).toBeInTheDocument();
expect(getByText('1%')).toBeInTheDocument();
});
it('should display awaiting message when tx data is undefined', () => {
const { getByText } = render(
<MockedProvider>
<MemoryRouter>
<TxDetailsLiquidityAmendment
txData={undefined}
pubKey={mockPubKey}
blockData={mockBlockData as TendermintBlocksResponse}
/>
</MemoryRouter>
</MockedProvider>
);
expect(
getByText('Awaiting Block Explorer transaction details')
).toBeInTheDocument();
});
it('should display awaiting message when liquidityProvisionAmendment is undefined', () => {
const { getByText } = render(
<MockedProvider>
<MemoryRouter>
<TxDetailsLiquidityAmendment
txData={{ command: {} } as BlockExplorerTransactionResult}
pubKey={mockPubKey}
blockData={mockBlockData as TendermintBlocksResponse}
/>
</MemoryRouter>
</MockedProvider>
);
expect(
getByText('Awaiting Block Explorer transaction details')
).toBeInTheDocument();
});
});
@@ -7,6 +7,7 @@ import { TableCell, TableRow, TableWithTbody } from '../../table';
import type { components } from '../../../../types/explorer';
import { LiquidityProvisionDetails } from './liquidity-provision/liquidity-provision-details';
import PriceInMarket from '../../price-in-market/price-in-market';
import BigNumber from 'bignumber.js';
export type LiquidityAmendment =
components['schemas']['v1LiquidityProvisionAmendment'];
@@ -34,6 +35,10 @@ export const TxDetailsLiquidityAmendment = ({
txData.command.liquidityProvisionAmendment;
const marketId: string = amendment.marketId || '-';
const fee = amendment.fee
? new BigNumber(amendment.fee).times(100).toString()
: '-';
return (
<>
<TableWithTbody className="mb-8" allowWrap={true}>
@@ -63,7 +68,7 @@ export const TxDetailsLiquidityAmendment = ({
{amendment.fee ? (
<TableRow modifier="bordered">
<TableCell>{t('Fee')}</TableCell>
<TableCell>{amendment.fee}%</TableCell>
<TableCell>{fee}%</TableCell>
</TableRow>
) : null}
</TableWithTbody>
@@ -0,0 +1,86 @@
import { render } from '@testing-library/react';
import { TxDetailsLiquiditySubmission } from './tx-liquidity-submission';
import type { TendermintBlocksResponse } from '../../../routes/blocks/tendermint-blocks-response';
import type { BlockExplorerTransactionResult } from '../../../routes/types/block-explorer-response';
import { MockedProvider } from '@apollo/client/testing';
import { MemoryRouter } from 'react-router-dom';
describe('TxDetailsLiquiditySubmission', () => {
const mockTxData = {
hash: 'test',
command: {
liquidityProvisionSubmission: {
marketId: 'BTC-USD',
commitmentAmount: 100,
fee: '0.01',
},
},
};
const mockPubKey = '123';
const mockBlockData = {
result: {
block: {
header: {
height: '123',
},
},
},
};
it('should render the component with correct data', () => {
const { getByText } = render(
<MockedProvider>
<MemoryRouter>
<TxDetailsLiquiditySubmission
txData={mockTxData as BlockExplorerTransactionResult}
pubKey={mockPubKey}
blockData={mockBlockData as TendermintBlocksResponse}
/>
</MemoryRouter>
</MockedProvider>
);
expect(getByText('Market')).toBeInTheDocument();
expect(getByText('BTC-USD')).toBeInTheDocument();
expect(getByText('Commitment amount')).toBeInTheDocument();
expect(getByText('100')).toBeInTheDocument();
expect(getByText('Fee')).toBeInTheDocument();
expect(getByText('1%')).toBeInTheDocument();
});
it('should display awaiting message when tx data is undefined', () => {
const { getByText } = render(
<MockedProvider>
<MemoryRouter>
<TxDetailsLiquiditySubmission
txData={undefined}
pubKey={mockPubKey}
blockData={mockBlockData as TendermintBlocksResponse}
/>
</MemoryRouter>
</MockedProvider>
);
expect(
getByText('Awaiting Block Explorer transaction details')
).toBeInTheDocument();
});
it('should display awaiting message when liquidityProvisionSubmission is undefined', () => {
const { getByText } = render(
<MockedProvider>
<MemoryRouter>
<TxDetailsLiquiditySubmission
txData={{ command: {} } as BlockExplorerTransactionResult}
pubKey={mockPubKey}
blockData={mockBlockData as TendermintBlocksResponse}
/>
</MemoryRouter>
</MockedProvider>
);
expect(
getByText('Awaiting Block Explorer transaction details')
).toBeInTheDocument();
});
});
@@ -7,6 +7,7 @@ import { TableCell, TableRow, TableWithTbody } from '../../table';
import type { components } from '../../../../types/explorer';
import { LiquidityProvisionDetails } from './liquidity-provision/liquidity-provision-details';
import PriceInMarket from '../../price-in-market/price-in-market';
import BigNumber from 'bignumber.js';
export type LiquiditySubmission =
components['schemas']['v1LiquidityProvisionSubmission'];
@@ -33,6 +34,10 @@ export const TxDetailsLiquiditySubmission = ({
txData.command.liquidityProvisionSubmission;
const marketId: string = submission.marketId || '-';
const fee = submission.fee
? new BigNumber(submission.fee).times(100).toString()
: '-';
return (
<>
<TableWithTbody className="mb-8" allowWrap={true}>
@@ -62,7 +67,7 @@ export const TxDetailsLiquiditySubmission = ({
{submission.fee ? (
<TableRow modifier="bordered">
<TableCell>{t('Fee')}</TableCell>
<TableCell>{submission.fee}%</TableCell>
<TableCell>{fee}%</TableCell>
</TableRow>
) : null}
</TableWithTbody>
@@ -7,6 +7,8 @@ import { TableCell, TableRow, TableWithTbody } from '../../table';
import { txSignatureToDeterministicId } from '../lib/deterministic-ids';
import DeterministicOrderDetails from '../../order-details/deterministic-order-details';
import Hash from '../../links/hash';
import { TxOrderPeggedReferenceRow } from './order/tx-order-peg';
import { TxOrderIcebergDetails } from './order/tx-order-iceberg';
interface TxDetailsOrderProps {
txData: BlockExplorerTransactionResult | undefined;
@@ -29,6 +31,10 @@ export const TxDetailsOrder = ({
return <>{t('Awaiting Block Explorer transaction details')}</>;
}
const marketId = txData.command.orderSubmission.marketId || '-';
const reference = txData.command.orderSubmission.peggedOrder;
const side = txData.command.orderSubmission.side;
const iceberg = txData.command.orderSubmission.icebergOpts;
const size = txData.command.orderSubmission.size;
let deterministicId = '';
@@ -63,6 +69,22 @@ export const TxDetailsOrder = ({
<MarketLink id={marketId} />
</TableCell>
</TableRow>
{reference ? (
<TxOrderPeggedReferenceRow
side={side}
offset={reference.offset}
reference={reference.reference}
marketId={marketId}
/>
) : null}
{iceberg ? (
<TableRow modifier="bordered">
<TableCell>{t('Iceberg details')}</TableCell>
<TableCell>
<TxOrderIcebergDetails iceberg={iceberg} size={size} />
</TableCell>
</TableRow>
) : null}
</TableWithTbody>
{deterministicId.length > 0 ? (
@@ -4,6 +4,7 @@ import type { TendermintBlocksResponse } from '../../../routes/blocks/tendermint
import { TxDetailsShared } from './shared/tx-details-shared';
import { TableCell, TableRow, TableWithTbody } from '../../table';
import ProposalLink from '../../links/proposal-link/proposal-link';
import { VoteIcon } from '../../vote-icon/vote-icon';
interface TxProposalVoteProps {
txData: BlockExplorerTransactionResult | undefined;
@@ -30,27 +31,22 @@ export const TxProposalVote = ({
return <>{t('Awaiting Block Explorer transaction details')}</>;
}
const vote = txData.command.voteSubmission.value ? '👍' : '👎';
const vote = txData.command.voteSubmission.value === 'VALUE_YES';
return (
<TableWithTbody className="mb-8" allowWrap={true}>
<TxDetailsShared txData={txData} pubKey={pubKey} blockData={blockData} />
<TableRow modifier="bordered">
<TableCell>{t('Proposal ID')}</TableCell>
<TableCell>{txData.command.voteSubmission.proposalId}</TableCell>
</TableRow>
<TableRow modifier="bordered">
<TableCell>{t('Proposal details')}</TableCell>
<TableCell>
<ProposalLink id={txData.command.voteSubmission.proposalId} />
</TableCell>
</TableRow>
<TableRow modifier="bordered">
<TableCell>{t('Proposal')}</TableCell>
<TableCell>{txData.command.voteSubmission.proposalId}</TableCell>
</TableRow>
<TableRow modifier="bordered">
<TableCell>{t('Vote')}</TableCell>
<TableCell>{vote}</TableCell>
<TableCell>
<VoteIcon vote={vote} />
</TableCell>
</TableRow>
</TableWithTbody>
);
@@ -0,0 +1,56 @@
import type { Proposal } from './tx-proposal';
import { proposalRequiresSignatureBundle } from './tx-proposal';
describe('proposalRequiresSignatureBundle', () => {
it('should return false for freeform proposals, which do not require a signature bundle to enact', () => {
const mock = {
terms: {
newFreeform: {},
},
};
expect(proposalRequiresSignatureBundle(mock)).toEqual(false);
});
it('should return false for newMarket proposals, which do not require a signature bundle to enact', () => {
const mock = {
terms: {
newMarket: {},
},
};
expect(proposalRequiresSignatureBundle(mock)).toEqual(false);
});
it('should return true for newAsset proposals, which do require a signature bundle to enact', () => {
const mock = {
terms: {
newAsset: {},
},
};
expect(proposalRequiresSignatureBundle(mock)).toEqual(true);
});
it('should return true for updateAsset proposals, which do require a signature bundle to enact', () => {
const mock = {
terms: {
updateAsset: {},
},
};
expect(proposalRequiresSignatureBundle(mock)).toEqual(true);
});
it('should return false when bad data is supplied', () => {
expect(
proposalRequiresSignatureBundle(false as unknown as Proposal)
).toEqual(false);
expect(
proposalRequiresSignatureBundle(undefined as unknown as Proposal)
).toEqual(false);
expect(
proposalRequiresSignatureBundle({ test: false } as unknown as Proposal)
).toEqual(false);
});
});
@@ -10,6 +10,8 @@ import Hash from '../../links/hash';
import { t } from '@vegaprotocol/i18n';
import { ProposalSignatureBundleNewAsset } from './proposal/signature-bundle-new';
import { ProposalSignatureBundleUpdateAsset } from './proposal/signature-bundle-update';
import { MarketLink } from '../../links';
import { formatNumber } from '@vegaprotocol/utils';
export type Proposal = components['schemas']['v1ProposalSubmission'];
export type ProposalTerms = components['schemas']['vegaProposalTerms'];
@@ -28,11 +30,16 @@ interface TxProposalProps {
* @returns boolean True if a signature bundle is required. Used to fetch a signature bundle
*/
export function proposalRequiresSignatureBundle(proposal?: Proposal): boolean {
const proposalsThatRequireBundles = ['newAsset', 'updateAsset'];
if (!proposal?.terms) {
return false;
}
return !!['newAsset', 'updateAsset'].filter((requiredIfExists) =>
has(proposal.terms, requiredIfExists)
return (
proposalsThatRequireBundles.filter((requiredIfExists) =>
has(proposal.terms, requiredIfExists)
).length > 0
);
}
@@ -48,7 +55,11 @@ export function proposalTypeLabel(terms?: ProposalTerms): string {
} else if (has(terms, 'updateAsset')) {
return t('Update asset proposal');
} else if (has(terms, 'newMarket')) {
return t('New market proposal');
if (terms?.newMarket?.changes?.successor) {
return t('Successor market proposal');
} else {
return t('New market proposal');
}
} else if (has(terms, 'updateMarket')) {
return t('Update market proposal');
} else if (has(terms, 'updateNetworkParameter')) {
@@ -80,7 +91,15 @@ export const TxProposal = ({ txData, pubKey, blockData }: TxProposalProps) => {
}
const tx = proposal.terms?.newAsset || proposal.terms?.updateAsset;
const isSuccessorMarketProposal =
proposal?.terms?.newMarket?.changes?.successor;
const parentMarketId =
isSuccessorMarketProposal &&
proposal?.terms.newMarket?.changes?.successor?.parentMarketId;
const insurancePoolFraction =
proposal?.terms?.newMarket?.changes?.successor?.insurancePoolFraction;
// This component is not rendered if no bundle is required
const SignatureBundleComponent = proposal.terms?.newAsset
? ProposalSignatureBundleNewAsset
: ProposalSignatureBundleUpdateAsset;
@@ -105,6 +124,30 @@ export const TxProposal = ({ txData, pubKey, blockData }: TxProposalProps) => {
<Hash text={deterministicId} />
</TableCell>
</TableRow>
{isSuccessorMarketProposal ? (
<>
{parentMarketId ? (
<TableRow modifier="bordered">
<TableCell>{t('Previous market')}</TableCell>
<TableCell>
<MarketLink
id={
proposal.terms?.newMarket.changes.successor.parentMarketId
}
/>
</TableCell>
</TableRow>
) : null}
{insurancePoolFraction ? (
<TableRow modifier="bordered">
<TableCell>{t('Insurance pool fraction')}</TableCell>
<TableCell>
{formatNumber(Number(insurancePoolFraction) * 100, 0)}%
</TableCell>
</TableRow>
) : null}
</>
) : null}
</TableWithTbody>
<ProposalSummary
id={deterministicId}
@@ -0,0 +1,28 @@
import { t } from '@vegaprotocol/i18n';
export interface FilterLabelProps {
filters: Set<string>;
}
/**
* Renders the list (currently limited to 1) of filters set by the
* Transaction Filter
*/
export function FilterLabel({ filters }: FilterLabelProps) {
if (!filters || filters.size !== 1) {
return (
<span data-testid="filter-empty" className="uppercase">
{t('Filter')}
</span>
);
}
return (
<div data-testid="filter-selected">
<span className="uppercase">{t('Filters')}:</span>&nbsp;
<code className="bg-vega-light-150 dark:bg-vega-light-300 px-2 rounded-md capitalize dark:text-black">
{Array.from(filters)[0]}
</code>
</div>
);
}
@@ -0,0 +1,21 @@
import { render, screen } from '@testing-library/react';
import { TxsFilter } from './tx-filter';
import type { FilterOption } from './tx-filter';
describe('TxsFilter', () => {
it('renders holding text when nothing is selected', () => {
const filters: Set<FilterOption> = new Set([]);
const setFilters = jest.fn();
render(<TxsFilter filters={filters} setFilters={setFilters} />);
expect(screen.getByTestId('filter-empty')).toBeInTheDocument();
expect(screen.getByText('Filter')).toBeInTheDocument();
});
it('renders the submit order filter as selected', () => {
const filters: Set<FilterOption> = new Set(['Submit Order']);
const setFilters = jest.fn();
render(<TxsFilter filters={filters} setFilters={setFilters} />);
expect(screen.getByTestId('filter-selected')).toBeInTheDocument();
expect(screen.getByText('Submit Order')).toBeInTheDocument();
});
});
@@ -0,0 +1,161 @@
import { t } from '@vegaprotocol/i18n';
import {
DropdownMenu,
DropdownMenuCheckboxItem,
DropdownMenuContent,
DropdownMenuItemIndicator,
DropdownMenuSeparator,
DropdownMenuSub,
DropdownMenuSubTrigger,
DropdownMenuTrigger,
DropdownMenuSubContent,
Icon,
} from '@vegaprotocol/ui-toolkit';
import type { Dispatch, SetStateAction } from 'react';
import { FilterLabel } from './tx-filter-label';
// All possible transaction types. Should be generated.
export type FilterOption =
| 'Amend LiquidityProvision Order'
| 'Amend Order'
| 'Batch Market Instructions'
| 'Cancel LiquidityProvision Order'
| 'Cancel Order'
| 'Cancel Transfer Funds'
| 'Chain Event'
| 'Delegate'
| 'Ethereum Key Rotate Submission'
| 'Issue Signatures'
| 'Key Rotate Submission'
| 'Liquidity Provision Order'
| 'Node Signature'
| 'Node Vote'
| 'Proposal'
| 'Protocol Upgrade'
| 'Register new Node'
| 'State Variable Proposal'
| 'Submit Oracle Data'
| 'Submit Order'
| 'Transfer Funds'
| 'Undelegate'
| 'Validator Heartbeat'
| 'Vote on Proposal'
| 'Withdraw';
// Alphabetised list of transaction types to appear at the top level
export const PrimaryFilterOptions: FilterOption[] = [
'Amend LiquidityProvision Order',
'Amend Order',
'Batch Market Instructions',
'Cancel LiquidityProvision Order',
'Cancel Order',
'Cancel Transfer Funds',
'Delegate',
'Liquidity Provision Order',
'Proposal',
'Submit Oracle Data',
'Submit Order',
'Transfer Funds',
'Undelegate',
'Vote on Proposal',
'Withdraw',
];
// Alphabetised list of transaction types to nest under a 'More...' submenu
export const SecondaryFilterOptions: FilterOption[] = [
'Chain Event',
'Ethereum Key Rotate Submission',
'Issue Signatures',
'Key Rotate Submission',
'Node Signature',
'Node Vote',
'Protocol Upgrade',
'Register new Node',
'State Variable Proposal',
'Validator Heartbeat',
];
export const AllFilterOptions: FilterOption[] = [
...PrimaryFilterOptions,
...SecondaryFilterOptions,
];
export interface TxFilterProps {
filters: Set<FilterOption>;
setFilters: Dispatch<SetStateAction<Set<FilterOption>>>;
}
/**
* Renders a structured dropdown menu of all of the available transaction
* types. It allows a user to select one transaction type to view. Later
* it will support multiple selection, but until the API supports that it is
* one or all.
* @param filters null or Set of transaction types
* @param setFilters A function to update the filters prop
* @returns
*/
export const TxsFilter = ({ filters, setFilters }: TxFilterProps) => {
return (
<DropdownMenu
modal={false}
trigger={
<DropdownMenuTrigger>
<FilterLabel filters={filters} />
</DropdownMenuTrigger>
}
>
<DropdownMenuContent>
{filters.size > 1 ? null : (
<>
<DropdownMenuCheckboxItem
onCheckedChange={() => setFilters(new Set(AllFilterOptions))}
>
{t('Clear filters')} <Icon name="cross" />
</DropdownMenuCheckboxItem>
<DropdownMenuSeparator />
</>
)}
{PrimaryFilterOptions.map((f) => (
<DropdownMenuCheckboxItem
key={f}
checked={filters.has(f)}
onCheckedChange={() => {
// NOTE: These act like radio buttons until the API supports multiple filters
setFilters(new Set([f]));
}}
id={`radio-${f}`}
>
{f}
<DropdownMenuItemIndicator>
<Icon name="tick-circle" />
</DropdownMenuItemIndicator>
</DropdownMenuCheckboxItem>
))}
<DropdownMenuSub>
<DropdownMenuSubTrigger>
{t('More Types')}
<Icon name="chevron-right" />
</DropdownMenuSubTrigger>
<DropdownMenuSubContent>
{SecondaryFilterOptions.map((f) => (
<DropdownMenuCheckboxItem
key={f}
checked={filters.has(f)}
onCheckedChange={(checked) => {
// NOTE: These act like radio buttons until the API supports multiple filters
setFilters(new Set([f]));
}}
id={`radio-${f}`}
>
{f}
<DropdownMenuItemIndicator>
<Icon name="tick-circle" className="inline" />
</DropdownMenuItemIndicator>
</DropdownMenuCheckboxItem>
))}
</DropdownMenuSubContent>
</DropdownMenuSub>
</DropdownMenuContent>
</DropdownMenu>
);
};
@@ -0,0 +1,113 @@
import { render, screen, fireEvent } from '@testing-library/react';
import { TxsListNavigation } from './tx-list-navigation';
const NOOP = () => {
return;
};
describe('TxsListNavigation', () => {
it('renders transaction list navigation', () => {
render(
<TxsListNavigation
refreshTxs={NOOP}
nextPage={NOOP}
previousPage={NOOP}
hasMoreTxs={true}
hasPreviousPage={true}
>
<span></span>
</TxsListNavigation>
);
expect(screen.getByText('Newer')).toBeInTheDocument();
expect(screen.getByText('Older')).toBeInTheDocument();
});
it('calls previousPage when "Newer" button is clicked', () => {
const previousPageMock = jest.fn();
render(
<TxsListNavigation
refreshTxs={NOOP}
nextPage={NOOP}
previousPage={previousPageMock}
hasMoreTxs={true}
hasPreviousPage={true}
>
<span></span>
</TxsListNavigation>
);
fireEvent.click(screen.getByText('Newer'));
expect(previousPageMock).toHaveBeenCalledTimes(1);
});
it('calls nextPage when "Older" button is clicked', () => {
const nextPageMock = jest.fn();
render(
<TxsListNavigation
refreshTxs={NOOP}
nextPage={nextPageMock}
previousPage={NOOP}
hasMoreTxs={true}
hasPreviousPage={true}
>
<span></span>
</TxsListNavigation>
);
fireEvent.click(screen.getByText('Older'));
expect(nextPageMock).toHaveBeenCalledTimes(1);
});
it('disables "Older" button if hasMoreTxs is false', () => {
render(
<TxsListNavigation
refreshTxs={NOOP}
nextPage={NOOP}
previousPage={NOOP}
hasMoreTxs={false}
hasPreviousPage={false}
>
<span></span>
</TxsListNavigation>
);
expect(screen.getByText('Older')).toBeDisabled();
});
it('disables "Newer" button if hasPreviousPage is false', () => {
render(
<TxsListNavigation
refreshTxs={NOOP}
nextPage={NOOP}
previousPage={NOOP}
hasMoreTxs={true}
hasPreviousPage={false}
>
<span></span>
</TxsListNavigation>
);
expect(screen.getByText('Newer')).toBeDisabled();
});
it('disables both buttons when more and previous are false', () => {
render(
<TxsListNavigation
refreshTxs={NOOP}
nextPage={NOOP}
previousPage={NOOP}
hasMoreTxs={false}
hasPreviousPage={false}
>
<span></span>
</TxsListNavigation>
);
expect(screen.getByText('Newer')).toBeDisabled();
expect(screen.getByText('Older')).toBeDisabled();
});
});
@@ -0,0 +1,63 @@
import { t } from '@vegaprotocol/i18n';
import { BlocksRefetch } from '../blocks';
import { Button } from '@vegaprotocol/ui-toolkit';
export interface TxListNavigationProps {
refreshTxs: () => void;
nextPage: () => void;
previousPage: () => void;
loading?: boolean;
hasPreviousPage: boolean;
hasMoreTxs: boolean;
children: React.ReactNode;
}
/**
* Displays a list of transactions with filters and controls to navigate through the list.
*
* @returns {JSX.Element} Transaction List and controls
*/
export const TxsListNavigation = ({
refreshTxs,
nextPage,
previousPage,
hasMoreTxs,
hasPreviousPage,
children,
loading = false,
}: TxListNavigationProps) => {
return (
<>
<menu className="mb-2 w-full ">{children}</menu>
<menu className="mb-2 w-full">
<BlocksRefetch refetch={refreshTxs} />
<div className="float-right">
<Button
className="mr-2"
size="xs"
disabled={!hasPreviousPage || loading}
onClick={() => {
previousPage();
}}
>
{t('Newer')}
</Button>
<Button
size="xs"
disabled={!hasMoreTxs}
onClick={() => {
nextPage();
}}
>
{t('Older')}
</Button>
</div>
<div className="float-right mr-2">
{loading ? (
<span className="text-vega-light-300">{t('Loading...')}</span>
) : null}
</div>
</menu>
</>
);
};
@@ -1,5 +1,6 @@
import { t } from '@vegaprotocol/i18n';
import type { components } from '../../../types/explorer';
import { VoteIcon } from '../vote-icon/vote-icon';
interface TxOrderTypeProps {
orderType: string;
@@ -15,7 +16,7 @@ interface StringMap {
const displayString: StringMap = {
OrderSubmission: 'Order Submission',
'Submit Order': 'Order',
OrderCancellation: 'Order Cancellation',
OrderCancellation: 'Cancel order',
OrderAmendment: 'Order Amendment',
VoteSubmission: 'Vote Submission',
WithdrawSubmission: 'Withdraw Submission',
@@ -23,6 +24,7 @@ const displayString: StringMap = {
LiquidityProvisionSubmission: 'LP order',
'Liquidity Provision Order': 'LP order',
LiquidityProvisionCancellation: 'LP cancel',
'Cancel LiquidityProvision Order': 'LP cancel',
LiquidityProvisionAmendment: 'LP update',
'Amend LiquidityProvision Order': 'Amend LP',
ProposalSubmission: 'Governance Proposal',
@@ -35,12 +37,34 @@ const displayString: StringMap = {
UndelegateSubmission: 'Undelegation',
KeyRotateSubmission: 'Key Rotation',
StateVariableProposal: 'State Variable',
'State Variable Proposal': 'State Variable',
Transfer: 'Transfer',
CancelTransfer: 'Cancel Transfer',
'Cancel Transfer Funds': 'Cancel Transfer',
ValidatorHeartbeat: 'Heartbeat',
'Validator Heartbeat': 'Heartbeat',
'Batch Market Instructions': 'Batch',
'Stop Orders Submission': 'Stop',
StopOrdersSubmission: 'Stop',
StopOrdersCancellation: 'Cancel stop',
'Stop Orders Cancellation': 'Cancel stop',
};
export function getLabelForOrderType(
orderType: string,
command: components['schemas']['v1InputData']
): string {
if (command.orderSubmission) {
if (command.orderSubmission.peggedOrder) {
return 'Peg';
}
if (command.orderSubmission.icebergOpts) {
return 'Iceberg';
}
}
return 'Order';
}
/**
* Given a proposal, will return a specific label
* @param chainEvent
@@ -54,7 +78,11 @@ export function getLabelForProposal(
} else if (proposal.terms?.updateAsset) {
return t('Proposal: Update asset');
} else if (proposal.terms?.newMarket) {
return t('Proposal: New market');
if (proposal.terms?.newMarket.changes?.successor) {
return t('Proposal: Successor market');
} else {
return t('Proposal: New market');
}
} else if (proposal.terms?.updateMarket) {
return t('Proposal: Update market');
} else if (proposal.terms?.updateNetworkParameter) {
@@ -112,6 +140,8 @@ export function getLabelForChainEvent(
return t('Signer threshold');
}
return t('Multisig update');
} else if (chainEvent.contractCall) {
return t('Contract call');
}
return t('Chain Event');
}
@@ -137,17 +167,35 @@ export const TxOrderType = ({ orderType, command }: TxOrderTypeProps) => {
let type = displayString[orderType] || orderType;
let colours =
'text-white dark:text-white bg-vega-dark-150 dark:bg-vega-dark-150';
'text-white dark:text-white bg-vega-dark-150 dark:bg-vega-dark-250';
// This will get unwieldy and should probably produce a different colour of tag
// Note that colours are currently arbitrary
if (type === 'Chain Event' && !!command?.chainEvent) {
type = getLabelForChainEvent(command.chainEvent);
colours = 'text-white dark-text-white bg-vega-pink dark:bg-vega-pink';
} else if (type === 'Validator Heartbeat') {
colours =
'text-white dark-text-white bg-vega-light-200 dark:bg-vega-dark-100';
} else if (type === 'Proposal' || type === 'Governance Proposal') {
if (command && !!command.proposalSubmission) {
type = getLabelForProposal(command.proposalSubmission);
}
colours = 'text-black bg-vega-yellow';
} else if (type === 'Order' && command) {
type = getLabelForOrderType(orderType, command);
colours = 'text-white dark-text-white bg-vega-blue dark:bg-vega-blue';
}
if (type === 'Vote on Proposal') {
return (
<VoteIcon
vote={command?.voteSubmission?.value === 'VALUE_YES'}
yesText="Proposal vote"
noText="Proposal vote"
useVoteColour={false}
/>
);
}
if (type === 'Vote on Proposal' || type === 'Vote Submission') {
@@ -157,7 +205,7 @@ export const TxOrderType = ({ orderType, command }: TxOrderTypeProps) => {
return (
<div
data-testid="tx-type"
className={`text-sm rounded-md leading-none px-2 py-2 inline-block ${colours}`}
className={`text-sm rounded-md leading-tight px-2 inline-block whitespace-nowrap ${colours}`}
>
{type}
</div>
@@ -1,3 +1,4 @@
import { MockedProvider } from '@apollo/client/testing';
import { TxsInfiniteListItem } from './txs-infinite-list-item';
import { render, screen } from '@testing-library/react';
import { MemoryRouter } from 'react-router-dom';
@@ -83,21 +84,26 @@ describe('Txs infinite list item', () => {
it('renders data correctly', () => {
render(
<MemoryRouter>
<TxsInfiniteListItem
type="testType"
submitter="testPubKey"
hash="testTxHash"
block="1"
code={0}
command={{}}
/>
</MemoryRouter>
<MockedProvider>
<MemoryRouter>
<table>
<tbody>
<TxsInfiniteListItem
type="testType"
submitter="testPubKey"
hash="testTxHash"
block="1"
code={0}
command={{}}
/>
</tbody>
</table>
</MemoryRouter>
</MockedProvider>
);
expect(screen.getByTestId('tx-hash')).toHaveTextContent('testTxHash');
expect(screen.getByTestId('pub-key')).toHaveTextContent('testPubKey');
expect(screen.getByTestId('tx-type')).toHaveTextContent('testType');
expect(screen.getByTestId('tx-block')).toHaveTextContent('1');
expect(screen.getByTestId('tx-success')).toHaveTextContent('Success: ✅');
});
});
@@ -1,4 +1,3 @@
import React from 'react';
import { TruncatedLink } from '../truncate/truncated-link';
import { Routes } from '../../routes/route-names';
import { TxOrderType } from './tx-order-type';
@@ -6,8 +5,25 @@ import type { BlockExplorerTransactionResult } from '../../routes/types/block-ex
import { toHex } from '../search/detect-search';
import { ChainResponseCode } from './details/chain-response-code/chain-reponse.code';
import isNumber from 'lodash/isNumber';
import { PartyLink } from '../links';
import { useScreenDimensions } from '@vegaprotocol/react-helpers';
import type { Screen } from '@vegaprotocol/react-helpers';
import { useMemo } from 'react';
const TRUNCATE_LENGTH = 10;
const DEFAULT_TRUNCATE_LENGTH = 7;
export function getIdTruncateLength(screen: Screen): number {
if (['xxxl', 'xxl'].includes(screen)) {
return 32;
} else if (['xl', 'lg', 'md'].includes(screen)) {
return 16;
}
return DEFAULT_TRUNCATE_LENGTH;
}
export function shouldTruncateParty(screen: Screen): boolean {
return !['xxxl', 'xxl', 'xl'].includes(screen);
}
export const TxsInfiniteListItem = ({
hash,
@@ -17,6 +33,12 @@ export const TxsInfiniteListItem = ({
block,
command,
}: Partial<BlockExplorerTransactionResult>) => {
const { screenSize } = useScreenDimensions();
const idTruncateLength = useMemo(
() => getIdTruncateLength(screenSize),
[screenSize]
);
if (
!hash ||
!submitter ||
@@ -29,68 +51,40 @@ export const TxsInfiniteListItem = ({
}
return (
<div
<tr
data-testid="transaction-row"
className="flex items-center h-full border-t border-neutral-600 dark:border-neutral-800 txs-infinite-list-item grid grid-cols-10 py-2"
className="transaction-row text-left items-center h-full border-t border-neutral-600 dark:border-neutral-800 txs-infinite-list-item py-[2px]"
>
<div
className="text-sm col-span-10 md:col-span-3 leading-none"
<td
className="text-sm leading-none whitespace-nowrap font-mono"
data-testid="tx-hash"
>
<span className="md:hidden uppercase text-vega-dark-300">
ID:&nbsp;
</span>
<TruncatedLink
to={`/${Routes.TX}/${toHex(hash)}`}
text={hash}
startChars={TRUNCATE_LENGTH}
endChars={TRUNCATE_LENGTH}
/>
</div>
<div
className="text-sm col-span-10 md:col-span-3 leading-none"
data-testid="pub-key"
>
<span className="md:hidden uppercase text-vega-dark-300">
By:&nbsp;
</span>
<TruncatedLink
to={`/${Routes.PARTIES}/${submitter}`}
text={submitter}
startChars={TRUNCATE_LENGTH}
endChars={TRUNCATE_LENGTH}
/>
</div>
<div className="text-sm col-span-5 md:col-span-2 leading-none flex items-center">
<TxOrderType orderType={type} command={command} />
</div>
<div
className="text-sm col-span-3 md:col-span-1 leading-none flex items-center"
data-testid="tx-block"
>
<span className="md:hidden uppercase text-vega-dark-300">
Block:&nbsp;
</span>
<TruncatedLink
to={`/${Routes.BLOCKS}/${block}`}
text={block}
startChars={TRUNCATE_LENGTH}
endChars={TRUNCATE_LENGTH}
/>
</div>
<div
className="text-sm col-span-2 md:col-span-1 leading-none flex items-center"
data-testid="tx-success"
>
<span className="md:hidden uppercase text-vega-dark-300">
Success:&nbsp;
</span>
{isNumber(code) ? (
<ChainResponseCode code={code} hideLabel={true} />
<ChainResponseCode code={code} hideLabel={true} hideIfOk={true} />
) : (
code
)}
</div>
</div>
<TruncatedLink
to={`/${Routes.TX}/${toHex(hash)}`}
text={hash}
startChars={idTruncateLength}
endChars={0}
/>
</td>
<td className="text-sm leading-none">
<TxOrderType orderType={type} command={command} />
</td>
<td className="text-sm leading-none" data-testid="pub-key">
<PartyLink truncate={shouldTruncateParty(screenSize)} id={submitter} />
</td>
<td className="text-sm items-center font-mono" data-testid="tx-block">
<TruncatedLink
to={`/${Routes.BLOCKS}/${block}`}
text={block}
startChars={5}
endChars={5}
/>
</td>
</tr>
);
};
@@ -1,14 +1,21 @@
import { TxsInfiniteList } from './txs-infinite-list';
import { render, screen, fireEvent, act } from '@testing-library/react';
import { render, screen } from '@testing-library/react';
import { MemoryRouter } from 'react-router-dom';
import type { BlockExplorerTransactionResult } from '../../routes/types/block-explorer-response';
import { Side } from '@vegaprotocol/types';
import { MockedProvider } from '@apollo/client/testing';
const generateHash = (): string =>
Array.from(
{ length: 64 },
() => '0123456789ABCDEF'[Math.floor(Math.random() * 16)]
).join('');
const generateTxs = (number: number): BlockExplorerTransactionResult[] => {
return Array.from(Array(number)).map((_) => ({
block: '87901',
index: 2,
hash: '0F8B98DA0923A50786B852D9CA11E051CACC4C733E1DB93D535C7D81DBD10F6F',
hash: generateHash(),
submitter:
'4b782482f587d291e8614219eb9a5ee9280fa2c58982dee71d976782a9be1964',
type: 'Submit Order',
@@ -40,7 +47,7 @@ describe('Txs infinite list', () => {
it('should display a "no items" message when no items provided', () => {
render(
<TxsInfiniteList
txs={undefined}
txs={undefined as unknown as BlockExplorerTransactionResult[]}
areTxsLoading={false}
hasMoreTxs={false}
loadMoreTxs={() => null}
@@ -48,23 +55,7 @@ describe('Txs infinite list', () => {
/>
);
expect(screen.getByTestId('emptylist')).toBeInTheDocument();
expect(
screen.getByText('This chain has 0 transactions')
).toBeInTheDocument();
});
it('error is displayed at item level', () => {
const txs = generateTxs(1);
render(
<TxsInfiniteList
txs={txs}
areTxsLoading={false}
hasMoreTxs={false}
loadMoreTxs={() => null}
error={Error('test error!')}
/>
);
expect(screen.getByText('Cannot fetch transaction')).toBeInTheDocument();
expect(screen.getByText('No transactions found')).toBeInTheDocument();
});
it('item renders data of n length into list of n length', () => {
@@ -73,85 +64,22 @@ describe('Txs infinite list', () => {
const txs = generateTxs(7);
render(
<MemoryRouter>
<TxsInfiniteList
txs={txs}
areTxsLoading={false}
hasMoreTxs={false}
loadMoreTxs={() => null}
error={undefined}
/>
<MockedProvider>
<TxsInfiniteList
txs={txs}
areTxsLoading={false}
hasMoreTxs={false}
loadMoreTxs={() => null}
error={undefined}
/>
</MockedProvider>
</MemoryRouter>
);
expect(
screen
.getByTestId('infinite-scroll-wrapper')
.querySelectorAll('.txs-infinite-list-item')
.getByTestId('transactions-list')
.querySelectorAll('.transaction-row')
).toHaveLength(7);
});
it('tries to load more items when required to initially fill the list', () => {
// For example, if initially rendering 15, the bottom of the list is
// in view of the viewport, and the callback should be executed
const txs = generateTxs(15);
const callback = jest.fn();
render(
<MemoryRouter>
<TxsInfiniteList
txs={txs}
areTxsLoading={false}
hasMoreTxs={true}
loadMoreTxs={callback}
error={undefined}
/>
</MemoryRouter>
);
expect(callback.mock.calls.length).toEqual(1);
});
it('does not try to load more items if there are no more', () => {
const txs = generateTxs(3);
const callback = jest.fn();
render(
<MemoryRouter>
<TxsInfiniteList
txs={txs}
areTxsLoading={false}
hasMoreTxs={false}
loadMoreTxs={callback}
error={undefined}
/>
</MemoryRouter>
);
expect(callback.mock.calls.length).toEqual(0);
});
it('loads more items is called when scrolled', () => {
const txs = generateTxs(14);
const callback = jest.fn();
render(
<MemoryRouter>
<TxsInfiniteList
txs={txs}
areTxsLoading={false}
hasMoreTxs={true}
loadMoreTxs={callback}
error={undefined}
/>
</MemoryRouter>
);
act(() => {
fireEvent.scroll(screen.getByTestId('infinite-scroll-wrapper'), {
target: { scrollY: 2000 },
});
});
expect(callback.mock.calls.length).toEqual(1);
});
});
@@ -1,8 +1,4 @@
import React from 'react';
import { FixedSizeList as List } from 'react-window';
import InfiniteLoader from 'react-window-infinite-loader';
import { t } from '@vegaprotocol/i18n';
import { useScreenDimensions } from '@vegaprotocol/react-helpers';
import { TxsInfiniteListItem } from './txs-infinite-list-item';
import type { BlockExplorerTransactionResult } from '../../routes/types/block-explorer-response';
import EmptyList from '../empty-list/empty-list';
@@ -11,71 +7,46 @@ import { Loader } from '@vegaprotocol/ui-toolkit';
interface TxsInfiniteListProps {
hasMoreTxs: boolean;
areTxsLoading: boolean | undefined;
txs: BlockExplorerTransactionResult[] | undefined;
txs: BlockExplorerTransactionResult[];
loadMoreTxs: () => void;
error: Error | undefined;
className?: string;
hasFilters?: boolean;
}
interface ItemProps {
index: BlockExplorerTransactionResult;
style: React.CSSProperties;
isLoading: boolean;
error: Error | undefined;
tx: BlockExplorerTransactionResult;
}
// eslint-disable-next-line @typescript-eslint/no-empty-function
const NOOP = () => {};
const Item = ({ index, style, isLoading, error }: ItemProps) => {
let content;
if (error) {
content = t(`Cannot fetch transaction`);
} else if (isLoading) {
content = <Loader />;
} else {
const {
hash,
submitter,
type,
command,
block,
code,
index: blockIndex,
} = index;
content = (
<TxsInfiniteListItem
type={type}
code={code}
command={command}
submitter={submitter}
hash={hash}
block={block}
index={blockIndex}
/>
);
}
return <div style={style}>{content}</div>;
const Item = ({ tx }: ItemProps) => {
const { hash, submitter, type, command, block, code, index: blockIndex } = tx;
return (
<TxsInfiniteListItem
type={type}
code={code}
command={command}
submitter={submitter}
hash={hash}
block={block}
index={blockIndex}
/>
);
};
export const TxsInfiniteList = ({
hasMoreTxs,
areTxsLoading,
txs,
loadMoreTxs,
error,
className,
hasFilters = false,
}: TxsInfiniteListProps) => {
const { screenSize } = useScreenDimensions();
const isStacked = ['xs', 'sm'].includes(screenSize);
if (!txs) {
if (!txs || txs.length === 0) {
if (!areTxsLoading) {
return (
<EmptyList
heading={t('This chain has 0 transactions')}
label={t('Check back soon')}
heading={t('No transactions found')}
label={
hasFilters ? t('Try a different filter') : t('Check back soon')
}
/>
);
} else {
@@ -83,56 +54,26 @@ export const TxsInfiniteList = ({
}
}
// If there are more items to be loaded then add an extra row to hold a loading indicator.
const itemCount = hasMoreTxs ? txs.length + 1 : txs.length;
// Pass an empty callback to InfiniteLoader in case it asks us to load more than once.
// eslint-disable-next-line @typescript-eslint/no-empty-function
const loadMoreItems = areTxsLoading ? NOOP : loadMoreTxs;
// Every row is loaded except for our loading indicator row.
const isItemLoaded = (index: number) => !hasMoreTxs || index < txs.length;
return (
<div className={className} data-testid="transactions-list">
<div className="lg:grid grid-cols-10 w-full mb-3 hidden text-vega-dark-300 uppercase">
<div className="col-span-3">
<span className="hidden xl:inline">{t('Transaction')} &nbsp;</span>
<span>ID</span>
</div>
<div className="col-span-3">{t('Submitted By')}</div>
<div className="col-span-2">{t('Type')}</div>
<div className="col-span-1">{t('Block')}</div>
<div className="col-span-1">{t('Success')}</div>
</div>
<div data-testid="infinite-scroll-wrapper">
<InfiniteLoader
isItemLoaded={isItemLoaded}
itemCount={itemCount}
loadMoreItems={loadMoreItems}
>
{({ onItemsRendered, ref }) => (
<List
className="List"
height={995}
itemCount={itemCount}
itemSize={isStacked ? 134 : 50}
onItemsRendered={onItemsRendered}
ref={ref}
width={'100%'}
>
{({ index, style }) => (
<Item
index={txs[index]}
style={style}
isLoading={!isItemLoaded(index)}
error={error}
/>
)}
</List>
)}
</InfiniteLoader>
</div>
<div className="overflow-scroll">
<table className={className} data-testid="transactions-list">
<thead>
<tr className="w-full mb-3 text-vega-dark-300 uppercase text-left">
<th>
<span className="hidden xl:inline">{t('Txn')} &nbsp;</span>
<span>ID</span>
</th>
<th>{t('Type')}</th>
<th className="text-left">{t('From')}</th>
<th>{t('Block')}</th>
</tr>
</thead>
<tbody>
{txs.map((t) => (
<Item key={t.hash} tx={t} />
))}
</tbody>
</table>
</div>
);
};
@@ -1,26 +1,20 @@
import { Routes } from '../../routes/route-names';
import { TruncatedLink } from '../truncate/truncated-link';
import { TxOrderType } from './tx-order-type';
import { Table, TableRow, TableCell } from '../table';
import { Table, TableRow } from '../table';
import { t } from '@vegaprotocol/i18n';
import { useFetch } from '@vegaprotocol/react-helpers';
import type { BlockExplorerTransactions } from '../../routes/types/block-explorer-response';
import isNumber from 'lodash/isNumber';
import { ChainResponseCode } from './details/chain-response-code/chain-reponse.code';
import { getTxsDataUrl } from '../../hooks/use-txs-data';
import { getTxsDataUrl } from '../../hooks/get-txs-data-url';
import { AsyncRenderer, Loader } from '@vegaprotocol/ui-toolkit';
import EmptyList from '../empty-list/empty-list';
import { TxsInfiniteListItem } from './txs-infinite-list-item';
interface TxsPerBlockProps {
blockHeight: string;
txCount: number;
}
const truncateLength = 5;
export const TxsPerBlock = ({ blockHeight, txCount }: TxsPerBlockProps) => {
const filters = `filters[block.height]=${blockHeight}`;
const url = getTxsDataUrl({ limit: txCount.toString(), filters });
const url = getTxsDataUrl({ filters, count: txCount });
const {
state: { data, loading, error },
} = useFetch<BlockExplorerTransactions>(url);
@@ -33,53 +27,23 @@ export const TxsPerBlock = ({ blockHeight, txCount }: TxsPerBlockProps) => {
<thead>
<TableRow modifier="bordered" className="font-mono">
<td>{t('Transaction')}</td>
<td>{t('From')}</td>
<td>{t('Type')}</td>
<td>{t('Status')}</td>
<td>{t('From')}</td>
<td>{t('Block')}</td>
</TableRow>
</thead>
<tbody>
{data.transactions.map(
({ hash, submitter, type, command, code }) => {
({ hash, submitter, type, command, code, block }) => {
return (
<TableRow
modifier="bordered"
key={hash}
data-testid="transaction-row"
>
<TableCell
modifier="bordered"
className="pr-12 font-mono"
>
<TruncatedLink
to={`/${Routes.TX}/${hash}`}
text={hash}
startChars={truncateLength}
endChars={truncateLength}
/>
</TableCell>
<TableCell
modifier="bordered"
className="pr-12 font-mono"
>
<TruncatedLink
to={`/${Routes.PARTIES}/${submitter}`}
text={submitter}
startChars={truncateLength}
endChars={truncateLength}
/>
</TableCell>
<TableCell modifier="bordered">
<TxOrderType orderType={type} command={command} />
</TableCell>
<TableCell modifier="bordered" className="text">
{isNumber(code) ? (
<ChainResponseCode code={code} hideLabel={true} />
) : (
code
)}
</TableCell>
</TableRow>
<TxsInfiniteListItem
block={block}
hash={hash}
submitter={submitter}
type={type}
command={command}
code={code}
/>
);
}
)}
@@ -0,0 +1,50 @@
import { render } from '@testing-library/react';
import { VoteIcon } from './vote-icon';
describe('Vote TX icon', () => {
it('should use the text For by default for yes votes', () => {
const yes = render(<VoteIcon vote={true} />);
expect(yes.getByTestId('label')).toHaveTextContent('For');
});
it('should use the yesText for yes votes if specified', () => {
const yes = render(<VoteIcon vote={true} yesText="Test" />);
expect(yes.getByTestId('label')).toHaveTextContent('Test');
});
it('should display the tick icon for yes votes', () => {
const no = render(<VoteIcon vote={true} />);
expect(no.getByRole('img')).toHaveAttribute(
'aria-label',
'tick-circle icon'
);
});
it('should use the text Against by default for no votes', () => {
const no = render(<VoteIcon vote={false} />);
expect(no.getByTestId('label')).toHaveTextContent('Against');
});
it('should use the noText for no votes if specified', () => {
const no = render(<VoteIcon vote={false} noText="Test" />);
expect(no.getByTestId('label')).toHaveTextContent('Test');
});
it('should display the delete icon for no votes', () => {
const no = render(<VoteIcon vote={false} />);
expect(no.getByRole('img')).toHaveAttribute('aria-label', 'delete icon');
});
it('useVoteColour prop can be used to override coloured background', () => {
const no = render(<VoteIcon vote={false} />);
expect(no.container.children[0]).toHaveClass('bg-vega-pink-550');
const monochromeNo = render(
<VoteIcon vote={false} useVoteColour={false} />
);
expect(monochromeNo.container.children[0]).not.toHaveClass(
'bg-vega-pink-550'
);
expect(monochromeNo.container.children[0]).toHaveClass('bg-vega-dark-200');
});
});
@@ -0,0 +1,71 @@
import { Icon } from '@vegaprotocol/ui-toolkit';
import type { IconName } from '@vegaprotocol/ui-toolkit';
export interface VoteIconProps {
// True is a yes vote, false is undefined or no vorte
vote: boolean;
// Defaults to 'For', but can be any text
yesText?: string;
// Defaults to 'Against', but can be any text
noText?: string;
// If set to false the background will not be coloured
useVoteColour?: boolean;
}
function getBgColour(useVoteColour: boolean, vote: boolean) {
if (useVoteColour === false) {
return 'bg-vega-dark-200';
}
return vote ? 'bg-vega-green-550' : 'bg-vega-pink-550';
}
function getFillColour(useVoteColour: boolean, vote: boolean) {
if (useVoteColour === false) {
return 'white';
}
return vote ? 'vega-green-300' : 'vega-pink-300';
}
function getTextColour(useVoteColour: boolean, vote: boolean) {
if (useVoteColour === false) {
return 'white';
}
return vote ? 'vega-green-200' : 'vega-pink-200';
}
/**
* Displays a lozenge with an icon representing the way a user voted for a proposal.
* The yes and no text can be overridden
*
* @returns
*/
export function VoteIcon({
vote,
useVoteColour = true,
yesText = 'For',
noText = 'Against',
}: VoteIconProps) {
const label = vote ? yesText : noText;
const icon: IconName = vote ? 'tick-circle' : 'delete';
const bg = getBgColour(useVoteColour, vote);
const fill = getFillColour(useVoteColour, vote);
const text = getTextColour(useVoteColour, vote);
return (
<div
className={`voteicon inline-block py-0 px-2 py rounded-md text-white whitespace-nowrap leading-tight sm align-top ${bg}`}
>
<Icon
name={icon}
size={3}
className={`mr-2 p-0 mb-[-1px] fill-${fill}`}
/>
<span className={`text-${text}`} data-testid="label">
{label}
</span>
</div>
);
}
-15
View File
@@ -5,8 +5,6 @@ const windowOrDefault = (key: string) => {
return (process.env[key] as string) || '';
};
const truthy = ['1', 'true'];
export const ENV = {
// Data sources
// Environment
@@ -20,19 +18,6 @@ export const ENV = {
governanceUrl: windowOrDefault('NX_VEGA_GOVERNANCE_URL'),
vegaRepoUrl: windowOrDefault('NX_VEGA_REPO_URL'),
},
flags: {
assets: truthy.includes(windowOrDefault('NX_EXPLORER_ASSETS')),
genesis: truthy.includes(windowOrDefault('NX_EXPLORER_GENESIS')),
governance: truthy.includes(windowOrDefault('NX_EXPLORER_GOVERNANCE')),
markets: truthy.includes(windowOrDefault('NX_EXPLORER_MARKETS')),
oracles: truthy.includes(windowOrDefault('NX_EXPLORER_ORACLES')),
txsList: truthy.includes(windowOrDefault('NX_EXPLORER_TXS_LIST')),
networkParameters: truthy.includes(
windowOrDefault('NX_EXPLORER_NETWORK_PARAMETERS')
),
parties: truthy.includes(windowOrDefault('NX_EXPLORER_PARTIES')),
validators: truthy.includes(windowOrDefault('NX_EXPLORER_VALIDATORS')),
},
addresses: {
feedback: windowOrDefault('NX_GITHUB_FEEDBACK_URL'),
},
-5
View File
@@ -1,5 +0,0 @@
import { ENV } from './env';
export default {
...ENV.flags,
};
@@ -0,0 +1,59 @@
import { DATA_SOURCES } from '../config';
type IGetTxsDataFirstPage = {
baseUrl?: string;
count?: number;
party?: string;
filters?: string;
};
interface IGetTxsDataPrevious extends IGetTxsDataFirstPage {
before: string;
}
interface IGetTxsDataNext extends IGetTxsDataFirstPage {
after: string;
}
type IGetTxsDataUrl =
| IGetTxsDataPrevious
| IGetTxsDataNext
| IGetTxsDataFirstPage;
export const BE_TXS_PER_REQUEST = 25;
/**
* Properly encodes the filters and parameters for a request to the block explorer
* API for transactions. As the API uses a slightly less common format for encoding
* filters, some of it is more manual than you might expect.
*
* @param params An object containing the pagination and filters
* @returns string URL to call
*/
export const getTxsDataUrl = (params: IGetTxsDataUrl) => {
const baseUrl =
params.baseUrl || `${DATA_SOURCES.blockExplorerUrl}/transactions`;
const url = new URL(baseUrl);
const count = `${params.count || BE_TXS_PER_REQUEST}`;
if ('before' in params && params.before?.length > 0) {
url.searchParams.append('last', count);
url.searchParams.append('before', params.before);
} else if ('after' in params && params.after?.length > 0) {
url.searchParams.append('first', count);
url.searchParams.append('after', params.after);
} else {
url.searchParams.append('first', count);
}
// Hacky fix for param as array
let urlAsString = url.toString();
if (params.filters && params.filters?.length > 0) {
urlAsString += '&' + params.filters.replaceAll(' ', '%20');
}
if (params.party && params.party?.length > 0) {
urlAsString += `&filters[tx.submitter]=${params.party}`;
}
return urlAsString;
};
@@ -0,0 +1,48 @@
import { getTxsDataUrl } from './get-txs-data-url'; // import the function to be tested
describe('getTxsDataUrl', () => {
it('should return the correct URL without filters and party', () => {
const params = {
count: 10,
baseUrl: 'https://example.com/transactions',
};
const expectedUrl = 'https://example.com/transactions?first=10';
expect(getTxsDataUrl(params)).toEqual(expectedUrl);
});
it('should return the correct URL with "before" in params', () => {
const params = {
count: 5,
before: '100.1',
baseUrl: 'https://example.com/transactions',
};
const expectedUrl = 'https://example.com/transactions?last=5&before=100.1';
expect(getTxsDataUrl(params)).toEqual(expectedUrl);
});
it('should return the correct URL with "after" in params', () => {
const params = {
count: 5,
after: '222.1',
baseUrl: 'https://example.com/transactions',
};
const expectedUrl = 'https://example.com/transactions?first=5&after=222.1';
expect(getTxsDataUrl(params)).toEqual(expectedUrl);
});
it('should return the correct URL with filters and party', () => {
const params = {
count: 10,
filters: 'filters[cmd.type]=Made Up Transaction',
party: '1234',
baseUrl: 'https://example.com/transactions',
};
const expectedUrl =
'https://example.com/transactions?first=10&filters[cmd.type]=Made%20Up%20Transaction&filters[tx.submitter]=1234';
expect(getTxsDataUrl(params)).toEqual(expectedUrl);
});
});
+111 -64
View File
@@ -1,94 +1,141 @@
import { useCallback, useEffect, useState } from 'react';
import { useSearchParams } from 'react-router-dom';
import type { URLSearchParamsInit } from 'react-router-dom';
import { useCallback } from 'react';
import { useFetch } from '@vegaprotocol/react-helpers';
import type {
BlockExplorerTransactionResult,
BlockExplorerTransactions,
} from '../routes/types/block-explorer-response';
import { DATA_SOURCES } from '../config';
import isNumber from 'lodash/isNumber';
import { AllFilterOptions } from '../components/txs/tx-filter';
import type { FilterOption } from '../components/txs/tx-filter';
import { BE_TXS_PER_REQUEST, getTxsDataUrl } from './get-txs-data-url';
export interface TxsStateProps {
txsData: BlockExplorerTransactionResult[];
hasMoreTxs: boolean;
lastCursor: string;
export function getTypeFilters(filters?: Set<FilterOption>) {
if (!filters) {
return '';
} else if (filters.size > 1) {
return '';
}
const forcedSingleFilter = Array.from(filters)[0];
return `filters[cmd.type]=${forcedSingleFilter}`;
}
export interface IUseTxsData {
limit?: number;
filters?: string;
count?: number;
before?: string;
after?: string;
party?: string;
filters?: Set<FilterOption>;
}
interface IGetTxsDataUrl {
limit?: string;
filters?: string;
}
export const useTxsData = ({
count = 25,
before,
after,
filters,
party,
}: IUseTxsData) => {
const [, setSearchParams] = useSearchParams();
let hasMoreTxs = true;
let txsData: BlockExplorerTransactionResult[] = [];
export const getTxsDataUrl = ({ limit, filters }: IGetTxsDataUrl) => {
const url = new URL(`${DATA_SOURCES.blockExplorerUrl}/transactions`);
if (limit) {
url.searchParams.append('limit', limit);
}
// Hacky fix for param as array
let urlAsString = url.toString();
if (filters) {
urlAsString += '&' + filters;
}
return urlAsString;
};
export const useTxsData = ({ limit, filters }: IUseTxsData) => {
const [{ txsData, hasMoreTxs, lastCursor }, setTxsState] =
useState<TxsStateProps>({
txsData: [],
hasMoreTxs: true,
lastCursor: '',
});
const url = getTxsDataUrl({ limit: limit?.toString(), filters });
const url = getTxsDataUrl({
filters: getTypeFilters(filters),
count,
before,
after,
party,
});
const {
state: { data, error, loading },
refetch,
} = useFetch<BlockExplorerTransactions>(url, {}, false);
} = useFetch<BlockExplorerTransactions>(url, {}, true);
useEffect(() => {
if (data && isNumber(data?.transactions?.length)) {
setTxsState((prev) => ({
txsData: [...prev.txsData, ...data.transactions],
hasMoreTxs: data.transactions.length > 0,
lastCursor:
data.transactions[data.transactions.length - 1]?.cursor || '',
}));
if (!loading && data && isNumber(data.transactions.length)) {
hasMoreTxs = data.transactions.length >= count;
txsData = data.transactions;
}
const nextPage = useCallback(() => {
const after = data?.transactions.at(-1)?.cursor || '';
const params: URLSearchParamsInit = { after };
if (filters) {
params.filters = Array.from(filters).join(',');
}
}, [setTxsState, data]);
setSearchParams(params);
}, [filters, data, setSearchParams]);
const loadTxs = useCallback(() => {
return refetch({
limit: limit,
before: lastCursor,
});
}, [lastCursor, limit, refetch]);
const previousPage = useCallback(() => {
const before = data?.transactions[0]?.cursor || '';
const params: URLSearchParamsInit = { before };
if (filters && filters.size > 0 && filters.size === 1) {
params.filters = Array.from(filters)[0];
}
setSearchParams(params);
}, [filters, data, setSearchParams]);
const refreshTxs = useCallback(async () => {
setTxsState((prev) => ({
...prev,
lastCursor: '',
hasMoreTxs: true,
txsData: [],
}));
}, [setTxsState]);
const params: URLSearchParamsInit = {};
if (filters && filters.size > 0 && filters.size === 1) {
params.filters = Array.from(filters)[0];
}
setSearchParams(params);
refetch({ count: BE_TXS_PER_REQUEST });
}, [setSearchParams, refetch, filters]);
const updateFilters = useCallback(
(newFilters: Set<FilterOption>) => {
const params: URLSearchParamsInit = {};
if (newFilters && newFilters.size === 1) {
params.filters = Array.from(newFilters)[0];
}
setSearchParams(params);
},
[setSearchParams]
);
return {
data,
updateFilters,
txsData,
loading,
error,
txsData,
hasMoreTxs,
lastCursor,
refreshTxs,
loadTxs,
nextPage,
previousPage,
};
};
/**
* Returns a Set of filters based on the URLSearchParams, or
* defaults to all.
* @param params
* @returns Set
*/
export function getInitialFilters(params: URLSearchParams): Set<FilterOption> {
const defaultFilters = new Set(AllFilterOptions);
const p = params.get('filters');
if (!p) {
return defaultFilters;
}
const filters = new Set<FilterOption>();
p.split(',').forEach((f) => {
if (AllFilterOptions.includes(f as FilterOption)) {
filters.add(f as FilterOption);
}
});
if (filters.size === 0) {
return defaultFilters;
}
return filters;
}
@@ -204,6 +204,7 @@ describe('Block', () => {
(useFetch as jest.Mock).mockReturnValue({
state: { data: createBlockResponse(1), loading: false, error: null },
});
render(renderComponent(1));
await waitFor(() => screen.getByTestId('block-header'));
expect(screen.getByTestId('previous-block-button')).toHaveAttribute(

Some files were not shown because too many files have changed in this diff Show More